[[{"header":{"parameterUnit":"m.s-1","parameterCategory":1,"la1":30.6,"la2":28.766,"lo1":-90.7593,"lo2":-88.6598,"dy":0.0162,"dx":0.0183,"nx":116,"ny":114,"refTime":"2023-03-13T00:00:00:Z","depth":0,"parameterNumber":2,"parameterNumberName":"U-component_of_WINDS"},"data":[0.0,0.0,0.0,0.0,0.0,0.0,0.0,0.0,0.0,0.0,0.0,0.0,0.0,0.0,0.0,0.0,0.0,0.0,0.0,0.0,0.0,0.0,0.0,0.0,0.0,0.0,0.0,0.0,0.0,0.0,0.0,0.0,0.0,0.0,0.0,0.0,0.0,0.0,0.0,0.0,0.0,0.0,0.0,0.0,0.0,0.0,0.0,0.0,0.0,0.0,0.0,0.0,0.0,0.0,0.0,0.0,0.0,0.0,0.0,0.0,0.0,0.0,0.0,0.0,0.0,0.0,0.0,0.0,0.0,0.0,0.0,0.0,0.0,0.0,0.0,0.0,0.0,0.0,0.0,0.0,0.0,0.0,0.0,0.0,0.0,0.0,0.0,0.0,0.0,0.0,0.0,0.0,0.0,0.0,0.0,0.0,0.0,0.0,0.0,0.0,0.0,0.0,0.0,0.0,0.0,0.0,0.0,0.0,0.0,0.0,0.0,0.0,0.0,0.0,0.0,0.0,0.0,0.0,0.0,0.0,0.0,0.0,0.0,0.0,0.0,0.0,0.0,0.0,0.0,0.0,0.0,0.0,0.0,0.0,0.0,0.0,0.0,0.0,0.0,0.0,0.0,0.0,0.0,0.0,0.0,0.0,0.0,0.0,0.0,0.0,0.0,0.0,0.0,0.0,0.0,0.0,0.0,0.0,0.0,0.0,0.0,0.0,0.0,0.0,0.0,0.0,0.0,0.0,0.0,0.0,0.0,0.0,0.0,0.0,0.0,0.0,0.0,0.0,0.0,0.0,0.0,0.0,0.0,0.0,0.0,0.0,0.0,0.0,0.0,0.0,0.0,0.0,0.0,0.0,0.0,0.0,0.0,0.0,0.0,0.0,0.0,0.0,0.0,0.0,0.0,0.0,0.0,0.0,0.0,0.0,0.0,0.0,0.0,0.0,0.0,0.0,0.0,0.0,0.0,0.0,0.0,0.0,0.0,0.0,0.0,0.0,0.0,0.0,0.0,0.0,0.0,0.0,0.0,0.0,0.0,0.0,0.0,0.0,0.0,0.0,0.0,0.0,0.0,0.0,0.0,0.0,0.0,0.0,0.0,0.0,0.0,0.0,0.0,0.0,0.0,0.0,0.0,0.0,0.0,0.0,0.0,0.0,0.0,0.0,0.0,0.0,0.0,0.0,0.0,0.0,0.0,0.0,0.0,0.0,0.0,0.0,0.0,0.0,0.0,0.0,0.0,0.0,0.0,0.0,0.0,0.0,0.0,0.0,0.0,0.0,0.0,0.0,0.0,0.0,0.0,0.0,0.0,0.0,0.0,0.0,0.0,0.0,0.0,0.0,0.0,0.0,0.0,0.0,0.0,0.0,0.0,0.0,0.0,0.0,0.0,0.0,0.0,0.0,0.0,0.0,0.0,0.0,0.0,0.0,0.0,0.0,0.0,0.0,0.0,0.0,0.0,0.0,0.0,0.0,0.0,0.0,0.0,0.0,0.0,0.0,0.0,0.0,0.0,0.0,0.0,0.0,0.0,0.0,0.0,0.0,0.0,0.0,0.0,0.0,0.0,0.0,0.0,0.0,0.0,0.0,0.0,0.0,0.0,0.0,0.0,0.0,0.0,0.0,0.0,0.0,0.0,0.0,0.0,0.0,0.0,0.0,0.0,0.0,0.0,0.0,0.0,0.0,0.0,0.0,0.0,0.0,0.0,0.0,0.0,0.0,0.0,0.0,0.0,0.0,0.0,0.0,0.0,0.0,0.0,0.0,0.0,0.0,0.0,0.0,0.0,0.0,0.0,0.0,0.0,0.0,0.0,0.0,0.0,0.0,0.0,0.0,0.0,0.0,0.0,0.0,0.0,0.0,0.0,0.0,0.0,0.0,0.0,0.0,0.0,0.0,0.0,0.0,0.0,0.0,0.0,0.0,0.0,0.0,0.0,0.0,0.0,0.0,0.0,0.0,0.0,0.0,0.0,0.0,0.0,0.0,0.0,0.0,0.0,0.0,0.0,0.0,0.0,0.0,0.0,0.0,0.0,0.0,0.0,0.0,0.0,0.0,0.0,0.0,0.0,0.0,0.0,0.0,0.0,0.0,0.0,0.0,0.0,0.0,0.0,0.0,0.0,0.0,0.0,0.0,0.0,0.0,0.0,0.0,0.0,0.0,0.0,0.0,0.0,0.0,0.0,0.0,0.0,0.0,0.0,0.0,0.0,0.0,0.0,0.0,0.0,0.0,0.0,0.0,0.0,0.0,0.0,0.0,0.0,0.0,0.0,0.0,0.0,0.0,0.0,0.0,0.0,0.0,0.0,0.0,0.0,0.0,0.0,0.0,0.0,0.0,0.0,0.0,0.0,0.0,0.0,0.0,0.0,0.0,0.0,0.0,0.0,0.0,0.0,0.0,0.0,0.0,0.0,0.0,0.0,0.0,0.0,0.0,0.0,0.0,0.0,0.0,0.0,0.0,0.0,0.0,0.0,0.0,0.0,0.0,0.0,0.0,0.0,0.0,0.0,0.0,0.0,0.0,0.0,0.0,0.0,0.0,0.0,0.0,0.0,0.0,0.0,0.0,0.0,0.0,0.0,0.0,0.0,0.0,0.0,0.0,0.0,0.0,0.0,0.0,0.0,0.0,0.0,0.0,0.0,0.0,0.0,0.0,0.0,0.0,0.0,0.0,0.0,0.0,0.0,0.0,0.0,0.0,0.0,0.0,0.0,0.0,0.0,0.0,0.0,0.0,0.0,0.0,0.0,0.0,0.0,0.0,0.0,0.0,0.0,0.0,0.0,0.0,0.0,0.0,0.0,0.0,0.0,0.0,0.0,0.0,0.0,0.0,0.0,0.0,0.0,0.0,0.0,0.0,0.0,0.0,0.0,0.0,0.0,0.0,0.0,0.0,0.0,0.0,0.0,0.0,0.0,0.0,0.0,0.0,0.0,0.0,0.0,0.0,0.0,0.0,0.0,0.0,0.0,0.0,0.0,0.0,0.0,0.0,0.0,0.0,0.0,0.0,0.0,0.0,0.0,0.0,0.0,0.0,0.0,0.0,0.0,0.0,0.0,0.0,0.0,0.0,0.0,0.0,0.0,0.0,0.0,0.0,0.0,0.0,0.0,0.0,0.0,0.0,0.0,0.0,0.0,0.0,0.0,0.0,0.0,0.0,0.0,0.0,0.0,0.0,0.0,0.0,0.0,0.0,0.0,0.0,0.0,0.0,0.0,0.0,0.0,0.0,0.0,0.0,0.0,0.0,0.0,0.0,0.0,0.0,0.0,0.0,0.0,0.0,0.0,0.0,0.0,0.0,0.0,0.0,0.0,0.0,0.0,0.0,0.0,0.0,0.0,0.0,0.0,0.0,0.0,0.0,0.0,0.0,0.0,0.0,0.0,0.0,0.0,0.0,0.0,0.0,0.0,0.0,0.0,0.0,0.0,0.0,0.0,0.0,0.0,0.0,0.0,0.0,0.0,0.0,0.0,0.0,0.0,0.0,0.0,0.0,0.0,0.0,0.0,0.0,0.0,0.0,0.0,0.0,0.0,0.0,0.0,0.0,0.0,0.0,0.0,0.0,0.0,0.0,0.0,0.0,0.0,0.0,0.0,0.0,0.0,0.0,0.0,0.0,0.0,0.0,0.0,0.0,0.0,0.0,0.0,0.0,0.0,0.0,0.0,0.0,0.0,0.0,0.0,0.0,0.0,0.0,0.0,0.0,0.0,0.0,0.0,0.0,0.0,0.0,0.0,0.0,0.0,0.0,0.0,0.0,0.0,0.0,0.0,0.0,0.0,0.0,0.0,0.0,0.0,0.0,0.0,0.0,0.0,0.0,0.0,0.0,0.0,0.0,0.0,0.0,0.0,0.0,0.0,0.0,0.0,0.0,0.0,0.0,0.0,0.0,0.0,0.0,0.0,0.0,0.0,0.0,0.0,0.0,0.0,0.0,0.0,0.0,0.0,0.0,0.0,0.0,0.0,0.0,0.0,0.0,0.0,0.0,0.0,0.0,0.0,0.0,0.0,0.0,0.0,0.0,0.0,0.0,0.0,0.0,0.0,0.0,0.0,0.0,0.0,0.0,0.0,0.0,0.0,0.0,0.0,0.0,0.0,0.0,0.0,0.0,0.0,0.0,0.0,0.0,0.0,0.0,0.0,0.0,0.0,0.0,0.0,0.0,0.0,0.0,0.0,0.0,0.0,0.0,0.0,0.0,0.0,0.0,0.0,0.0,0.0,0.0,0.0,0.0,0.0,0.0,0.0,0.0,0.0,0.0,0.0,0.0,0.0,0.0,0.0,0.0,0.0,0.0,0.0,0.0,0.0,0.0,0.0,0.0,0.0,0.0,0.0,0.0,0.0,0.0,0.0,0.0,0.0,0.0,0.0,0.0,0.0,0.0,0.0,0.0,0.0,0.0,0.0,0.0,0.0,0.0,0.0,0.0,0.0,0.0,0.0,0.0,0.0,0.0,0.0,0.0,0.0,0.0,0.0,0.0,0.0,0.0,0.0,0.0,0.0,0.0,0.0,0.0,0.0,0.0,0.0,0.0,0.0,0.0,0.0,0.0,0.0,0.0,0.0,0.0,0.0,0.0,0.0,0.0,0.0,0.0,0.0,0.0,0.0,0.0,0.0,0.0,0.0,0.0,0.0,0.0,0.0,0.0,0.0,0.0,0.0,0.0,0.0,0.0,0.0,0.0,0.0,0.0,0.0,0.0,0.0,0.0,0.0,0.0,0.0,0.0,0.0,0.0,0.0,0.0,0.0,0.0,0.0,0.0,0.0,0.0,0.0,0.0,0.0,0.0,0.0,0.0,0.0,0.0,0.0,0.0,0.0,0.0,0.0,0.0,0.0,0.0,0.0,0.0,0.0,0.0,0.0,0.0,0.0,0.0,0.0,0.0,0.0,0.0,0.0,0.0,0.0,0.0,0.0,0.0,0.0,0.0,0.0,0.0,0.0,0.0,0.0,0.0,0.0,0.0,0.0,0.0,0.0,0.0,0.0,0.0,0.0,0.0,0.0,0.0,0.0,0.0,0.0,0.0,0.0,0.0,0.0,0.0,0.0,0.0,0.0,0.0,0.0,0.0,0.0,0.0,0.0,0.0,0.0,0.0,0.0,0.0,0.0,0.0,0.0,0.0,0.0,0.0,0.0,0.0,0.0,0.0,0.0,0.0,0.0,0.0,0.0,0.0,0.0,0.0,0.0,0.0,0.0,0.0,0.0,0.0,0.0,0.0,0.0,0.0,0.0,0.0,0.0,0.0,0.0,0.0,0.0,0.0,0.0,0.0,0.0,0.0,0.0,0.0,0.0,0.0,0.0,0.0,0.0,0.0,0.0,0.0,0.0,0.0,0.0,0.0,0.0,0.0,0.0,0.0,0.0,0.0,0.0,0.0,0.0,0.0,0.0,0.0,0.0,0.0,0.0,0.0,0.0,0.0,0.0,0.0,0.0,0.0,0.0,0.0,0.0,0.0,0.0,0.0,0.0,0.0,0.0,0.0,0.0,0.0,0.0,0.0,0.0,0.0,0.0,0.0,0.0,0.0,0.0,0.0,0.0,0.0,0.0,0.0,0.0,0.0,0.0,0.0,0.0,0.0,0.0,0.0,0.0,0.0,0.0,0.0,0.0,0.0,0.0,0.0,0.0,0.0,0.0,0.0,0.0,0.0,0.0,0.0,0.0,0.0,0.0,0.0,0.0,0.0,0.0,0.0,0.0,0.0,0.0,0.0,0.0,0.0,0.0,0.0,0.0,0.0,0.0,0.0,0.0,0.0,0.0,0.0,0.0,0.0,0.0,0.0,0.0,0.0,0.0,0.0,0.0,0.0,0.0,0.0,0.0,0.0,0.0,0.0,0.0,0.0,0.0,0.0,0.0,0.0,0.0,0.0,0.0,0.0,0.0,0.0,0.0,0.0,0.0,0.0,0.0,0.0,0.0,0.0,0.0,0.0,0.0,0.0,0.0,0.0,0.0,0.0,0.0,0.0,0.0,0.0,0.0,0.0,0.0,0.0,0.0,0.0,0.0,0.0,0.0,0.0,0.0,0.0,0.0,0.0,0.0,0.0,0.0,0.0,0.0,0.0,0.0,0.0,0.0,0.0,3.316,0.0,0.0,0.0,0.0,0.0,0.0,0.0,0.0,0.0,0.0,0.0,0.0,0.0,0.0,0.0,0.0,0.0,0.0,0.0,0.0,0.0,0.0,0.0,0.0,0.0,0.0,0.0,0.0,0.0,0.0,0.0,0.0,0.0,0.0,0.0,0.0,0.0,0.0,0.0,2.5883,2.6342,2.7456,2.7172,2.7398,2.8082,0.0,0.0,0.0,0.0,0.0,0.0,0.0,0.0,0.0,0.0,0.0,0.0,0.0,0.0,0.0,0.0,0.0,0.0,0.0,0.0,0.0,0.0,0.0,0.0,0.0,0.0,0.0,0.0,0.0,0.0,0.0,0.0,0.0,0.0,0.0,0.0,0.0,0.0,0.0,0.0,0.0,0.0,0.0,0.0,0.0,0.0,0.0,0.0,0.0,0.0,0.0,0.0,0.0,0.0,0.0,0.0,0.0,0.0,0.0,0.0,0.0,0.0,0.0,0.0,0.0,0.0,0.0,0.0,0.0,0.0,0.0,3.4865,0.0,0.0,0.0,0.0,0.0,0.0,0.0,0.0,0.0,0.0,0.0,0.0,0.0,0.0,0.0,0.0,0.0,0.0,0.0,0.0,0.0,0.0,0.0,0.0,0.0,0.0,0.0,0.0,0.0,0.0,0.0,0.0,0.0,0.0,0.0,0.0,0.0,2.6694,2.711,2.7865,2.9006,2.8687,2.8995,2.9738,2.8348,0.0,0.0,0.0,0.0,0.0,0.0,0.0,0.0,0.0,0.0,0.0,0.0,0.0,0.0,0.0,0.0,0.0,0.0,0.0,0.0,0.0,0.0,0.0,0.0,0.0,0.0,0.0,0.0,0.0,0.0,0.0,0.0,0.0,0.0,0.0,0.0,0.0,0.0,0.0,0.0,0.0,0.0,0.0,0.0,0.0,0.0,0.0,0.0,0.0,0.0,0.0,0.0,0.0,0.0,0.0,0.0,0.0,0.0,0.0,0.0,0.0,0.0,0.0,0.0,0.0,4.2848,4.3279,4.3833,4.4247,4.0545,3.8337,3.7326,0.0,0.0,0.0,0.0,0.0,0.0,0.0,0.0,0.0,0.0,0.0,0.0,0.0,0.0,0.0,0.0,0.0,0.0,0.0,0.0,0.0,0.0,0.0,0.0,0.0,0.0,0.0,0.0,0.0,0.0,0.0,0.0,0.0,0.0,2.526,2.5535,2.6694,2.8677,3.0226,3.1363,3.2339,3.341,3.4318,3.0198,2.9579,3.1389,0.0,0.0,0.0,0.0,0.0,0.0,0.0,0.0,0.0,0.0,0.0,0.0,0.0,0.0,0.0,0.0,0.0,0.0,0.0,0.0,0.0,0.0,0.0,0.0,0.0,0.0,0.0,0.0,0.0,0.0,0.0,0.0,0.0,0.0,0.0,0.0,0.0,0.0,0.0,0.0,0.0,3.3675,3.4398,0.0,0.0,0.0,0.0,0.0,0.0,0.0,0.0,0.0,0.0,0.0,0.0,0.0,0.0,4.2651,4.4406,4.5341,4.5557,4.6891,4.7568,4.766,4.7188,4.7311,4.7865,4.6731,0.0,4.1403,3.9116,0.0,0.0,0.0,0.0,0.0,0.0,0.0,0.0,0.0,0.0,0.0,0.0,0.0,0.0,0.0,0.0,0.0,0.0,0.0,0.0,0.0,0.0,0.0,0.0,0.0,0.0,0.0,0.0,0.0,0.0,0.0,2.5758,2.581,2.5263,2.618,2.8593,3.1229,3.2955,3.3776,3.4633,3.5299,3.568,3.3363,3.2361,3.2354,3.0779,0.0,0.0,0.0,0.0,0.0,0.0,0.0,0.0,0.0,0.0,0.0,0.0,0.0,0.0,0.0,0.0,0.0,0.0,0.0,0.0,0.0,0.0,0.0,0.0,0.0,0.0,0.0,0.0,0.0,0.0,0.0,0.0,0.0,0.0,0.0,0.0,0.0,0.0,0.0,3.4829,3.5676,3.5629,3.6307,3.6461,0.0,0.0,0.0,0.0,0.0,0.0,0.0,0.0,0.0,4.3402,4.4079,4.5249,4.6993,4.8266,4.9281,5.0051,5.1014,5.1867,5.2606,5.2721,5.2936,5.3213,5.2905,5.1466,4.8954,4.4358,4.1405,3.9659,0.0,0.0,0.0,0.0,0.0,0.0,0.0,0.0,0.0,0.0,0.0,0.0,0.0,0.0,0.0,0.0,0.0,0.0,0.0,0.0,0.0,3.0555,0.0,0.0,0.0,0.0,0.0,0.0,0.0,2.5339,2.5596,2.6074,2.7915,3.1216,3.3953,3.5835,3.6854,3.7403,3.7743,3.7848,3.7299,3.5874,3.3784,3.2511,3.1396,3.0412,0.0,0.0,0.0,0.0,0.0,0.0,0.0,0.0,0.0,0.0,0.0,0.0,0.0,0.0,0.0,0.0,0.0,0.0,0.0,0.0,0.0,0.0,0.0,0.0,0.0,0.0,0.0,0.0,0.0,0.0,0.0,0.0,0.0,0.0,0.0,0.0,0.0,3.6523,3.7646,3.663,3.8292,3.8877,0.0,0.0,0.0,0.0,0.0,0.0,4.3033,4.3771,4.5372,4.8081,4.8481,4.9682,5.1766,5.2628,5.3622,5.4791,5.5445,5.6368,5.7531,5.7925,5.8079,5.8079,5.7894,5.6939,5.5045,4.9281,4.5526,4.334,4.2817,4.2202,0.0,4.2677,4.3239,4.3636,0.0,0.0,0.0,0.0,0.0,0.0,0.0,0.0,0.0,0.0,0.0,0.0,0.0,0.0,3.2299,3.365,3.2579,3.1585,0.0,0.0,2.7153,2.5897,2.579,2.5524,2.5052,2.822,3.1268,3.4188,3.6567,3.8867,4.1012,4.1611,4.2186,4.2631,4.2107,3.9987,3.6559,3.3215,3.2424,3.3098,2.9791,0.0,0.0,0.0,0.0,0.0,0.0,0.0,0.0,0.0,0.0,0.0,0.0,0.0,0.0,0.0,0.0,0.0,0.0,0.0,0.0,0.0,0.0,0.0,0.0,0.0,0.0,0.0,0.0,0.0,0.0,0.0,0.0,0.0,0.0,0.0,0.0,0.0,0.0,3.6738,3.9985,0.0,0.0,0.0,0.0,4.3174,4.3913,4.5176,4.7188,4.7907,4.9568,5.2329,5.3629,5.5315,5.7371,5.8695,5.9686,6.0393,6.1071,6.1752,6.2398,6.184,6.1563,6.1502,6.0886,5.947,5.7278,5.2421,4.9589,4.806,4.6142,4.4991,4.4406,4.4475,4.5241,4.6233,0.0,0.0,0.0,0.0,0.0,0.0,0.0,0.0,0.0,0.0,0.0,0.0,0.0,3.3465,3.5297,3.7527,3.6528,3.5235,3.3997,0.0,2.9626,2.8115,2.6991,2.7166,2.8821,3.1862,3.4868,3.7743,4.0045,4.1794,4.2971,4.3546,4.3546,4.2997,4.3232,4.2186,4.0146,3.7037,3.492,3.3404,3.1399,2.9954,0.0,0.0,0.0,0.0,0.0,0.0,0.0,0.0,0.0,0.0,0.0,0.0,0.0,0.0,0.0,0.0,0.0,0.0,0.0,0.0,0.0,0.0,0.0,0.0,0.0,0.0,0.0,0.0,0.0,0.0,0.0,0.0,0.0,0.0,0.0,0.0,0.0,4.2971,4.6234,0.0,0.0,4.5957,4.6511,4.7455,4.8563,5.0051,5.206,5.3252,5.5123,5.7839,5.8393,5.9408,6.1009,6.1502,6.1871,6.2086,6.2333,6.2579,6.2798,6.2983,6.2829,6.2429,6.2645,6.2086,6.0855,5.8731,5.5499,5.1814,5.1076,5.0143,4.922,4.9651,4.9829,4.9863,0.0,0.0,0.0,0.0,0.0,0.0,0.0,0.0,0.0,0.0,0.0,3.1471,3.427,3.6052,3.8124,4.0793,3.9249,3.7656,3.6407,0.0,3.0641,2.9371,2.8377,2.9274,3.2378,3.5286,3.8266,4.135,4.3049,4.4304,4.5036,4.5008,4.4695,4.4199,4.4382,4.3938,4.2918,4.0801,3.8135,3.5155,3.3201,3.1973,3.1123,0.0,0.0,0.0,0.0,0.0,0.0,0.0,0.0,0.0,0.0,0.0,0.0,0.0,0.0,0.0,0.0,0.0,0.0,0.0,0.0,0.0,0.0,0.0,0.0,0.0,0.0,0.0,0.0,0.0,0.0,0.0,0.0,0.0,0.0,0.0,4.6808,4.7219,5.0913,5.2698,5.0882,5.1097,5.1744,5.2721,5.3806,5.5407,5.766,5.8208,5.9742,6.2425,6.2302,6.2733,6.3841,6.3872,6.3872,6.3814,6.3626,6.3749,6.4183,6.4152,6.4029,6.3872,6.4087,6.3783,6.3106,6.2645,6.0214,5.6706,5.5999,5.4945,5.3806,5.4268,5.4145,5.3775,0.0,0.0,0.0,0.0,0.0,0.0,0.0,0.0,0.0,0.0,2.9799,3.3264,3.645,3.8604,4.0821,4.3256,4.0576,3.8527,3.7978,3.3044,2.9936,2.9423,2.9962,3.1895,3.5417,3.8292,4.1428,4.4906,4.5454,4.6262,4.7333,4.6236,4.6029,4.6527,4.5976,4.5374,4.4747,4.4199,4.2029,3.8632,3.5155,3.4371,3.4946,0.0,0.0,0.0,0.0,0.0,0.0,0.0,0.0,0.0,0.0,0.0,0.0,0.0,0.0,0.0,0.0,0.0,0.0,0.0,0.0,0.0,0.0,0.0,0.0,0.0,0.0,0.0,0.0,0.0,0.0,0.0,0.0,0.0,4.0826,4.6583,5.042,4.9168,5.3768,5.6016,5.3406,5.5523,5.7586,5.8941,5.9624,6.1132,6.3722,6.2675,6.3195,6.5842,6.5319,6.5288,6.5934,6.5934,6.5934,6.5934,6.5288,6.5657,6.6858,6.5565,6.5319,6.5873,6.5226,6.4518,6.3814,6.3814,6.3445,6.2671,6.0671,5.9095,5.7894,5.7894,5.7863,5.774,0.0,0.0,0.0,0.0,0.0,0.0,0.0,0.0,2.5881,0.0,3.1122,3.4324,3.836,4.0945,4.3202,4.5272,4.2082,3.9523,3.8553,0.0,3.1477,3.1751,3.3117,3.5683,3.9573,4.1664,4.4226,4.7286,4.7832,4.8303,4.8616,4.8695,4.8355,4.7757,4.8015,4.7571,4.6549,4.6003,4.4983,4.331,3.9024,3.6724,3.5678,0.0,0.0,0.0,0.0,0.0,0.0,0.0,0.0,0.0,0.0,0.0,0.0,0.0,0.0,0.0,0.0,0.0,0.0,0.0,0.0,0.0,0.0,0.0,0.0,0.0,0.0,0.0,0.0,0.0,0.0,0.0,0.0,4.7148,4.646,5.1405,5.5892,5.7931,6.0824,6.2764,6.2952,6.2794,6.301,6.3872,6.4118,6.4549,6.5288,6.5875,6.6337,6.6642,6.6919,6.695,6.6642,6.6642,6.6642,6.6614,6.6457,6.655,6.6891,6.6519,6.6211,6.5903,6.5719,6.5226,6.4611,6.4611,6.4487,6.418,6.261,6.1163,5.9963,5.9963,5.9372,5.851,0.0,0.0,0.0,0.0,0.0,0.0,0.0,0.0,2.6033,2.873,3.1736,3.5105,3.8887,4.1466,4.3531,4.5102,4.2069,3.939,3.7717,3.4194,3.2653,3.3744,3.6123,3.9233,4.3023,4.5062,4.739,5.0002,5.008,5.0263,5.0498,5.0342,5.0028,4.961,4.977,4.927,4.8352,4.8041,4.744,4.6447,4.3467,4.1141,3.9155,3.7299,3.6075,3.5265,3.4267,3.3849,3.3596,3.2421,0.0,0.0,0.0,0.0,0.0,0.0,0.0,0.0,0.0,0.0,0.0,0.0,0.0,0.0,0.0,0.0,0.0,0.0,0.0,0.0,0.0,0.0,0.0,0.0,4.95,5.2647,5.4306,5.7285,6.0363,6.3195,6.5072,6.6457,6.7229,6.6611,6.6334,6.6706,6.7012,6.7289,6.7566,6.8058,6.8397,6.8581,6.8705,6.8551,6.8181,6.7873,6.775,6.772,6.7165,6.7196,6.772,6.7165,6.6858,0.0,6.615,6.5688,6.5288,6.5011,6.4888,0.0,0.0,0.0,0.0,0.0,6.0547,5.9593,0.0,0.0,0.0,0.0,0.0,0.0,0.0,0.0,2.633,2.8351,3.187,3.537,3.8383,4.0687,4.2474,4.3703,4.1115,3.8475,3.6253,3.4214,3.3979,3.5992,3.9233,4.2579,4.6001,4.8329,5.0498,5.2589,5.2067,5.2067,5.2589,5.157,5.1335,5.1779,5.1309,5.076,5.0185,5.0185,4.9531,4.8433,4.7908,4.6264,4.3807,4.1193,4.0357,4.0409,3.8841,3.7325,3.594,3.5155,0.0,0.0,0.0,0.0,0.0,0.0,0.0,0.0,0.0,0.0,0.0,0.0,0.0,0.0,0.0,0.0,0.0,0.0,0.0,0.0,0.0,0.0,0.0,0.0,5.3828,5.775,6.2653,6.3414,6.4122,6.5934,6.7229,6.8029,6.8121,6.806,6.8029,6.8121,6.8612,6.9135,6.9751,0.0,0.0,0.0,0.0,6.9997,6.9997,6.9413,6.9074,6.8982,6.7873,6.7904,6.8858,6.775,6.7414,6.7721,6.655,6.5934,6.575,6.5165,6.4888,6.4888,6.4795,6.4395,6.3629,6.2275,6.144,0.0,0.0,0.0,0.0,0.0,0.0,0.0,0.0,0.0,2.6714,2.9609,3.1764,3.4205,3.7288,3.9494,4.1402,4.3023,4.0148,3.7612,3.6201,3.5678,3.7063,4.0695,4.3258,4.6001,4.9008,5.089,5.2302,5.3217,5.3112,5.3112,5.3217,5.2981,5.2955,5.3034,5.2929,5.2563,5.1988,5.1988,5.1335,5.0289,5.0159,4.8172,4.5139,4.4173,4.2997,4.1741,4.0932,4.0749,4.0564,3.8553,3.79,3.7609,3.5724,0.0,0.0,0.0,0.0,0.0,0.0,0.0,0.0,0.0,0.0,0.0,0.0,0.0,0.0,0.0,0.0,0.0,0.0,0.0,0.0,5.3801,5.7942,6.1927,6.5963,6.7206,6.7658,6.7506,6.8212,6.892,6.9474,6.9012,6.892,6.9474,6.9105,6.8951,6.9074,6.9474,0.0,7.009,7.049,7.0705,7.0705,7.0582,7.0244,6.969,0.0,0.0,6.8889,6.9197,6.852,6.7075,6.6798,6.6088,6.5072,6.4949,6.4888,6.4826,6.4272,6.3937,6.3629,6.2275,6.1717,6.1502,0.0,0.0,0.0,0.0,0.0,0.0,0.0,0.0,2.6546,2.908,3.1098,3.2986,3.4792,3.6705,3.7978,3.8266,3.6462,3.5521,3.607,3.7456,4.0069,4.4174,4.6525,4.8982,5.1596,5.2772,5.3635,5.4262,5.4262,5.4262,5.4262,5.4262,5.4262,5.4262,5.4262,5.3922,5.3347,5.3347,5.2877,5.2093,5.2093,5.089,4.8904,4.7466,4.6423,4.5586,4.4957,4.4382,4.3676,4.2187,4.135,4.0592,3.8815,3.731,3.5923,0.0,0.0,0.0,0.0,0.0,0.0,0.0,0.0,0.0,0.0,0.0,0.0,0.0,0.0,4.3099,0.0,0.0,5.3283,5.8195,6.1744,6.5111,6.8684,6.9293,6.9382,6.9413,6.9413,6.9659,7.0336,6.9474,6.9012,6.9351,6.9382,6.9382,6.9382,7.0028,7.0551,7.0951,7.0921,7.1229,7.1937,7.1259,7.0921,7.0951,7.0582,7.0059,6.9382,6.9043,6.8366,6.7352,6.6704,6.6027,6.538,6.5042,6.4888,6.4857,6.4487,6.4122,6.3722,6.3045,6.2394,6.1748,0.0,0.0,0.0,0.0,0.0,0.0,0.0,0.0,0.0,2.8028,3.0153,3.168,3.2016,3.3483,3.4058,3.3012,3.3195,3.4319,3.6645,3.9599,4.3075,4.7181,4.9401,5.1518,5.3504,5.4105,5.4602,5.5099,5.5099,5.5099,5.5099,5.5099,5.5099,5.5099,5.5099,5.4837,5.4367,5.4367,5.4053,5.3556,5.3556,5.3269,5.2616,5.0524,4.961,4.9348,4.875,4.7283,4.5531,4.5165,4.3938,4.2369,4.1507,4.0383,3.8867,3.6201,3.6103,0.0,0.0,0.0,0.0,0.0,0.0,0.0,0.0,0.0,4.0666,4.3219,4.5065,4.7382,5.1155,5.3914,5.7286,6.2369,6.5108,6.7539,7.0401,7.0369,7.0215,7.0828,7.0182,6.9905,7.0459,6.9536,6.8919,6.8919,6.9382,6.969,6.969,7.0213,7.0828,7.1567,7.1013,7.1321,7.2552,7.1598,7.1259,7.1598,7.0735,7.009,6.9659,6.8612,6.7937,6.7629,6.6304,6.5719,6.5657,6.5134,6.4888,6.4888,6.4888,6.4549,6.3998,6.3845,6.3106,6.2152,0.0,0.0,0.0,0.0,0.0,0.0,0.0,0.0,0.0,2.7594,2.9199,3.0145,2.9723,3.0757,3.1209,3.0563,3.3697,3.6724,3.9076,4.2396,4.6109,5.0132,5.204,5.3347,5.4105,5.4707,5.502,5.5099,5.5099,5.5099,5.5099,5.5099,5.5099,5.5099,5.5099,5.5072,5.4994,5.4994,5.4654,5.4105,5.4105,5.4079,5.387,5.2589,5.1492,5.0524,4.9923,4.7937,4.5661,4.6133,4.5167,4.3781,4.4094,4.3101,4.1454,3.9573,0.0,3.5242,3.3872,3.3956,3.5135,3.8123,3.8373,3.9138,0.0,0.0,4.6001,4.8109,5.096,5.3773,5.5978,5.8741,6.1881,6.5465,6.7487,6.9063,7.0343,7.0404,7.0465,7.086,6.9782,6.9012,6.9134,6.9011,6.8919,6.8919,6.8951,6.9012,6.9012,6.9074,6.9413,7.009,7.0059,7.0367,7.1136,7.1659,7.129,7.0151,7.1259,7.0797,6.9012,6.8858,6.815,6.6921,6.5596,6.5011,6.5011,6.4918,6.4888,6.4888,6.4888,6.4857,6.4703,6.4029,6.3691,6.3475,0.0,0.0,0.0,0.0,0.0,0.0,0.0,0.0,0.0,0.0,0.0,2.8048,2.7797,2.822,2.8516,2.8586,3.1973,3.5521,3.8867,4.3284,4.76,5.1596,5.3112,5.4131,5.4707,5.4968,5.5099,5.5099,5.5099,5.5099,5.5099,5.5099,5.5099,5.5099,5.5099,5.5099,5.5099,5.5099,5.4968,5.4733,5.4733,5.4733,5.4628,5.3792,5.2145,5.0106,4.8852,4.7176,0.0,0.0,4.4696,4.4487,4.5034,4.3833,4.1924,4.0488,3.8266,0.0,3.5479,3.5076,3.5533,0.0,4.0254,4.2331,4.6551,4.8666,5.0631,5.3773,5.6436,5.883,6.0745,6.2746,6.4839,0.0,6.8577,6.9945,7.12,7.0954,7.0616,7.0367,6.9474,6.9043,6.9443,6.9105,6.8919,6.8919,6.8919,6.8919,6.8919,6.8919,6.9197,6.9874,6.9905,7.0428,7.1506,7.1844,7.1721,7.1136,7.1721,7.1136,6.9443,6.8674,6.7381,6.5719,6.5134,6.4888,6.4888,6.4888,6.4888,6.4888,6.4888,6.4888,6.4857,6.4549,6.4152,6.3691,0.0,0.0,0.0,0.0,0.0,0.0,0.0,0.0,0.0,0.0,0.0,0.0,0.0,2.6598,2.686,2.7262,3.032,3.4005,3.8214,4.3206,4.7858,5.2067,5.3504,5.4471,5.5099,5.5099,5.5099,5.5099,5.5099,5.5099,5.5099,5.5099,5.5099,5.5099,5.5099,5.5099,5.5099,5.5099,5.5099,5.5099,5.5099,5.4916,5.4497,5.3426,5.123,4.8564,4.7464,4.5714,4.378,0.0,4.2631,4.2918,4.3519,4.2683,4.1297,4.0252,3.8318,3.6516,3.6359,3.6183,0.0,3.988,4.2685,4.5741,4.9839,5.236,5.4985,5.9167,6.1166,6.278,6.4725,6.5742,6.6732,6.8183,6.9395,7.0462,7.1476,7.1107,7.04,6.9444,6.8581,6.8243,6.8735,6.8858,6.898,6.9135,6.8982,6.8919,6.8919,6.9103,6.9382,6.9874,7.0059,7.0644,7.169,7.1721,7.1598,7.1444,7.1444,7.0797,6.9566,6.8243,6.6735,6.5165,6.498,6.4888,6.4888,6.4888,6.4888,6.4888,6.4888,6.4888,6.4888,6.4888,6.4426,6.3722,0.0,0.0,0.0,0.0,0.0,0.0,0.0,0.0,0.0,0.0,0.0,0.0,0.0,0.0,2.6719,2.6703,2.9371,3.3032,3.7612,4.2213,4.6785,5.1413,5.3269,5.4471,5.5099,5.5099,5.5099,5.5099,5.5099,5.5099,5.5099,5.5099,5.5099,5.5099,5.5099,5.5099,5.5099,5.5099,5.5099,5.5099,5.5099,5.4445,5.3191,5.089,4.825,4.5792,4.6316,4.3624,3.9703,0.0,3.8527,3.8214,3.8736,3.9261,0.0,3.8922,3.7142,0.0,0.0,0.0,3.8862,4.3253,4.6133,4.9419,5.5475,5.7336,5.916,6.3832,6.4845,6.5503,6.7508,6.7389,6.7511,6.9175,7.002,7.0482,7.0557,7.0465,6.9822,6.8154,6.6796,6.5996,0.0,6.775,6.9166,6.9813,6.9259,6.8919,6.8919,6.9505,6.9874,6.9905,7.0521,7.089,7.0921,7.0921,7.0613,6.9967,6.9967,6.9597,6.8858,6.7535,6.655,6.5842,6.5195,6.4888,6.4888,6.4888,6.4888,6.4888,6.4888,6.4888,6.4888,6.4888,6.4426,6.3814,0.0,0.0,0.0,0.0,0.0,0.0,0.0,0.0,0.0,0.0,0.0,0.0,0.0,0.0,0.0,0.0,2.9178,3.1869,3.5338,3.9886,4.3989,4.7464,5.0734,5.2746,5.3347,5.4105,5.4707,5.5099,5.5099,5.5099,5.5099,5.5099,5.5099,5.5099,5.4805,5.4839,5.5065,5.4805,5.4872,5.4994,5.3844,5.3138,5.2459,4.9374,4.6159,4.3101,0.0,3.905,3.6593,0.0,0.0,0.0,3.7168,0.0,0.0,3.4999,0.0,0.0,0.0,0.0,4.3337,4.7133,5.0186,5.3437,5.7984,6.0526,6.2514,6.4576,6.4994,6.4934,6.4784,6.4362,6.4716,6.685,6.8092,6.9245,7.0586,7.0557,6.9608,6.7477,6.7229,0.0,0.0,0.0,0.0,6.8489,6.8766,6.9289,7.0182,7.0428,7.0767,7.129,7.1506,7.1659,7.1659,7.206,7.169,7.0551,6.9659,6.8889,6.8212,6.7291,6.6304,6.5226,6.5011,6.4888,6.4888,6.4888,6.4888,6.4888,6.4888,6.4888,6.4888,6.4888,6.4426,6.3814,0.0,0.0,0.0,0.0,0.0,0.0,0.0,0.0,0.0,0.0,0.0,0.0,0.0,0.0,0.0,0.0,0.0,3.0388,3.3279,3.7041,4.0515,4.3598,4.6545,4.8557,4.9401,4.9772,5.0523,5.1544,5.1481,5.1834,5.264,5.264,5.2906,5.3362,5.3107,5.3439,5.4158,5.3635,5.3283,5.2825,5.1282,4.9897,4.846,4.5374,4.2369,0.0,3.6698,3.4742,3.3378,0.0,0.0,0.0,0.0,0.0,0.0,0.0,0.0,0.0,0.0,4.4434,4.7675,5.0943,5.3832,5.6752,6.0099,6.1669,6.2886,6.4557,6.3384,6.2027,6.2037,6.0753,6.0655,6.3555,6.4942,6.6511,6.8961,6.9117,6.8383,6.6739,6.6706,0.0,0.0,0.0,0.0,6.812,6.8889,6.972,7.0828,7.1598,7.2121,7.2368,7.2614,7.2614,7.2368,7.2275,7.1536,7.0182,6.9536,6.8766,6.7875,6.7198,6.6304,6.5257,6.5011,6.4888,6.4888,6.4888,6.4888,6.4888,6.4888,6.4888,6.4888,6.4888,6.4611,6.4152,0.0,0.0,0.0,0.0,0.0,0.0,0.0,0.0,0.0,0.0,0.0,0.0,0.0,0.0,0.0,0.0,0.0,0.0,3.1406,3.3802,3.6593,3.9862,4.1122,4.2346,4.3624,4.2812,4.3248,4.5065,4.4871,4.5865,4.7889,4.7889,4.8631,4.9908,4.9878,5.0659,5.1957,5.1382,5.0237,4.8669,4.7438,4.5009,4.1846,3.9468,3.7194,3.4946,3.2679,3.1119,0.0,0.0,0.0,0.0,0.0,0.0,0.0,0.0,0.0,4.2343,4.5794,4.8934,5.1805,5.4628,5.6981,5.9227,6.1777,6.1041,6.0644,6.3689,6.0117,5.7081,0.0,0.0,5.5822,5.9822,6.1212,6.2912,6.616,6.6613,6.6453,0.0,0.0,0.0,0.0,0.0,0.0,6.8797,0.0,7.0244,7.1013,7.2952,7.3783,7.3168,7.3722,7.3722,7.3045,7.166,7.0274,6.8951,6.9597,6.9197,6.7875,6.7198,6.6521,6.5873,6.5195,6.4888,6.4888,6.4888,6.4888,6.4888,6.4888,6.4888,6.4888,6.4888,6.4888,6.4795,0.0,0.0,0.0,0.0,0.0,0.0,0.0,0.0,0.0,0.0,0.0,0.0,0.0,0.0,0.0,0.0,0.0,0.0,2.8508,3.1171,3.3279,3.4607,3.7776,3.9818,4.0447,4.149,4.2371,4.3118,4.3064,4.3321,4.3888,4.3888,4.407,4.4408,4.4298,4.4616,4.5179,4.4939,4.4737,4.4434,4.2814,4.1664,4.0566,3.7821,3.5887,3.445,3.2986,3.1731,0.0,0.0,0.0,0.0,0.0,3.4816,3.6828,0.0,0.0,4.5898,4.9348,5.3066,5.6335,5.7904,5.9045,5.9885,6.0365,6.0179,5.9375,5.7683,5.5169,5.3085,0.0,0.0,0.0,5.932,6.239,0.0,6.9236,6.9546,0.0,6.8244,0.0,6.7045,6.686,6.6552,0.0,0.0,7.009,7.0859,7.3076,7.4184,7.4892,7.523,7.4922,7.443,7.3753,7.2398,7.1013,6.9628,6.9813,6.9197,6.7875,6.7198,6.6521,6.5873,6.5195,6.4888,6.4888,6.4888,6.4888,6.4888,6.4888,6.4888,6.4888,6.4888,6.4888,6.4795,0.0,0.0,0.0,0.0,0.0,0.0,0.0,0.0,0.0,0.0,0.0,0.0,0.0,0.0,0.0,0.0,0.0,0.0,0.0,2.9126,3.0544,3.1062,3.3231,3.463,3.5029,3.5664,3.6533,3.77,3.7375,3.7838,3.9013,3.8782,3.9112,3.9927,3.9903,4.0439,4.1389,4.1207,4.0764,0.0,0.0,3.7537,3.6414,3.458,3.3456,3.2803,3.2176,3.2019,0.0,0.0,0.0,3.4868,3.594,3.8004,4.0592,4.3467,0.0,4.9901,5.3354,5.6492,5.8993,5.9908,5.9986,5.9522,5.8335,5.75,5.5897,5.2292,5.039,0.0,4.7503,0.0,0.0,0.0,0.0,0.0,6.8063,6.8932,6.9056,0.0,6.9105,0.0,6.8828,6.9012,6.9874,0.0,7.089,7.1536,7.4276,7.5076,7.563,7.6,7.5353,7.4245,7.2645,7.1875,7.0952,6.9905,6.9905,6.9351,6.8304,6.735,6.6521,6.5873,0.0,6.4888,6.4888,6.4888,6.4888,6.4888,6.4888,6.4888,6.4888,6.4888,6.4888,6.4795,0.0,0.0,0.0,0.0,0.0,0.0,0.0,0.0,0.0,0.0,0.0,0.0,0.0,0.0,0.0,0.0,0.0,0.0,0.0,0.0,2.8421,2.874,2.8834,2.9055,2.9413,2.8835,2.9466,3.1453,3.0813,3.1717,3.4025,3.3571,3.4278,3.5867,3.5961,3.6964,3.8534,3.8282,3.7312,3.5859,3.5065,3.3488,3.1641,0.0,0.0,3.0992,3.0992,3.1986,3.3561,3.573,3.6645,3.7246,3.9128,4.2004,4.5272,4.8254,5.0995,5.3792,5.7146,5.9202,6.0561,6.1006,6.0169,5.8637,5.604,5.3991,5.1478,4.7459,0.0,4.496,4.3907,4.4982,4.7688,5.273,0.0,6.0158,6.5542,6.712,6.8135,6.9168,7.0244,7.0828,7.0582,7.1444,7.2398,7.3322,7.2091,7.2398,7.4861,7.5723,7.6061,7.5877,7.5138,7.3506,7.0921,7.089,7.0551,6.9905,6.9905,6.9597,6.9011,6.7658,6.6735,6.6119,0.0,0.0,6.5042,6.4949,6.4888,6.4888,6.4888,6.4888,6.4888,6.4888,6.4888,6.4764,0.0,0.0,0.0,0.0,0.0,0.0,0.0,0.0,0.0,0.0,2.381,2.3313,0.0,0.0,0.0,0.0,0.0,0.0,0.0,0.0,0.0,2.76,2.8032,2.8373,2.8595,2.8914,2.941,0.0,0.0,3.0181,3.0658,3.0557,3.0698,3.1035,3.1189,3.1541,3.2043,3.214,3.211,3.198,3.181,3.1496,3.113,0.0,0.0,0.0,3.0992,3.1201,3.2169,3.6724,3.952,4.1611,4.4304,4.6867,4.9505,5.2903,5.4916,5.6615,5.9098,6.0692,6.1581,6.1215,5.9882,5.7686,5.3949,5.1516,0.0,0.0,4.2281,4.1956,4.1732,4.3598,4.7487,5.4659,5.8024,0.0,0.0,0.0,6.9938,0.0,0.0,0.0,0.0,0.0,0.0,0.0,0.0,0.0,7.4953,7.6184,7.6338,7.5199,7.3968,7.2552,7.0921,7.089,7.0551,6.9905,6.9905,6.9843,6.969,6.8366,6.766,6.7475,0.0,0.0,6.5688,6.5134,6.4888,6.4888,6.4888,6.4888,6.4888,6.4888,6.4888,6.4703,0.0,0.0,0.0,0.0,0.0,0.0,0.0,2.2972,2.364,2.4945,2.4766,2.4377,2.407,2.3784,0.0,0.0,0.0,0.0,0.0,0.0,0.0,0.0,0.0,0.0,0.0,0.0,0.0,0.0,0.0,0.0,0.0,0.0,0.0,0.0,0.0,0.0,0.0,3.0584,3.0755,0.0,0.0,0.0,0.0,0.0,0.0,0.0,0.0,3.1777,3.3221,3.6305,3.9886,4.365,4.6841,4.9819,5.2642,5.5229,5.6798,5.8209,6.0509,6.1566,6.1932,6.1633,5.9124,5.5887,5.262,0.0,0.0,0.0,4.0774,4.1094,4.0441,4.3439,0.0,5.2016,5.5313,5.9251,6.4921,0.0,0.0,0.0,0.0,0.0,0.0,0.0,0.0,0.0,0.0,0.0,7.6031,7.6338,7.5877,7.4522,7.3199,7.1783,7.0398,7.0367,7.0398,7.0428,7.0059,7.009,7.0367,6.8644,6.7691,6.7321,0.0,0.0,0.0,6.5042,6.4888,6.4888,6.4888,6.4888,6.4888,6.4888,6.4888,6.4764,0.0,0.0,0.0,0.0,0.0,0.0,0.0,2.334,2.4358,2.5824,2.6046,2.5861,2.5344,2.4774,2.4312,0.0,0.0,0.0,0.0,0.0,0.0,0.0,0.0,0.0,0.0,0.0,0.0,0.0,0.0,0.0,0.0,0.0,0.0,0.0,0.0,0.0,0.0,0.0,0.0,0.0,0.0,0.0,0.0,0.0,0.0,0.0,0.0,0.0,3.4193,3.5958,3.9477,4.3752,4.7379,5.0992,5.4249,5.628,5.7642,5.9136,6.1983,6.2365,6.2082,6.246,5.8595,5.409,5.1723,4.7441,0.0,0.0,3.9799,4.055,3.9686,4.3168,4.6864,0.0,5.2111,5.6166,6.1783,6.4057,6.6611,0.0,0.0,0.0,0.0,0.0,0.0,0.0,0.0,0.0,0.0,7.6031,7.4953,7.3599,7.2398,7.1136,6.9905,6.9905,7.0244,7.089,7.0213,7.0182,7.0613,6.8737,6.7598,6.7075,0.0,0.0,0.0,6.4949,6.4888,6.4888,6.4888,6.4888,6.4888,6.4888,6.4888,6.4764,0.0,0.0,0.0,0.0,0.0,0.0,0.0,2.3729,2.5214,2.7165,2.6907,2.654,2.6522,2.6104,2.5312,0.0,0.0,0.0,0.0,0.0,0.0,0.0,0.0,0.0,0.0,0.0,0.0,0.0,0.0,0.0,0.0,0.0,0.0,0.0,0.0,0.0,0.0,0.0,0.0,0.0,0.0,0.0,0.0,0.0,0.0,0.0,0.0,0.0,0.0,0.0,0.0,4.1284,4.5437,4.9447,5.327,5.6289,0.0,0.0,6.3964,6.3614,6.2392,6.3971,5.8919,5.306,5.1183,0.0,4.0796,3.8523,3.8527,3.9088,3.9577,4.1696,4.4693,4.8762,5.1233,5.4772,6.1045,6.4149,6.7319,7.1413,0.0,0.0,0.0,0.0,0.0,0.0,0.0,0.0,0.0,7.4892,7.3568,7.2244,7.1413,7.0644,6.9905,6.9905,7.0244,7.089,7.0213,6.9936,6.9936,6.8521,6.7875,6.7721,0.0,0.0,0.0,6.5165,6.4888,6.4888,6.4888,6.4888,6.4888,6.4888,6.4888,6.4703,0.0,0.0,0.0,0.0,0.0,0.0,2.2493,2.343,2.4717,2.6734,2.7136,2.7078,2.6692,2.6839,2.6171,0.0,0.0,0.0,0.0,0.0,0.0,0.0,0.0,0.0,0.0,0.0,0.0,0.0,0.0,0.0,0.0,0.0,0.0,0.0,0.0,0.0,0.0,0.0,0.0,0.0,0.0,0.0,0.0,0.0,0.0,0.0,0.0,0.0,0.0,0.0,0.0,0.0,3.9758,4.3355,0.0,0.0,5.6597,5.8986,6.3179,6.4477,6.4621,6.4566,5.9774,5.4451,5.1972,0.0,4.0572,3.9648,3.8722,3.8706,4.0704,4.2222,4.4186,4.7221,4.8408,5.0795,5.6183,5.8577,6.1902,6.7658,0.0,0.0,0.0,0.0,0.0,0.0,0.0,0.0,0.0,0.0,7.2983,7.2029,7.089,7.0182,6.9905,7.0305,7.0859,7.1536,7.0828,7.0274,6.9843,6.8491,6.7445,0.0,0.0,0.0,0.0,6.5011,6.4888,6.4888,6.4888,6.4888,6.4888,6.4888,6.4888,6.4826,0.0,0.0,0.0,0.0,0.0,2.1146,2.2493,2.337,2.4537,2.6375,2.7003,2.7123,2.6644,2.6674,2.6113,2.4633,0.0,0.0,0.0,0.0,0.0,0.0,0.0,0.0,0.0,0.0,0.0,0.0,0.0,0.0,0.0,0.0,0.0,0.0,0.0,0.0,0.0,0.0,0.0,0.0,0.0,0.0,0.0,0.0,0.0,0.0,0.0,0.0,0.0,0.0,0.0,3.713,3.6711,3.9292,4.3755,5.0255,5.4595,5.8183,6.2285,6.457,6.575,6.535,6.0416,5.4996,0.0,0.0,4.039,4.0237,3.892,3.8521,4.0964,4.2328,4.3726,4.5613,4.6471,4.8573,5.3322,5.5161,5.8239,0.0,0.0,0.0,0.0,0.0,0.0,0.0,0.0,0.0,0.0,0.0,7.2152,7.169,7.0705,7.0182,7.0182,7.0675,7.1167,7.169,7.0952,7.0151,6.9289,6.8121,6.6952,0.0,0.0,0.0,0.0,6.4888,6.4888,6.4888,6.4888,6.4888,6.4888,6.4888,6.4888,6.4857,0.0,0.0,0.0,0.0,0.0,0.0,2.2493,2.3789,2.5083,2.6422,2.6614,2.6614,2.6614,2.5423,2.4922,2.5633,0.0,0.0,0.0,0.0,0.0,0.0,0.0,0.0,0.0,0.0,0.0,0.0,0.0,0.0,0.0,0.0,0.0,0.0,0.0,0.0,0.0,0.0,0.0,0.0,0.0,0.0,0.0,0.0,0.0,0.0,0.0,0.0,0.0,0.0,0.0,0.0,0.0,3.8865,4.0542,4.6223,5.175,5.706,6.1819,6.3799,6.4892,6.6584,6.0644,5.4005,0.0,0.0,3.9877,3.9751,3.8815,3.8405,3.9768,4.1441,4.299,4.414,4.6157,4.923,5.4029,5.5899,5.8294,0.0,0.0,0.0,0.0,0.0,0.0,0.0,0.0,0.0,0.0,0.0,7.0921,7.0921,7.089,7.089,7.089,7.089,7.089,7.089,7.0213,6.9228,6.7906,6.7198,0.0,0.0,0.0,0.0,0.0,6.4888,6.4888,6.4888,6.4888,6.4888,6.4888,6.4888,6.4888,6.4795,0.0,0.0,0.0,0.0,0.0,0.0,0.0,2.2054,2.309,2.4388,2.4945,2.5423,2.5884,2.5124,2.4865,2.5574,0.0,0.0,0.0,0.0,0.0,0.0,0.0,0.0,0.0,0.0,2.6851,2.7544,2.7921,2.8547,0.0,0.0,0.0,0.0,0.0,0.0,0.0,0.0,0.0,0.0,0.0,0.0,0.0,0.0,0.0,0.0,0.0,0.0,0.0,0.0,0.0,0.0,0.0,0.0,0.0,4.1259,4.68,0.0,5.6113,5.8534,5.9912,5.9121,5.5564,5.1552,4.8955,4.4246,4.0297,3.9967,3.8987,3.8743,4.0558,4.1457,4.2922,4.6063,4.7148,4.8789,0.0,0.0,0.0,0.0,0.0,0.0,0.0,0.0,0.0,0.0,0.0,0.0,0.0,0.0,0.0,7.1629,7.0274,6.9967,7.089,7.0459,7.0459,7.089,6.9751,6.8766,6.7844,0.0,0.0,0.0,0.0,0.0,0.0,6.4888,6.4888,6.4888,6.4888,6.4888,6.4888,6.4888,6.4888,6.4795,0.0,0.0,0.0,0.0,0.0,0.0,0.0,2.1057,2.1784,2.3082,2.364,2.4227,2.5124,2.4605,2.4575,2.5513,0.0,0.0,0.0,0.0,0.0,0.0,0.0,0.0,0.0,2.6206,2.6633,2.7595,2.7946,2.8695,2.9842,2.9586,0.0,0.0,0.0,0.0,0.0,0.0,0.0,0.0,0.0,0.0,3.4104,0.0,0.0,0.0,0.0,0.0,0.0,0.0,0.0,0.0,0.0,0.0,0.0,0.0,4.2203,4.7048,5.1229,5.464,5.6675,5.5179,5.2636,0.0,0.0,4.3134,4.0154,3.9773,3.894,3.8844,4.0673,4.1331,4.2602,4.5588,4.6511,0.0,0.0,0.0,0.0,0.0,0.0,0.0,0.0,0.0,0.0,0.0,0.0,0.0,0.0,0.0,0.0,7.1998,7.0459,6.9813,7.012,6.972,6.9597,6.9782,6.8674,6.7812,6.7106,0.0,0.0,0.0,0.0,0.0,0.0,6.4888,6.4888,6.4888,6.4888,6.4888,6.4857,6.458,6.4672,6.4764,0.0,0.0,0.0,0.0,0.0,0.0,0.0,0.0,2.1216,2.2463,2.2703,2.3201,2.4395,2.3958,2.4118,2.5334,0.0,0.0,0.0,0.0,0.0,0.0,0.0,0.0,0.0,2.5611,2.6474,2.8119,2.8231,2.9237,3.106,3.0773,3.1093,3.1899,0.0,0.0,0.0,0.0,0.0,0.0,0.0,0.0,0.0,0.0,0.0,0.0,0.0,0.0,0.0,0.0,0.0,0.0,0.0,0.0,0.0,0.0,0.0,0.0,0.0,5.1282,0.0,0.0,0.0,0.0,0.0,4.2239,0.0,3.9215,3.8705,3.8786,4.0303,4.1107,4.2048,4.3624,0.0,0.0,0.0,0.0,0.0,0.0,0.0,0.0,0.0,0.0,0.0,0.0,0.0,0.0,0.0,0.0,0.0,0.0,7.1136,7.0151,6.8889,6.8826,6.8458,6.7814,6.7137,6.6519,6.5903,0.0,0.0,0.0,0.0,0.0,0.0,6.4888,6.4888,6.4888,6.4888,6.4857,6.4734,6.4029,6.4214,6.4611,0.0,0.0,0.0,0.0,0.0,0.0,0.0,0.0,0.0,0.0,2.2782,2.349,2.3819,2.3699,2.3729,0.0,0.0,0.0,0.0,0.0,0.0,0.0,0.0,0.0,0.0,2.5854,2.6968,2.8334,2.9405,3.0901,3.2752,3.2918,3.2927,3.2772,3.2357,0.0,0.0,0.0,0.0,0.0,0.0,0.0,0.0,0.0,0.0,0.0,3.5519,3.5519,0.0,0.0,0.0,0.0,0.0,0.0,0.0,0.0,3.7255,0.0,0.0,0.0,0.0,0.0,0.0,4.172,0.0,3.9525,3.8554,3.8669,3.8565,3.9043,4.0984,4.1014,4.2061,0.0,0.0,0.0,0.0,0.0,0.0,0.0,0.0,0.0,0.0,0.0,0.0,0.0,0.0,0.0,0.0,0.0,0.0,0.0,6.972,6.9227,6.8919,6.7873,6.7289,6.7106,6.6457,6.6057,0.0,0.0,0.0,0.0,0.0,0.0,0.0,6.4888,6.4888,6.4888,6.4888,6.458,6.4029,6.3875,6.3906,6.3845,0.0,0.0,0.0,0.0,0.0,0.0,0.0,0.0,0.0,0.0,0.0,0.0,0.0,0.0,0.0,0.0,0.0,0.0,0.0,0.0,0.0,0.0,0.0,0.0,2.4847,2.6278,2.768,2.8953,3.0018,3.1717,3.3996,3.3581,3.3797,3.4502,3.3958,3.3777,0.0,0.0,0.0,0.0,0.0,0.0,0.0,0.0,0.0,0.0,3.5519,3.5519,0.0,3.5519,3.5699,3.5908,0.0,0.0,0.0,0.0,3.6267,3.6626,3.6956,3.8931,4.0756,4.0397,4.0207,3.9998,3.9516,3.8551,3.7802,3.7997,3.8292,3.9014,4.0768,4.1045,0.0,0.0,0.0,0.0,0.0,0.0,0.0,0.0,0.0,0.0,0.0,0.0,0.0,0.0,0.0,0.0,0.0,0.0,0.0,0.0,0.0,6.7966,6.7966,6.6981,6.6304,6.5996,6.5626,6.5442,0.0,0.0,0.0,0.0,0.0,0.0,6.4857,6.4549,6.4611,6.4826,6.418,6.3875,6.3722,6.3106,6.3075,6.3137,0.0,0.0,0.0,0.0,0.0,0.0,0.0,0.0,0.0,0.0,0.0,0.0,0.0,0.0,0.0,0.0,0.0,0.0,0.0,0.0,0.0,0.0,0.0,2.5703,2.507,2.6873,2.852,2.9953,3.0836,3.2656,3.5273,3.4431,3.4859,3.6348,3.5753,3.5519,0.0,0.0,0.0,0.0,0.0,0.0,0.0,0.0,0.0,0.0,0.0,0.0,0.0,3.5519,3.5878,3.6254,3.5669,0.0,0.0,0.0,0.0,0.0,3.5759,3.8452,4.1134,4.0625,4.0274,3.9913,3.9425,3.8172,3.7132,3.7306,3.7954,3.8922,4.0399,4.137,0.0,0.0,0.0,0.0,0.0,0.0,0.0,0.0,0.0,0.0,0.0,0.0,0.0,0.0,0.0,0.0,0.0,0.0,0.0,0.0,0.0,0.0,6.6765,6.6088,6.5472,6.4888,6.4888,6.4888,6.4888,0.0,0.0,0.0,0.0,0.0,6.4518,6.3906,6.3998,6.4457,6.3287,6.3075,6.3352,6.2214,6.2179,6.246,0.0,0.0,0.0,0.0,0.0,0.0,0.0,0.0,0.0,0.0,0.0,0.0,0.0,0.0,0.0,0.0,0.0,0.0,0.0,0.0,0.0,0.0,2.6635,2.6336,2.5843,2.7507,2.9424,3.1541,3.3403,3.5397,3.7463,3.867,3.8531,3.7174,3.6011,3.5519,3.5519,0.0,0.0,0.0,0.0,0.0,0.0,0.0,0.0,0.0,0.0,0.0,0.0,3.5519,3.5579,3.5639,3.5533,0.0,0.0,0.0,0.0,0.0,3.6836,3.8781,3.9888,3.7105,3.698,3.7381,3.6732,3.6593,3.6599,3.6661,3.7646,3.9107,4.1063,4.2466,4.4314,0.0,0.0,0.0,0.0,0.0,0.0,0.0,0.0,0.0,0.0,0.0,0.0,0.0,0.0,0.0,0.0,0.0,0.0,0.0,0.0,0.0,0.0,6.538,6.5011,6.4888,6.4888,6.4888,6.4888,6.4888,0.0,0.0,0.0,0.0,6.3106,6.2983,6.3014,6.3075,6.286,6.2517,6.206,6.1902,6.1871,6.1933,0.0,0.0,0.0,0.0,0.0,0.0,0.0,0.0,0.0,0.0,0.0,0.0,0.0,0.0,0.0,0.0,0.0,0.0,0.0,0.0,0.0,2.7182,2.7627,2.7758,2.7461,2.9682,3.1747,3.3582,3.5324,3.7052,3.871,3.8752,3.7913,3.6357,3.5759,3.5519,3.5519,3.5519,0.0,0.0,0.0,0.0,0.0,0.0,0.0,0.0,0.0,0.0,0.0,0.0,3.5843,3.6214,3.5658,0.0,0.0,0.0,0.0,0.0,3.6441,3.7489,3.8159,3.7121,3.8538,3.9932,3.9008,3.8725,3.8645,3.8645,3.977,4.1124,0.0,0.0,0.0,0.0,0.0,0.0,0.0,0.0,0.0,0.0,0.0,0.0,0.0,0.0,0.0,0.0,0.0,0.0,0.0,0.0,0.0,0.0,0.0,0.0,6.5349,6.5042,6.4888,6.4888,6.4888,6.4888,6.4888,6.4487,6.4122,0.0,0.0,6.3075,6.2768,6.2398,6.246,6.2706,6.2025,6.1748,6.1779,6.1379,6.1255,6.1255,0.0,0.0,0.0,0.0,0.0,0.0,0.0,0.0,0.0,0.0,0.0,0.0,0.0,0.0,0.0,0.0,0.0,0.0,0.0,0.0,2.7365,2.7689,2.8604,2.9132,2.9146,3.1595,3.3721,3.5427,3.6946,3.8353,3.9601,3.8105,3.6806,3.5729,3.5579,3.5519,3.5519,3.5519,3.5519,0.0,0.0,0.0,0.0,0.0,0.0,0.0,0.0,0.0,0.0,0.0,0.0,0.0,0.0,0.0,0.0,3.5903,3.5736,3.586,3.6305,3.683,3.7399,3.8102,4.0046,4.1736,4.1491,4.1352,4.1322,4.163,0.0,0.0,0.0,0.0,0.0,0.0,0.0,0.0,0.0,0.0,0.0,0.0,0.0,0.0,0.0,0.0,0.0,0.0,0.0,0.0,0.0,0.0,0.0,0.0,0.0,0.0,6.4918,6.4888,6.4888,6.4888,6.4888,6.4888,6.4857,6.4122,6.3722,6.3537,6.286,6.2487,6.2302,6.1779,6.1871,6.224,6.1194,6.1101,6.1502,6.0978,6.0794,6.0794,0.0,0.0,0.0,0.0,0.0,0.0,0.0,0.0,0.0,0.0,0.0,0.0,0.0,0.0,0.0,0.0,0.0,0.0,0.0,0.0,2.7781,2.9076,2.9603,3.0043,3.0446,3.214,3.423,3.6768,3.8299,3.9492,4.0277,3.8332,3.7045,3.6404,3.5789,3.5519,3.5519,3.5519,3.5519,3.5519,0.0,0.0,0.0,0.0,0.0,0.0,0.0,0.0,0.0,0.0,0.0,0.0,0.0,0.0,3.6018,3.5782,3.5816,3.6246,3.7428,3.826,3.881,3.9042,3.8835,3.9157,4.1655,4.283,4.3728,4.4991,0.0,0.0,0.0,0.0,0.0,0.0,0.0,0.0,0.0,0.0,0.0,0.0,0.0,0.0,0.0,0.0,0.0,0.0,0.0,0.0,0.0,0.0,0.0,0.0,0.0,0.0,6.4888,6.4888,6.4888,6.4888,6.4888,6.4888,6.4857,6.4122,6.3445,6.2829,6.2179,6.1532,6.0948,6.0886,6.0886,6.0948,6.0824,6.0824,6.0855,6.0824,6.0794,6.0794,0.0,0.0,0.0,0.0,0.0,0.0,0.0,0.0,0.0,0.0,0.0,0.0,0.0,0.0,0.0,0.0,0.0,0.0,0.0,0.0,2.7928,2.9246,2.9845,3.0749,3.2061,3.4401,3.6899,3.9509,4.02,4.0091,3.911,3.7554,3.6507,3.5878,3.5609,3.5519,3.5519,3.5519,3.5519,3.5519,3.5519,0.0,0.0,0.0,0.0,0.0,0.0,0.0,0.0,0.0,3.6132,3.6258,3.5989,3.6084,3.6258,3.5973,3.6021,3.6223,3.6725,3.7975,3.9276,3.9858,4.0804,4.205,4.3924,4.5918,4.7763,4.9097,5.1128,0.0,0.0,0.0,0.0,0.0,0.0,0.0,0.0,0.0,0.0,0.0,0.0,0.0,0.0,0.0,0.0,0.0,0.0,0.0,0.0,0.0,0.0,0.0,0.0,0.0,0.0,6.4457,6.4241,6.4214,6.4672,6.4888,6.4857,6.4122,6.366,6.3383,6.2706,6.2056,6.144,6.1871,6.1563,6.0794,6.0794,6.0794,6.0794,6.0794,6.0794,6.0794,0.0,0.0,0.0,0.0,0.0,0.0,0.0,0.0,0.0,0.0,0.0,0.0,0.0,0.0,0.0,0.0,0.0,0.0,2.5914,2.6867,2.7994,2.9342,2.9985,3.1308,3.3427,3.5945,3.8317,4.0464,4.0681,3.9828,3.8063,3.6776,3.5938,3.5519,3.5519,3.5519,3.5519,3.5519,3.5519,3.5489,3.5554,3.5621,0.0,0.0,0.0,0.0,0.0,0.0,0.0,0.0,3.6305,3.643,3.6163,3.6258,3.643,3.6147,3.6179,3.6305,3.6305,3.7485,3.8973,3.9934,4.1894,4.4283,4.6931,4.9312,5.1528,5.3529,5.5037,5.6539,5.814,0.0,0.0,0.0,0.0,0.0,0.0,0.0,0.0,0.0,0.0,0.0,0.0,0.0,0.0,0.0,0.0,0.0,0.0,0.0,0.0,0.0,0.0,0.0,0.0,6.4152,6.3814,6.3814,6.4118,6.4364,6.4549,6.4029,6.3814,6.3752,6.286,6.2214,6.184,6.2086,6.1625,6.0794,6.0794,6.0794,6.0794,6.0794,6.0794,6.0794,0.0,0.0,0.0,0.0,0.0,0.0,0.0,0.0,0.0,0.0,0.0,0.0,0.0,0.0,0.0,0.0,0.0,0.0,2.6554,2.7105,2.8059,2.9548,3.0054,3.1633,3.4428,3.6387,3.7958,3.909,3.9301,3.8703,3.7357,3.6071,3.5519,3.5519,3.5519,3.5519,3.5519,3.5519,3.5519,3.5489,3.5653,3.5704,0.0,0.0,0.0,0.0,0.0,0.0,0.0,0.0,3.6523,3.6461,3.6289,3.6352,3.6445,3.6243,3.6352,3.6523,3.6523,3.6999,3.7831,3.9199,4.1604,4.5053,5.0482,5.2737,5.4676,5.814,5.7771,5.7463,5.9439,0.0,0.0,0.0,0.0,0.0,0.0,0.0,0.0,0.0,0.0,0.0,0.0,0.0,0.0,0.0,0.0,0.0,0.0,0.0,0.0,0.0,0.0,0.0,0.0,6.4152,6.3783,6.3783,6.3106,6.3137,6.3783,6.3783,6.3783,6.3722,6.2394,6.1809,6.1748,6.1071,6.0794,6.0794,6.0794,6.0794,6.0794,6.0794,6.0794,6.0794,0.0,0.0,0.0,0.0,0.0,0.0,0.0,0.0,0.0,0.0,0.0,0.0,0.0,0.0,0.0,0.0,0.0,0.0,2.6554,2.7176,2.8162,2.9548,3.0151,3.1496,3.3769,3.6178,3.8028,3.9301,3.9852,3.896,3.6746,3.5908,3.5519,3.5519,3.5519,3.5519,3.5519,3.5519,3.5519,3.5489,3.5653,3.5768,3.5941,0.0,0.0,0.0,0.0,0.0,0.0,0.0,0.0,0.0,3.643,3.6445,3.6445,3.6243,3.6352,3.6461,3.6336,3.758,0.0,4.123,0.0,0.0,5.2183,5.3783,5.5906,0.0,6.1255,6.064,6.1717,0.0,0.0,0.0,0.0,0.0,0.0,0.0,0.0,0.0,0.0,0.0,0.0,0.0,0.0,0.0,0.0,0.0,0.0,0.0,0.0,0.0,0.0,0.0,0.0,0.0,6.2394,6.2398,6.2675,6.2891,6.3106,6.3106,6.3106,6.3075,6.2675,6.224,6.1748,6.1071,6.0794,6.0794,6.0794,6.0517,6.0147,6.064,6.0794,6.0794,0.0,0.0,0.0,0.0,0.0,0.0,0.0,0.0,0.0,0.0,2.361,2.361,0.0,0.0,0.0,0.0,0.0,0.0,0.0,2.7602,2.847,2.9548,3.0432,3.1944,3.4233,3.6327,3.7674,3.8242,3.8901,3.8153,3.6088,3.5968,3.5908,3.5908,3.6148,3.6118,3.5908,3.5908,3.5778,3.5573,3.5766,3.5911,3.61,0.0,0.0,0.0,0.0,0.0,0.0,0.0,0.0,0.0,3.6523,3.6523,3.6461,3.6352,3.6414,3.6522,3.6689,3.8272,0.0,4.3156,4.6634,5.0543,5.476,0.0,0.0,0.0,0.0,0.0,0.0,0.0,0.0,0.0,0.0,0.0,0.0,0.0,0.0,0.0,0.0,0.0,0.0,0.0,0.0,0.0,0.0,0.0,0.0,0.0,0.0,0.0,0.0,0.0,0.0,0.0,0.0,6.1409,6.1809,6.2025,6.2025,6.2552,6.2645,6.2394,6.2148,6.1625,6.0948,6.027,5.9993,5.9993,5.9993,5.9901,5.9839,6.024,6.0578,6.0794,0.0,0.0,0.0,0.0,0.0,0.0,0.0,0.0,0.0,0.0,2.361,2.361,0.0,0.0,0.0,0.0,0.0,0.0,0.0,0.0,2.8906,2.9578,3.0927,3.2871,3.534,3.658,3.6956,3.6404,3.7075,3.6746,3.5519,3.6194,3.6493,3.6523,3.7075,3.7015,3.651,3.645,3.616,3.5736,3.5957,3.61,3.6211,3.6414,0.0,0.0,0.0,0.0,0.0,0.0,0.0,0.0,3.6523,3.6523,3.6523,3.6523,3.6523,3.6661,3.7461,3.9045,4.1384,4.5064,4.8758,0.0,5.8079,6.1132,6.3414,6.5319,0.0,0.0,0.0,0.0,0.0,0.0,0.0,0.0,0.0,0.0,0.0,0.0,0.0,0.0,0.0,0.0,0.0,0.0,0.0,0.0,0.0,0.0,0.0,0.0,0.0,0.0,0.0,0.0,0.0,0.0,6.0609,6.0578,6.0578,6.1994,6.2302,6.1686,6.1009,6.0363,5.9747,5.9095,5.8756,5.8726,5.8787,5.9157,5.9649,5.9686,6.0086,6.064,0.0,0.0,0.0,0.0,0.0,0.0,0.0,0.0,0.0,0.0,0.0,0.0,0.0,0.0,0.0,0.0,0.0,0.0,0.0,0.0,2.8906,2.9578,3.1839,3.3574,3.4697,3.5489,3.5848,3.5729,3.6866,3.6746,3.5519,3.6194,3.6493,3.6523,3.6643,3.668,3.6616,3.6091,3.5903,3.5957,3.6116,3.6164,3.6211,3.6414,3.6523,0.0,0.0,0.0,0.0,0.0,0.0,0.0,3.6523,3.6523,3.6523,3.6523,3.6523,3.6876,3.8584,3.9784,4.1845,4.7434,5.3367,5.8701,6.1994,6.3168,6.3722,0.0,0.0,0.0,0.0,0.0,0.0,0.0,0.0,0.0,0.0,0.0,0.0,0.0,0.0,0.0,0.0,0.0,0.0,0.0,0.0,0.0,0.0,0.0,0.0,0.0,0.0,0.0,5.9439,5.9465,5.9347,0.0,5.9249,5.8972,5.851,6.0363,6.1163,6.0978,6.0301,5.9932,5.9747,5.9095,5.8479,5.8079,5.8602,5.8572,5.8294,5.8818,5.9126,5.9311,0.0,0.0,0.0,0.0,0.0,0.0,0.0,0.0,0.0,0.0,0.0,0.0,0.0,0.0,0.0,0.0,0.0,0.0,0.0,0.0,0.0,3.0941,3.2287,3.3335,3.4009,3.4697,3.5011,3.5011,3.5998,3.6148,3.5519,3.6194,3.6493,3.6523,3.6806,3.683,3.6696,3.6351,3.6134,3.6116,3.6164,3.6243,3.6367,3.6445,3.6523,0.0,0.0,0.0,0.0,0.0,0.0,0.0,0.0,0.0,3.6523,3.6523,3.6738,3.7322,3.8928,4.0883,4.4018,5.0482,0.0,6.0732,6.2429,6.3322,6.3814,0.0,0.0,0.0,0.0,0.0,0.0,0.0,0.0,0.0,0.0,0.0,0.0,0.0,0.0,0.0,0.0,0.0,0.0,0.0,0.0,0.0,0.0,0.0,0.0,0.0,0.0,0.0,5.7863,5.8171,5.7986,5.734,5.7678,5.7648,5.7371,5.8756,5.9557,5.9834,5.9157,5.8849,5.8787,5.811,5.7648,5.734,5.7709,5.7832,5.7832,5.8202,5.851,5.8849,0.0,0.0,0.0,0.0,0.0,0.0,0.0,0.0,0.0,0.0,0.0,0.0,0.0,0.0,0.0,0.0,0.0,0.0,0.0,0.0,0.0,3.2422,3.2512,3.2811,3.3484,3.4158,3.4503,3.4503,3.516,3.5519,3.5519,3.6194,3.6493,3.6523,3.7049,3.7091,3.6745,3.6641,3.6459,3.6243,3.6243,3.6352,3.6523,3.6523,0.0,0.0,0.0,0.0,0.0,0.0,0.0,0.0,0.0,0.0,3.6523,3.6523,3.6876,3.7598,3.8872,4.2328,4.7086,5.3276,5.782,0.0,6.1656,6.2737,6.3606,0.0,0.0,0.0,0.0,0.0,0.0,0.0,0.0,0.0,0.0,0.0,0.0,0.0,0.0,0.0,0.0,0.0,0.0,0.0,0.0,0.0,0.0,0.0,0.0,0.0,0.0,5.7678,5.6447,5.7001,5.6669,5.553,5.617,5.6447,5.6447,5.7124,5.7802,5.8418,5.774,5.7432,5.7401,5.6724,5.6508,5.6601,5.6601,5.7032,5.7617,5.7617,5.7986,5.8479,0.0,0.0,0.0,0.0,0.0,0.0,0.0,0.0,0.0,0.0,2.361,2.3808,0.0,0.0,0.0,0.0,0.0,0.0,0.0,0.0,0.0,3.2452,3.2512,3.2811,3.3484,3.4158,3.4503,3.4503,3.516,3.5519,3.5519,3.6194,3.6493,3.6523,3.6717,3.6883,3.6926,3.645,3.6334,3.6445,3.6445,3.6461,3.6523,0.0,0.0,0.0,0.0,0.0,0.0,0.0,0.0,0.0,0.0,0.0,0.0,3.6523,3.6569,3.7029,3.88,4.4343,5.052,5.4357,5.809,6.0978,0.0,0.0,6.2805,0.0,0.0,0.0,0.0,0.0,0.0,0.0,0.0,0.0,0.0,0.0,0.0,0.0,0.0,0.0,0.0,0.0,0.0,0.0,0.0,0.0,0.0,0.0,5.6755,5.6115,5.6115,0.0,5.4983,5.5076,5.5014,5.4829,5.4922,5.4983,5.5014,5.5684,5.6385,5.7056,5.6293,5.5985,5.593,5.526,5.5315,5.5862,5.5862,5.6293,5.6909,5.6909,5.6994,5.7155,0.0,0.0,0.0,0.0,0.0,0.0,0.0,0.0,0.0,0.0,0.0,2.4276,0.0,0.0,0.0,0.0,0.0,0.0,0.0,0.0,0.0,3.1899,3.1929,3.2093,3.2362,3.3395,3.3949,3.3949,3.4981,3.5519,3.5519,3.5789,3.5974,3.6042,3.6107,3.6285,3.6543,3.6317,3.6336,3.6523,3.6523,3.6523,0.0,0.0,0.0,0.0,0.0,0.0,0.0,0.0,0.0,0.0,0.0,0.0,0.0,0.0,3.669,3.7622,4.101,4.4882,4.898,5.3061,5.6341,5.8891,6.0182,6.0585,0.0,0.0,0.0,0.0,0.0,0.0,0.0,0.0,0.0,0.0,0.0,0.0,0.0,0.0,0.0,0.0,0.0,0.0,0.0,0.0,0.0,0.0,0.0,5.6423,5.5653,5.5684,5.5345,0.0,5.4153,5.4153,5.3937,5.3568,5.3568,5.3568,5.3599,5.3876,5.4607,5.5622,5.5684,5.5499,5.5106,5.4829,5.486,5.5191,5.5561,5.5892,5.6231,5.6631,5.681,5.684,0.0,0.0,0.0,0.0,0.0,0.0,0.0,0.0,0.0,0.0,0.0,0.0,0.0,0.0,0.0,0.0,0.0,0.0,0.0,0.0,0.0,3.1481,3.166,3.175,3.175,3.3066,3.3769,3.3769,3.4921,3.5519,3.5519,3.5538,3.5621,3.5768,3.5768,3.5927,3.6196,3.6243,3.6367,3.6523,3.6523,0.0,0.0,0.0,0.0,0.0,0.0,0.0,0.0,0.0,0.0,0.0,0.0,0.0,0.0,0.0,0.0,3.7748,4.1601,4.3938,4.6254,5.0379,5.3619,5.626,0.0,0.0,0.0,0.0,0.0,0.0,0.0,0.0,0.0,0.0,0.0,0.0,0.0,0.0,0.0,0.0,0.0,0.0,0.0,0.0,0.0,0.0,0.0,0.0,5.7001,5.5199,5.4399,5.4914,5.446,5.3876,5.3199,5.3199,5.3014,5.2676,5.2676,5.2676,5.2729,5.286,5.3414,5.4214,5.473,5.4668,5.4183,5.4183,5.4306,5.4522,5.5191,5.553,5.58,5.6508,5.681,5.681,0.0,0.0,0.0,0.0,0.0,0.0,0.0,0.0,0.0,0.0,0.0,0.0,0.0,0.0,2.6866,2.7495,2.8171,2.9086,3.0372,3.1076,3.1481,3.1511,3.2108,0.0,3.2452,3.3769,3.4428,3.4428,3.516,3.5519,3.5489,3.5637,3.5784,3.5973,3.5973,3.6068,3.6196,0.0,0.0,3.6523,0.0,0.0,0.0,0.0,0.0,0.0,0.0,0.0,0.0,0.0,0.0,0.0,0.0,0.0,0.0,0.0,0.0,0.0,3.8439,4.0927,4.3622,4.633,5.0122,5.3624,0.0,0.0,0.0,0.0,0.0,0.0,0.0,0.0,0.0,0.0,0.0,0.0,0.0,0.0,0.0,0.0,0.0,0.0,0.0,0.0,0.0,0.0,0.0,0.0,5.4829,5.3537,5.2821,5.2829,5.2799,5.246,5.1805,5.1805,5.2113,5.2676,5.2676,5.2676,5.2706,5.3353,5.3322,5.2821,5.2829,5.2829,5.2799,5.2799,5.3168,5.3814,5.4491,5.5137,5.58,5.6508,5.681,5.681,0.0,0.0,0.0,0.0,0.0,0.0,0.0,0.0,0.0,0.0,0.0,0.0,0.0,2.6973,2.7512,2.8171,2.9205,3.0013,3.0462,3.1136,3.169,3.2108,3.2362,3.2691,3.3125,3.4039,3.4503,3.4503,3.516,3.5519,3.5489,3.5637,3.58,3.6005,3.61,3.6242,3.6398,3.6461,0.0,0.0,0.0,0.0,0.0,0.0,0.0,0.0,0.0,0.0,0.0,0.0,0.0,0.0,0.0,0.0,0.0,0.0,0.0,3.6205,3.8009,3.9342,4.099,4.4172,4.6591,4.8737,5.0921,5.1588,0.0,0.0,0.0,0.0,0.0,0.0,0.0,0.0,0.0,0.0,0.0,0.0,0.0,0.0,0.0,0.0,0.0,0.0,0.0,0.0,0.0,0.0,5.4676,5.3014,5.2267,5.2676,5.1867,5.1313,5.1067,5.1067,5.119,5.1436,5.1867,5.2082,5.2082,5.2737,5.2922,5.2676,5.2676,5.2676,5.2676,5.2676,5.2829,5.3168,5.4276,5.486,5.5222,5.6354,5.681,5.681,0.0,0.0,0.0,0.0,0.0,0.0,0.0,0.0,0.0,0.0,0.0,0.0,0.0,0.0,2.853,2.9175,3.0013,3.0612,3.0807,3.1451,3.2019,3.2482,3.2946,3.3365,3.3829,3.4488,3.4847,3.4847,3.528,3.5522,3.5587,3.5639,3.5816,3.6084,3.6148,3.632,0.0,0.0,0.0,3.6507,0.0,0.0,3.6569,0.0,0.0,0.0,0.0,0.0,0.0,0.0,0.0,0.0,0.0,0.0,0.0,0.0,0.0,0.0,3.7096,3.7884,3.902,4.1901,4.3353,4.4703,4.7297,0.0,0.0,0.0,0.0,0.0,0.0,0.0,0.0,0.0,0.0,0.0,0.0,0.0,0.0,0.0,0.0,0.0,0.0,0.0,0.0,0.0,0.0,0.0,5.3999,5.2553,5.1805,5.2021,5.0944,5.0451,5.0697,5.0482,5.0574,5.1036,5.1498,5.1836,5.2052,5.2513,5.2676,5.2676,5.2676,5.2676,5.2676,5.2676,5.2829,5.3106,5.4029,5.4645,5.5137,5.6108,5.657,5.681,0.0,0.0,0.0,0.0,0.0,0.0,0.0,0.0,0.0,0.0,0.0,0.0,0.0,0.0,0.0,3.0522,3.0582,3.0867,3.1511,3.2183,3.2542,3.2572,3.3799,3.4488,3.4518,3.516,3.5519,3.5519,3.5519,3.557,3.5688,3.5704,3.5879,3.618,3.6196,3.6336,3.6523,0.0,3.6507,3.6599,0.0,3.7123,3.6784,0.0,0.0,0.0,3.9014,3.9076,0.0,0.0,0.0,0.0,0.0,0.0,0.0,0.0,0.0,0.0,0.0,0.0,0.0,0.0,0.0,0.0,4.4435,0.0,0.0,0.0,0.0,0.0,0.0,0.0,0.0,0.0,0.0,0.0,0.0,0.0,0.0,0.0,0.0,0.0,0.0,0.0,0.0,0.0,0.0,5.2614,5.2614,5.2021,5.1344,5.0667,5.0011,4.9959,5.0636,4.9989,5.0328,5.1621,5.1652,5.2021,5.2614,5.2676,5.2676,5.2676,5.2676,5.2676,5.2676,5.2676,5.3106,5.3691,5.3691,5.4514,5.5684,5.5684,5.617,5.681,0.0,0.0,0.0,0.0,0.0,0.0,0.0,0.0,0.0,0.0,0.0,0.0,0.0,0.0,3.1256,3.1884,3.2377,3.2736,3.2931,3.3125,3.3425,3.3919,3.4308,3.4727,3.522,3.54,3.5519,3.5519,3.5519,3.5506,3.557,0.0,0.0,3.6068,3.6305,3.6445,3.6523,3.6523,0.0,0.0,3.7615,3.7984,0.0,0.0,0.0,0.0,0.0,3.9384,0.0,0.0,3.9196,3.8914,0.0,0.0,0.0,0.0,0.0,0.0,3.5489,0.0,0.0,0.0,0.0,0.0,0.0,0.0,0.0,0.0,0.0,0.0,0.0,0.0,0.0,0.0,0.0,0.0,0.0,0.0,0.0,0.0,0.0,0.0,0.0,0.0,0.0,0.0,0.0,5.1251,5.1251,5.0605,4.9928,4.922,4.9004,4.9004,4.9189,4.9004,4.9097,4.9466,5.0482,5.1067,5.1282,5.2267,5.2676,5.2676,5.2676,5.2676,5.2676,5.2676,5.3106,5.3691,5.3691,5.4514,5.5684,5.5684,5.617,5.6847,0.0,0.0,0.0,0.0,0.0,0.0,0.0,0.0,0.0,0.0,0.0,0.0,0.0,0.0,3.2482,3.2871,3.3275,3.3484,3.3484,3.3769,3.4099,3.4488,3.4757,3.51,3.5489,3.5519,3.5519,3.5519,3.5519,3.5554,0.0,0.0,0.0,0.0,0.0,0.0,0.0,0.0,0.0,0.0,3.7954,0.0,0.0,4.003,4.0047,0.0,0.0,0.0,4.1137,4.0791,4.0191,0.0,0.0,0.0,0.0,0.0,0.0,0.0,0.0,0.0,0.0,0.0,0.0,0.0,3.622,3.6389,0.0,0.0,0.0,0.0,0.0,0.0,0.0,0.0,0.0,0.0,0.0,0.0,0.0,0.0,0.0,0.0,0.0,0.0,0.0,0.0,5.0913,5.0574,5.0297,4.962,4.9035,4.8614,4.8583,4.8583,4.8583,4.8583,4.8737,4.9066,4.9897,5.0574,5.1128,5.1652,5.2021,5.2276,5.2276,5.2276,5.2298,5.2583,5.3106,5.366,5.3383,5.4268,5.5653,5.5407,5.5954,5.6902,0.0,0.0,0.0,0.0,0.0,0.0,0.0,0.0,0.0,0.0,0.0,0.0,0.0,0.0,0.0,0.0,3.3724,3.3724,3.3724,3.4278,3.4607,3.4607,3.519,3.5519,3.5519,3.5519,3.5519,3.5519,3.5519,3.5651,0.0,0.0,0.0,0.0,0.0,0.0,0.0,0.0,0.0,3.7677,3.8245,3.9076,0.0,0.0,4.2294,0.0,4.3217,4.3618,4.3427,4.2548,4.111,0.0,0.0,0.0,0.0,0.0,3.6553,0.0,0.0,0.0,0.0,0.0,0.0,0.0,3.4746,3.4688,3.512,0.0,0.0,0.0,0.0,0.0,0.0,0.0,0.0,0.0,0.0,0.0,0.0,0.0,0.0,0.0,0.0,0.0,0.0,5.0509,5.0513,5.0205,4.9589,4.8974,4.8583,4.8583,4.8583,4.8583,4.8583,4.8583,4.8943,4.9579,4.9672,5.0328,5.1467,5.0944,5.1036,5.159,5.1682,5.1713,5.1744,5.2399,5.3106,5.3629,5.2953,5.3929,5.5622,5.4952,5.5592,5.6902,0.0,0.0,0.0,0.0,0.0,0.0,0.0,0.0,0.0,0.0,0.0,0.0,0.0,0.0,0.0,0.0,3.51,3.51,3.51,3.522,3.531,3.531,3.5429,3.5519,3.5519,3.5519,3.5519,3.5519,3.5519,3.5522,3.5587,0.0,0.0,0.0,0.0,0.0,0.0,0.0,0.0,3.8323,3.843,0.0,4.2774,4.2663,4.2848,4.3279,4.391,4.3822,4.3222,0.0,4.1013,3.9576,0.0,0.0,0.0,0.0,0.0,0.0,0.0,0.0,0.0,0.0,0.0,0.0,3.4228,3.4275,3.5057,0.0,0.0,0.0,0.0,0.0,0.0,0.0,0.0,0.0,0.0,0.0,0.0,0.0,0.0,0.0,0.0,0.0,4.8805,4.9802,4.9343,4.8953,4.882,4.8676,4.8583,4.8583,4.8583,4.8583,4.8583,4.8583,4.8676,4.882,4.9404,4.9857,5.0103,5.0513,5.0759,5.0913,5.1467,5.1713,5.1744,5.2399,5.3106,5.3629,5.2953,5.3929,5.5622,5.4952,5.5592,5.6902,0.0,0.0,0.0,0.0,0.0,0.0,0.0,0.0,0.0,3.2946,3.3574,0.0,0.0,0.0,0.0,0.0,0.0,0.0,0.0,3.5519,3.5519,3.5519,3.5519,3.5519,3.5519,3.5519,3.5519,3.5519,3.5519,3.5538,3.5589,3.5782,0.0,0.0,0.0,0.0,0.0,0.0,3.7584,3.8522,3.8861,0.0,4.3531,4.2848,4.3648,4.5064,4.4999,4.4825,4.4458,4.3243,4.2277,0.0,0.0,3.8972,3.8781,0.0,3.7674,3.7425,0.0,0.0,0.0,3.5615,0.0,0.0,0.0,3.3283,3.3719,3.4842,0.0,0.0,0.0,0.0,0.0,0.0,0.0,0.0,0.0,0.0,0.0,0.0,0.0,0.0,0.0,0.0,4.7727,4.9065,4.882,4.8583,4.8583,4.8583,4.8583,4.8583,4.8583,4.8583,4.8583,4.8583,4.8583,4.8583,4.8974,4.9343,4.9703,4.9682,4.9866,5.0236,5.0913,5.119,5.1282,5.2298,5.2891,5.3199,5.3199,5.3999,5.5222,5.5222,5.5869,5.6805,0.0,0.0,0.0,0.0,0.0,0.0,0.0,0.0,0.0,3.3933,3.4458,3.4937,0.0,0.0,0.0,0.0,0.0,0.0,0.0,0.0,3.5519,3.5519,3.5519,3.5519,3.5519,3.5519,3.5519,3.5519,3.5519,3.5554,3.5639,3.572,3.5895,0.0,0.0,0.0,0.0,0.0,0.0,3.8738,0.0,4.1186,4.3359,4.294,4.4295,4.6357,4.5848,4.5694,4.5486,4.3986,0.0,4.291,4.0229,3.9748,0.0,0.0,0.0,0.0,0.0,0.0,0.0,0.0,0.0,3.4962,0.0,0.0,0.0,3.334,0.0,0.0,0.0,0.0,0.0,0.0,0.0,0.0,0.0,0.0,0.0,0.0,0.0,0.0,0.0,0.0,4.649,4.8091,4.7937,4.7978,4.8399,4.8399,4.8481,4.8583,4.8583,4.8583,4.8583,4.8583,4.8583,4.8583,4.8583,4.8912,4.9466,4.8881,4.8943,4.9528,5.0328,5.0558,5.0498,5.1823,5.2374,5.2435,5.2986,5.369,5.4409,5.4762,5.5535,5.6378,2.9488,2.9502,0.0,0.0,0.0,0.0,0.0,0.0,3.3993,3.513,3.5865,0.0,0.0,0.0,0.0,0.0,0.0,0.0,3.796,0.0,3.5519,3.5519,3.5519,3.5519,3.5519,3.5519,3.5519,3.5519,3.5519,3.5489,3.5522,3.5814,3.5989,0.0,3.632,0.0,0.0,0.0,3.8707,0.0,4.0122,4.1322,0.0,4.3297,4.4406,4.5733,4.5878,4.5445,4.4519,0.0,4.287,4.2861,0.0,3.9332,0.0,0.0,0.0,0.0,0.0,0.0,0.0,0.0,3.6642,0.0,0.0,0.0,3.5098,3.3215,0.0,0.0,0.0,0.0,0.0,0.0,0.0,0.0,0.0,0.0,0.0,0.0,0.0,0.0,0.0,0.0,0.0,4.6697,4.5617,4.5698,4.7609,4.7711,4.7989,4.8583,4.8583,4.8583,4.8583,4.8583,4.8583,4.8583,4.8583,4.8645,4.8706,4.8645,4.8666,4.8799,5.0112,5.0157,4.9389,5.0732,5.1273,5.1303,5.1363,5.212,5.3084,5.2288,5.3359,5.514,2.9788,3.0193,0.0,0.0,0.0,0.0,0.0,0.0,3.5968,3.652,3.7524,0.0,0.0,0.0,0.0,0.0,0.0,3.7375,0.0,0.0,0.0,3.5519,3.5519,3.5519,3.5519,3.5519,3.5519,3.5519,3.5519,3.5519,3.5489,3.5718,3.5894,0.0,3.6543,0.0,3.7554,0.0,3.8711,0.0,0.0,0.0,0.0,4.2542,4.3853,4.5288,4.5708,4.5586,4.49,0.0,4.2693,0.0,0.0,0.0,0.0,0.0,0.0,0.0,0.0,0.0,0.0,0.0,0.0,0.0,0.0,0.0,3.4476,0.0,0.0,0.0,0.0,0.0,0.0,0.0,0.0,0.0,0.0,0.0,0.0,0.0,0.0,0.0,0.0,0.0,0.0,0.0,0.0,4.4732,4.5201,4.6006,4.6942,4.7989,4.7999,4.8214,4.8583,4.8051,4.8051,4.8583,4.803,4.7798,4.7819,4.8355,4.8313,4.7858,4.9199,4.953,4.9164,4.994,5.0234,5.0215,4.991,5.1126,5.2949,5.2723,5.3234,5.4019,3.0313,0.0,0.0,0.0,0.0,0.0,0.0,0.0,0.0,0.0,0.0,0.0,4.0816,4.0516,0.0,0.0,0.0,3.9367,0.0,0.0,3.6716,0.0,0.0,0.0,0.0,3.5609,3.5519,3.5519,3.5519,3.5519,3.5489,3.5686,3.5816,3.5956,0.0,3.7475,3.7781,0.0,0.0,4.0091,4.0776,4.1055,4.122,4.2332,4.3594,4.4768,4.5169,4.5205,4.4711,4.2395,4.2204,0.0,3.9057,0.0,0.0,0.0,0.0,0.0,3.6292,0.0,0.0,0.0,0.0,0.0,0.0,0.0,0.0,0.0,0.0,0.0,0.0,0.0,0.0,0.0,0.0,0.0,0.0,0.0,0.0,0.0,0.0,0.0,0.0,0.0,0.0,0.0,4.2479,0.0,4.3254,4.4416,4.5669,4.7004,4.7404,4.7814,4.8307,4.7834,4.7925,4.8583,4.7649,4.7189,4.7211,4.7904,4.784,4.7279,4.8551,4.8961,4.8709,4.9035,4.9166,4.9153,4.8841,5.0098,5.2113,5.2196,5.2501,5.2865,3.1451,3.1481,0.0,0.0,0.0,0.0,0.0,0.0,0.0,0.0,0.0,0.0,0.0,0.0,0.0,0.0,0.0,4.256,4.3169,0.0,3.8033,0.0,0.0,3.5789,0.0,0.0,3.5519,3.5519,3.5519,3.5519,3.5519,3.586,3.5894,3.578,3.7436,3.818,3.843,4.1043,4.2139,4.2163,4.2921,4.2415,4.1478,0.0,4.3977,4.4052,4.427,0.0,0.0,4.1249,4.1104,0.0,0.0,0.0,0.0,0.0,0.0,0.0,0.0,0.0,0.0,0.0,0.0,0.0,0.0,0.0,3.5704,0.0,0.0,0.0,0.0,0.0,0.0,0.0,0.0,0.0,0.0,0.0,0.0,0.0,0.0,0.0,0.0,0.0,0.0,0.0,4.0038,0.0,4.2498,4.3279,4.4283,4.5638,4.6911,4.7619,4.765,4.8255,4.8563,4.8583,4.7649,4.7189,4.7189,4.7233,4.7211,4.7279,4.8551,4.8552,4.767,4.7939,4.8047,4.8058,4.8187,4.8894,4.9853,4.9392,5.0299,5.1677,0.0,0.0,0.0,0.0,0.0,0.0,0.0,3.7075,0.0,0.0,0.0,0.0,0.0,0.0,4.748,0.0,0.0,4.5364,4.4706,4.2391,0.0,0.0,0.0,3.7776,0.0,0.0,0.0,0.0,0.0,3.5729,3.6164,3.5913,3.5993,3.6411,0.0,3.7974,0.0,0.0,0.0,0.0,0.0,4.1782,4.191,0.0,0.0,4.1757,4.1831,4.1703,0.0,4.0099,3.9948,3.9892,3.7638,3.7301,3.742,3.598,3.6094,0.0,0.0,0.0,3.8004,3.6253,0.0,0.0,0.0,0.0,0.0,0.0,0.0,0.0,0.0,0.0,0.0,0.0,0.0,0.0,0.0,0.0,0.0,0.0,0.0,0.0,0.0,0.0,0.0,3.7889,3.821,3.8652,0.0,4.114,4.2897,4.4221,4.5988,4.7157,4.7619,4.701,4.706,4.767,4.6041,4.5275,4.5298,4.5981,4.6117,4.5913,4.675,4.7142,4.7214,4.7054,4.7249,4.7636,4.8029,4.8654,4.9365,4.9634,5.0318,5.1285,3.2946,0.0,0.0,0.0,0.0,0.0,0.0,0.0,0.0,0.0,4.5454,0.0,5.0607,0.0,5.0953,0.0,5.0272,4.8536,4.6501,4.4966,0.0,4.1194,4.0457,0.0,0.0,0.0,0.0,0.0,0.0,3.6417,3.6793,3.6058,3.6017,3.6673,3.7643,3.7999,3.8071,0.0,4.1445,0.0,0.0,4.0959,0.0,0.0,4.0962,0.0,0.0,4.0108,3.9978,3.906,3.8861,3.8717,3.7232,3.709,3.7225,3.5759,3.6224,3.7079,3.6144,3.7273,0.0,0.0,3.7011,0.0,0.0,0.0,0.0,0.0,0.0,0.0,0.0,0.0,0.0,0.0,0.0,0.0,0.0,0.0,0.0,0.0,0.0,0.0,0.0,0.0,3.7665,3.6572,3.7054,3.7422,0.0,0.0,4.174,4.2835,4.5083,4.6403,4.6752,4.6202,4.6189,4.6689,4.5047,4.4312,4.4312,4.4984,4.5256,4.5244,4.5841,4.6434,4.6976,4.6653,4.6862,4.7432,4.7975,4.8571,4.9195,5.0037,5.0715,5.1339,0.0,0.0,0.0,0.0,3.5625,0.0,0.0,0.0,4.2851,0.0,4.7407,5.0219,5.2079,5.2933,5.3609,5.4242,5.3639,0.0,4.8768,4.7878,0.0,0.0,4.2032,4.1343,4.0576,0.0,0.0,0.0,0.0,0.0,3.7464,3.6269,3.6012,3.6643,3.8073,0.0,3.7974,4.187,4.2594,4.1078,4.0773,4.0065,3.9074,3.7962,0.0,4.253,3.9991,3.9117,3.8988,3.8194,3.79,3.79,3.7874,3.7456,3.6985,3.6959,3.6985,3.7011,3.7011,3.7063,3.7116,3.709,0.0,0.0,0.0,0.0,3.8397,0.0,0.0,0.0,0.0,0.0,0.0,0.0,0.0,0.0,0.0,0.0,0.0,0.0,0.0,0.0,0.0,3.8546,3.7688,3.8366,3.656,3.604,0.0,0.0,0.0,4.1524,4.4172,4.5482,4.5194,4.5912,4.6067,4.5711,4.4776,4.4289,4.4219,4.4219,4.4583,4.5228,4.5769,4.6388,4.6957,4.6654,4.6889,4.7486,4.8029,4.8653,4.9358,5.0525,5.1339,5.1853,3.4338,3.5176,3.5985,0.0,3.5848,3.6417,0.0,0.0,0.0,0.0,4.9857,5.26,5.365,5.4819,5.5533,5.5625,5.4191,0.0,0.0,0.0,0.0,4.6882,4.6142,4.4796,4.2671,4.1474,0.0,3.8883,0.0,0.0,3.8823,3.66,3.6407,3.793,3.8312,3.8372,3.8337,4.021,4.0038,3.8547,3.9277,3.9475,0.0,0.0,3.9105,4.062,3.8367,3.7844,3.8217,3.7992,3.79,3.7821,3.7377,3.7116,3.6907,3.6462,3.6645,3.7011,3.7011,3.7952,3.8817,3.8397,3.8266,3.8135,0.0,0.0,0.0,0.0,0.0,0.0,0.0,0.0,0.0,0.0,0.0,0.0,0.0,0.0,0.0,0.0,0.0,0.0,3.82,3.7791,3.7346,3.7045,3.6504,0.0,0.0,0.0,0.0,4.0768,4.3925,4.5482,4.5194,4.636,4.6182,4.4684,4.4429,4.3942,4.3256,4.3256,4.3834,4.4847,4.4986,4.5643,4.6656,4.7022,4.7513,4.8056,4.8653,4.9792,5.1148,5.1446,5.1934,5.2504,3.5386,0.0,0.0,3.8093,0.0,0.0,3.9696,0.0,0.0,4.7027,5.0793,0.0,5.4171,5.5452,5.6223,5.6166,5.4451,0.0,0.0,0.0,0.0,4.8024,4.7582,4.6415,4.4287,4.291,0.0,3.984,0.0,0.0,3.8931,3.6896,3.6656,3.7973,3.8272,3.8571,3.8871,3.9576,3.9638,3.9241,3.8512,0.0,0.0,3.7419,3.7817,3.8643,3.7423,3.7403,3.79,3.79,3.79,3.7848,3.7508,3.7403,3.7325,3.6985,3.7142,3.7403,3.7403,3.8109,3.8789,3.8449,3.8527,3.8579,3.8031,3.8318,3.8632,0.0,0.0,0.0,0.0,0.0,0.0,0.0,0.0,0.0,0.0,0.0,0.0,0.0,0.0,0.0,3.7061,3.676,3.656,3.6491,0.0,0.0,0.0,0.0,0.0,0.0,4.3065,4.4509,4.4537,4.5442,4.5138,4.3681,4.3681,4.3399,4.2925,4.3169,4.3821,4.4719,4.499,4.5614,4.6536,4.7133,4.7703,4.8273,4.9141,5.0443,5.1799,5.1799,5.2178,5.2805,0.0,0.0,0.0,0.0,0.0,0.0,0.0,4.3186,0.0,4.7516,0.0,5.3751,5.4166,5.5333,5.6097,5.6067,0.0,5.2575,5.0951,5.0836,4.9879,4.7784,4.7688,4.6922,4.5323,4.3831,0.0,0.0,0.0,0.0,3.8482,3.7152,3.6883,3.7554,3.8212,3.8794,0.0,3.9324,3.9949,4.064,3.8043,3.7063,3.7063,3.6541,3.6671,3.7116,3.7116,3.7456,3.79,3.79,3.79,3.79,3.79,3.79,3.79,3.79,3.7952,3.8004,3.8004,3.8057,3.8135,3.8135,3.8475,3.871,3.824,3.8553,3.8896,3.8817,3.8449,0.0,0.0,0.0,0.0,0.0,0.0,0.0,0.0,0.0,0.0,0.0,0.0,0.0,0.0,0.0,0.0,0.0,0.0,0.0,0.0,0.0,0.0,0.0,4.2138,0.0,4.3647,0.0,4.4064,4.3033,4.3073,4.3073,4.306,4.3549,4.4174,4.4854,4.537,4.5938,4.6536,4.7133,4.7758,4.8436,4.9548,5.0741,5.1799,5.1799,5.2233,5.2913,0.0,0.0,0.0,0.0,0.0,4.266,4.3878,4.5741,4.7542,4.9036,5.2991,0.0,5.4292,5.4947,5.5453,5.5391,5.3321,0.0,0.0,0.0,0.0,4.8731,4.8647,4.7589,4.5259,4.2988,4.1766,0.0,0.0,0.0,3.9182,3.7345,3.7122,3.8242,3.8931,3.8825,3.8163,3.8146,0.0,3.7073,3.7014,3.7299,3.7743,3.7612,3.7665,3.7743,3.7743,3.7821,3.79,3.79,3.79,3.79,3.79,3.79,3.79,3.79,3.8214,3.8579,3.8579,3.8896,3.9311,3.9311,3.9366,3.9442,3.9337,3.973,3.9967,3.9523,3.939,3.9,3.8083,0.0,0.0,0.0,0.0,0.0,0.0,0.0,0.0,0.0,0.0,0.0,0.0,0.0,0.0,0.0,0.0,0.0,0.0,0.0,0.0,0.0,0.0,0.0,0.0,0.0,0.0,4.3631,4.3931,4.391,4.3658,4.3739,4.4418,4.5451,4.5533,4.5938,4.6536,4.7133,4.8002,4.9005,4.971,5.0741,5.1799,5.1799,5.2477,5.3456,0.0,0.0,0.0,0.0,0.0,0.0,0.0,4.7622,0.0,4.8726,5.16,5.3177,5.1938,5.332,5.4049,5.3378,5.2048,5.1329,5.1625,5.0817,4.9934,4.9004,4.8315,0.0,4.522,4.3036,4.1737,4.138,0.0,0.0,0.0,3.7913,3.7793,3.8404,3.8973,3.9168,0.0,0.0,0.0,3.7789,3.755,3.7456,3.7482,3.7795,3.7717,3.7482,3.7795,3.79,3.79,3.79,3.79,3.79,3.79,3.8083,3.8318,3.8318,3.8501,3.871,3.871,3.871,3.8789,3.9076,3.9128,3.9233,3.9547,3.9808,3.9967,3.9993,3.9523,3.8789,3.7639,3.6018,0.0,0.0,0.0,0.0,0.0,0.0,0.0,0.0,0.0,0.0,0.0,0.0,0.0,0.0,0.0,0.0,0.0,0.0,0.0,0.0,0.0,0.0,0.0,0.0,0.0,4.3332,4.3489,4.3657,4.3794,4.4119,4.4746,4.5614,4.5938,4.6237,4.6563,4.7459,4.8517,4.9629,5.0227,5.1014,5.1853,5.2151,5.2832,5.3592,0.0,4.1217,0.0,0.0,4.4109,0.0,0.0,4.8652,4.9906,4.8439,5.0182,5.1142,5.0128,5.1826,5.2642,5.1675,5.11,5.0734,5.0603,4.9636,4.8895,4.8479,4.7512,4.6267,4.4768,4.2864,4.144,0.0,0.0,0.0,0.0,0.0,0.0,0.0,0.0,0.0,0.0,0.0,3.8331,3.8831,3.8032,3.7508,3.7246,3.7717,3.7612,3.7246,3.7743,3.79,3.79,3.79,3.79,3.7926,3.8031,3.837,3.8736,3.8867,3.8972,3.9076,3.9076,3.8739,3.8527,3.8972,3.9076,3.9207,3.9677,3.9886,4.0019,4.0332,3.9599,3.8553,3.7403,3.6462,0.0,0.0,0.0,0.0,0.0,0.0,0.0,0.0,0.0,0.0,0.0,0.0,0.0,0.0,0.0,0.0,0.0,0.0,0.0,0.0,0.0,0.0,4.2368,0.0,4.3715,0.0,4.3145,4.3468,4.4201,4.4664,4.5207,4.583,4.6291,4.6563,4.678,4.7785,4.8843,4.9874,5.0471,5.1177,5.1853,5.2314,5.2968,5.3592,0.0,0.0,0.0,0.0,0.0,0.0,0.0,4.8256,4.9382,4.9651,5.128,5.2145,5.149,5.1632,5.1727,5.1596,5.11,5.0551,5.0002,4.9427,4.8387,4.6799,4.6616,4.5489,4.3256,4.1493,4.0157,0.0,0.0,0.0,0.0,0.0,0.0,0.0,0.0,0.0,0.0,3.6707,3.6882,3.7224,3.7135,3.7377,3.7821,3.7874,3.7874,3.7821,3.7874,3.79,3.79,3.79,3.79,3.7978,3.8475,3.8658,3.8815,3.9364,3.986,4.0228,4.0228,4.0202,4.0176,4.0228,4.0228,4.0254,4.0306,4.075,4.0985,4.0489,3.9939,3.9181,3.8031,3.7743,3.7393,0.0,0.0,0.0,0.0,0.0,0.0,0.0,0.0,0.0,0.0,0.0,0.0,0.0,0.0,0.0,0.0,0.0,0.0,0.0,0.0,4.2074,4.2301,4.3589,0.0,4.4529,4.3984,4.4309,4.5424,4.5478,4.5857,4.6427,4.6481,4.6807,4.735,4.7948,4.8598,4.9249,4.9846,5.0768,5.1799,5.1853,5.2585,5.3592,0.0,0.0,0.0,0.0,0.0,0.0,0.0,4.8566,4.9401,4.893,5.0394,5.123,5.0629,5.1178,5.1465,5.1152,5.0917,5.0681,5.0446,4.9584,4.8646,4.7574,4.6867,4.5743,4.4121,4.2369,4.0874,0.0,0.0,0.0,0.0,0.0,0.0,0.0,0.0,3.7003,3.7557,3.742,3.7429,3.756,3.79,3.7978,3.79,3.79,3.79,3.79,3.79,3.79,3.79,3.79,3.79,3.8004,3.8527,3.871,3.8893,3.981,3.9993,3.9967,4.0306,4.015,3.9993,4.0306,4.0385,4.0489,4.0855,4.1116,4.1221,4.0985,4.0463,3.9705,3.8606,3.8109,3.7766,0.0,0.0,0.0,0.0,0.0,0.0,0.0,0.0,0.0,0.0,0.0,0.0,0.0,0.0,0.0,0.0,0.0,0.0,3.7019,0.0,4.0703,4.1058,4.2649,4.3694,4.4174,4.3929,4.4445,4.5587,4.5587,4.5938,4.6509,4.6862,4.7377,4.7893,4.849,4.9087,4.9738,5.0687,5.1365,5.188,5.2585,5.3402,5.408,4.4668,0.0,4.4431,0.0,4.6156,4.6131,4.7359,4.8616,4.9087,4.8332,4.927,4.9871,4.9427,5.042,5.0943,5.0551,5.0681,5.0707,5.0551,4.961,4.8747,4.7963,4.7024,0.0,4.4566,4.2997,4.1332,3.9635,3.9023,0.0,0.0,0.0,0.0,0.0,3.6845,3.7214,3.8189,3.8148,3.824,3.8449,3.8815,3.8736,3.8397,3.8397,3.8397,3.837,3.8214,3.8266,3.837,3.8214,3.8266,3.8475,3.8867,3.9052,3.939,4.0383,4.0409,4.0176,4.0541,4.0409,4.0176,4.0567,4.0646,4.0776,4.1194,4.1299,4.1299,4.1299,4.0959,4.0359,3.9366,3.8762,3.8367,0.0,0.0,0.0,0.0,0.0,0.0,0.0,0.0,3.4301,3.3252,0.0,0.0,0.0,0.0,0.0,0.0,0.0,0.0,0.0,0.0,0.0,0.0,0.0,4.3576,4.4337,4.4337,4.488,4.5884,4.5884,4.6183,4.678,4.7214,4.7812,4.8517,4.8924,4.9548,5.0363,5.1175,5.1744,5.2151,5.3022,5.3727,5.4162,4.4135,4.5471,4.6815,4.7966,4.8175,4.8146,4.8201,4.8227,4.8227,4.8201,4.8227,4.8254,4.8227,4.9218,4.9897,4.9897,5.0446,5.0551,4.9949,4.9401,4.8564,0.0,0.0,4.569,4.3938,4.2787,4.1061,3.871,0.0,0.0,3.5329,0.0,0.0,3.6144,3.6746,3.7325,3.7949,3.8475,3.905,3.9599,3.9599,3.9599,3.9599,3.9599,3.9599,3.952,3.8896,3.9076,3.9494,3.8893,3.9102,3.9599,3.9599,3.9941,4.0489,4.109,4.1273,4.1273,4.1273,4.1273,4.1273,4.1273,4.1273,4.1273,4.1299,4.1299,4.1299,4.1299,4.1273,4.109,4.0489,3.9939,3.9461,3.9143,0.0,0.0,0.0,0.0,0.0,0.0,3.5703,3.5648,3.3324,3.3715,0.0,0.0,0.0,0.0,0.0,0.0,0.0,3.6914,3.9235,0.0,4.3151,4.3578,4.4391,4.556,4.556,4.5911,4.6481,4.6481,4.6807,4.7404,4.7404,4.8029,4.9087,4.9087,4.9792,5.0878,5.0905,5.1638,5.2696,5.2723,5.3103,5.3619,4.5042,4.5871,4.665,4.7372,4.7733,4.785,4.785,4.8055,4.8201,4.8201,4.8567,4.8799,4.8799,4.9453,5.0211,0.0,5.089,5.0524,0.0,4.9401,4.8564,4.7359,4.6787,4.5874,4.454,4.3337,4.1821,3.9862,0.0,0.0,0.0,3.7456,3.7717,3.79,3.8083,3.871,3.9625,3.9808,3.9967,4.0148,4.0148,3.9939,3.9599,3.9599,3.9599,3.9573,3.9366,3.9442,3.9573,3.939,3.9679,4.0148,4.0148,3.9993,4.0019,4.1036,4.1012,4.0776,4.1194,4.1299,4.1299,4.1299,4.1299,4.1299,4.1299,4.1299,4.1299,4.1299,4.1299,4.1116,4.0489,3.9941,3.944,3.8909,0.0,0.0,0.0,0.0,0.0,0.0,0.0,3.493,0.0,3.4297,0.0,0.0,0.0,0.0,0.0,0.0,0.0,0.0,3.9305,0.0,4.2375,4.3318,4.4418,4.5587,4.602,4.6727,4.7649,4.7296,4.7432,4.7975,4.8382,4.8761,4.9141,4.9521,4.9956,5.0363,5.1175,5.1744,5.2178,5.3022,5.37,5.4134,4.5678,4.6579,4.7334,4.7231,4.7563,4.7759,4.7552,4.7885,4.808,4.7847,4.8611,4.9221,4.9195,4.9837,0.0,5.0917,5.0655,0.0,4.9666,4.9061,4.8329,4.7333,4.6787,4.5874,4.4487,0.0,0.0,4.0385,3.9651,3.9,3.8553,3.8658,3.8841,3.905,3.9259,3.9732,4.0411,4.062,4.0724,4.0724,4.0724,4.0515,4.0252,4.0252,4.0252,4.0226,3.9967,4.0069,4.0202,3.9991,4.0254,4.0724,4.0724,4.0489,4.0383,4.109,4.1012,4.0803,4.1194,4.1299,4.1299,4.1299,4.1299,4.1299,4.1299,4.1299,4.1299,4.1299,4.1299,4.1168,4.0803,4.0097,3.9494,3.9102,0.0,0.0,0.0,0.0,0.0,0.0,0.0,0.0,0.0,3.526,0.0,0.0,0.0,0.0,0.0,0.0,0.0,3.7958,3.9857,0.0,4.3009,4.4011,4.4988,4.5966,4.6536,4.7323,4.8192,4.7866,4.8029,4.8571,4.8951,4.9222,4.9466,4.9819,5.0281,5.0741,5.15,5.207,5.2558,5.332,5.3836,5.4107,4.6045,4.752,0.0,0.0,4.7714,0.0,4.7329,4.7718,4.7897,4.7385,4.8498,4.9351,4.9386,5.0232,5.0577,4.9897,0.0,0.0,0.0,4.8567,4.7911,4.7281,4.6734,0.0,4.3886,4.3284,4.2135,4.0385,3.9366,3.9155,3.9627,3.9128,3.9181,3.9732,4.0228,4.0437,4.0437,4.1038,4.1298,4.1221,4.1273,4.1299,4.1299,4.1299,4.1299,4.1221,4.0646,4.0803,4.1194,4.0646,4.0853,4.1273,4.1247,4.1272,4.1299,4.1299,4.1299,4.1299,4.1299,4.1299,4.1299,4.1299,4.1299,4.1299,4.1299,4.1299,4.1299,4.1299,4.1299,4.1299,4.1299,4.0383,3.9599,3.9523,3.848,3.7378,3.6563,0.0,0.0,0.0,0.0,0.0,0.0,3.6557,3.6829,0.0,0.0,0.0,0.0,0.0,0.0,3.8559,4.0865,4.2928,4.4746,4.5343,4.602,4.6699,4.7214,4.7758,4.83,4.8273,4.8598,4.9168,4.9168,4.9466,5.001,5.001,5.0687,5.1744,5.1744,5.2449,5.3537,5.3537,5.3565,5.3592,0.0,0.0,4.7923,4.7242,4.7785,4.8146,4.7587,4.7824,4.8179,4.8456,4.8799,4.9106,4.9351,5.038,5.056,4.9401,5.008,5.0342,4.974,4.8747,4.7757,4.6734,4.6133,4.5009,4.3258,4.3049,4.2135,4.0385,4.0567,4.0515,4.0226,4.0515,4.075,4.0881,4.1012,4.0829,4.0437,4.1038,4.1012,4.0646,4.109,4.1299,4.1299,4.1299,4.1299,4.1273,4.1142,4.1168,4.1273,4.1142,4.1168,4.1221,4.075,4.0933,4.1299,4.1299,4.1299,4.1299,4.1299,4.1299,4.1299,4.1299,4.1299,4.1299,4.1299,4.1299,4.1299,4.1299,4.1299,4.1299,4.1299,4.0383,3.9468,3.8998,3.7939,3.6889,3.6162,0.0,0.0,0.0,3.6889,3.7371,3.7534,3.7534,3.7512,0.0,0.0,0.0,0.0,0.0,4.0832,4.0463,4.1924,4.3552,4.537,4.5993,4.7025,4.8463,4.8165,4.8544,4.9548,4.9087,4.9222,4.9765,4.9765,4.9874,5.001,5.001,5.0444,5.1122,5.1122,5.1855,5.2913,5.2913,5.3212,5.3592,4.7048,4.7927,4.836,4.7274,4.7906,4.8238,4.7177,4.781,4.8263,4.7775,4.8508,4.8973,4.8589,4.9518,4.9889,4.9291,4.9941,4.9897,4.8799,4.8146,4.7283,4.6133,4.5505,4.4512,4.3023,4.2762,4.203,4.0803,4.1142,4.1116,4.0803,4.1142,4.1299,4.1299,4.1299,4.1116,4.0829,4.1142,4.0933,4.0437,4.1038,4.1116,4.0907,4.1194,4.1299,4.1299,4.1299,4.1299,4.1299,4.1299,4.1299,4.1247,4.0907,4.1038,4.1299,4.1299,4.1299,4.1299,4.1299,4.1299,4.1299,4.1299,4.1299,4.1299,4.1299,4.1299,4.1299,4.1299,4.1299,4.1299,4.1299,4.0383,3.9416,3.8815,3.7625,3.6547,3.5839,3.5859,0.0,3.6797,3.7628,3.832,3.8781,3.9242,3.9351,3.8857,0.0,0.0,3.9649,4.1652,4.2412,4.152,4.347,4.5015,4.602,4.6835,4.7866,4.9087,4.8788,4.9087,5.001,4.9656,4.9683,5.001,5.001,5.001,5.001,5.001,5.0525,5.1312,5.1312,5.2072,5.3103,5.3103,5.332,5.3592,4.7324,4.8435,4.8862,4.735,4.7983,4.8159,4.6778,4.7682,4.8083,4.6853,4.8005,4.8627,4.7694,4.8401,4.8963,4.9062,4.9369,4.8949,4.7516,4.7281,4.6706,4.5635,4.493,4.4068,4.3023,4.2395,4.1794,4.1299,4.1299,4.1299,4.1299,4.1299,4.1299,4.1299,4.1299,4.1247,4.1168,4.1247,4.0933,4.0437,4.1038,4.0985,4.0567,4.109,4.1299,4.1273,4.1194,4.1221,4.1298,4.1194,4.1221,4.1273,4.1194,4.1221,4.1273,4.1194,4.1221,4.1299,4.1299,4.1299,4.1299,4.1299,4.1299,4.1299,4.1299,4.1299,4.1299,4.1299,4.1299,4.1299,4.1299,4.0383,3.9416,3.8815,3.743,3.6265,3.5727,0.0,3.6375,3.7289,3.8468,3.9366,3.9676,4.1028,4.1354,4.0078,4.1707,0.0,0.0,4.3253,4.3739,4.2711,4.5178,4.6644,4.6889,4.7839,4.8653,4.9249,4.9249,4.9493,5.001,5.001,5.001,5.001,5.001,5.001,5.001,5.0118,5.0743,5.1663,5.1772,5.2477,5.3456,5.3456,5.351,5.3592,4.8441,4.8335,4.7958,4.7224,4.76,4.7958,4.7707,4.7475,4.7631,4.8341,4.7838,4.7459,4.7592,4.8192,4.8319,4.7624,4.7873,4.8065,4.8068,4.7153,4.6316,4.5635,4.4591,4.3702,4.3023,4.1952,4.1402,4.1299,4.1299,4.1299,4.1299,4.1299,4.1299,4.1299,4.1299,4.1012,4.0567,4.1064,4.0933,4.0437,4.1038,4.1247,4.1168,4.1247,4.1299,4.1221,4.0724,4.0855,4.1221,4.0698,4.0881,4.1194,4.0698,4.0881,4.1194,4.0672,4.0881,4.1299,4.1299,4.1299,4.1299,4.1299,4.1299,4.1299,4.1299,4.1299,4.1299,4.1299,4.1299,4.1299,4.1299,4.0383,3.9416,3.8815,3.7269,3.6087,0.0,0.0,3.7123,3.8098,3.9712,4.0982,4.1544,4.1358,4.1761,4.3006,4.2493,4.2738,4.4067,4.537,4.5993,4.5803,4.6264,4.7214,4.868,4.887,4.9249,4.9846,4.9846,4.9928,5.001,5.001,5.001,5.001,5.001,5.001,5.0064,5.0553,5.0878,5.1095,5.1582,5.2233,5.2859,5.2859,5.3158,5.3592,4.7832,4.7908,4.7732,4.7199,4.7525,4.7707,4.7129,4.733,4.7531,4.7456,4.7255,4.7034,4.6915,4.7147,4.7218,4.6985,4.6831,4.6817,4.6999,4.6389,4.5767,4.5139,4.4042,4.2997,4.2109,4.156,4.1299,4.1299,4.1299,4.1299,4.1299,4.1299,4.1299,4.1298,4.0959,4.0829,4.0881,4.0853,4.0646,4.0437,4.1038,4.1115,4.0829,4.1193,4.1299,4.1247,4.0985,4.1064,4.1247,4.0959,4.1064,4.1247,4.0959,4.1064,4.1247,4.0959,4.1064,4.1299,4.1299,4.1299,4.1299,4.1299,4.1299,4.1299,4.1299,4.1299,4.1299,4.1299,4.1299,4.1299,4.1299,4.0383,3.952,3.9233,3.7717,0.0,0.0,3.7166,3.7927,3.8688,4.0306,4.1737,4.2655,4.2638,4.3036,4.4203,4.4067,4.4447,4.5587,4.6509,4.7269,4.7893,4.7893,4.8436,4.9548,4.9575,4.971,5.001,5.0335,5.0308,5.001,5.0335,5.0471,5.0471,5.0471,5.0688,5.0958,5.0932,5.1095,5.1392,5.169,5.2151,5.275,5.3076,5.3375,5.3592,4.7274,4.75,4.7525,4.6998,4.7249,4.7305,4.6572,4.7174,4.7481,4.6778,4.6923,4.6948,4.6522,4.6376,4.6391,4.6656,4.6087,4.5766,4.5791,4.543,4.5002,4.4538,4.3415,4.2343,4.1299,4.1299,4.1299,4.1299,4.1299,4.1299,4.1299,4.1299,4.1299,4.1273,4.0827,4.0855,4.1273,4.0803,4.0594,4.0646,4.109,4.1012,4.0646,4.1116,4.1299,4.1273,4.1142,4.1168,4.1273,4.1142,4.1168,4.1299,4.1299,4.1299,4.1299,4.1299,4.1299,4.1299,4.1299,4.1299,4.1299,4.1299,4.1299,4.1299,4.1299,4.1299,4.1299,4.1299,4.1299,4.1299,4.1299,4.0488,3.9756,3.9625,0.0,0.0,0.0,3.8141,3.9008,3.9611,4.1132,4.2525,4.3606,4.4022,4.4472,4.5071,4.5668,4.6291,4.6862,4.7595,4.8491,4.9466,4.9521,4.9656,5.001,5.0146,5.0146,5.001,5.0471,5.0444,5.0037,5.0634,5.0905,5.0905,5.1041,5.1394,5.1772,5.1448,5.1529,5.1826,5.2097,5.2422,5.2778,5.3375,5.3592,5.3592,4.7857,4.745,4.6998,4.6446,4.6401,4.6547,4.6973,4.7124,4.7299,4.7732,4.7375,4.7074,4.7048,4.6597,4.6301,4.6331,4.5615,4.516,4.5164,4.4428,4.4023,4.3964,4.2866,4.1977,4.1299,4.1299,4.1299,4.1299,4.1299,4.1299,4.1299,4.1299,4.1299,4.1299,4.1247,4.1247,4.1299,4.1247,4.1221,4.1221,4.1273,4.1273,4.1221,4.1273,4.1299,4.1221,4.0672,4.0853,4.1194,4.0646,4.0829,4.1299,4.1299,4.1299,4.1299,4.1299,4.1299,4.1299,4.1299,4.1299,4.1299,4.1299,4.1299,4.1299,4.1299,4.1299,4.1299,4.1299,4.1299,4.1299,4.1299,4.0776,4.0176,3.9677,0.0,0.0,3.8145,3.9342,4.0532,4.1334,4.2731,4.3904,4.4558,4.5126,4.5721,4.6318,4.6916,4.7513,4.8056,4.9168,5.0118,5.0743,5.077,5.0525,5.001,5.0553,5.0553,5.001,5.0064,5.0064,5.0037,5.0634,5.0905,5.0932,5.1473,5.1744,5.1853,5.2341,5.226,5.1907,5.3049,5.3158,5.2778,5.3375,5.3592,5.3592,4.7832,4.7757,4.7525,4.733,4.7305,4.738,4.7581,4.7299,4.7299,4.7832,4.7425,4.7099,4.7099,4.6923,4.6647,4.6351,4.5716,4.5434,4.5584,4.4687,4.3976,4.3618,4.3023,4.2422,4.1872,4.1507,4.1299,4.1299,4.1299,4.1299,4.1299,4.1299,4.1299,4.1273,4.0907,4.0933,4.1298,4.0881,4.0959,4.1299,4.1299,4.1299,4.1299,4.1299,4.1299,4.1273,4.1038,4.1115,4.1247,4.1038,4.109,4.1299,4.1299,4.1299,4.1299,4.1299,4.1299,4.1299,4.1299,4.1299,4.1299,4.1299,4.1299,4.1402,4.1768,4.1872,4.1951,4.2291,4.2344,4.2344,4.2344,4.1586,4.101,4.1167,0.0,3.9858,4.0086,4.1212,4.2065,4.2178,4.3475,4.4532,4.4975,4.5699,4.64,4.6997,4.7948,4.8707,4.9276,5.0443,5.1202,5.1446,5.1828,5.1367,5.001,5.0607,5.077,5.0553,5.0931,5.0904,5.058,5.1584,5.1828,5.1473,5.2097,5.2558,5.2913,5.2778,5.2558,5.2395,5.2859,5.2913,5.2778,5.3375,5.3592,5.3592,4.7807,4.7908,4.7908,4.7908,4.7782,4.7732,4.7883,4.7575,4.755,4.8109,4.7857,4.755,4.7375,4.7199,4.6873,4.6351,4.5799,4.5485,4.5489,4.4567,4.376,4.3172,4.2788,4.2371,4.1924,4.1507,4.1299,4.1299,4.1299,4.1299,4.1299,4.1299,4.1299,4.1273,4.0855,4.0907,4.1273,4.0855,4.0907,4.1299,4.1299,4.1299,4.1299,4.1299,4.1299,4.1299,4.1299,4.1299,4.1299,4.1299,4.1299,4.1299,4.1299,4.1299,4.1299,4.1299,4.1428,4.1585,4.1585,4.1716,4.1795,4.1638,4.1585,4.1742,4.2343,4.2447,4.2578,4.2918,4.2997,4.2997,4.2997,4.2344,4.1925,4.216,4.1638,4.1299,4.1559,4.2488,4.3165,4.3248,4.4345,4.5324,4.584,4.6756,4.7513,4.792,4.8843,4.971,5.0497,5.1338,5.188,5.207,5.2477,5.1988,5.0578,5.1177,5.1285,5.0905,5.15,5.1473,5.0932,5.2154,5.2449,5.2124,5.2723,5.3212,5.3565,5.3158,5.2995,5.2995,5.2995,5.2995,5.3049,5.3456,5.3592,5.3619,4.7807,4.7908,4.7908,4.7908,4.745,4.7274,4.7832,4.7908,4.8109,4.8718,4.8793,4.8592,4.7958,4.74,4.6898,4.6351,4.5799,4.5246,4.464,4.3872,4.3171,4.2629,4.2035,4.1594,4.1325,4.1299,4.1299,4.1299,4.1299,4.1299,4.1299,4.1299,4.1299,4.1299,4.1299,4.1299,4.1299,4.1299,4.1299,4.1299,4.1299,4.1299,4.1299,4.1299,4.1299,4.1299,4.1299,4.1299,4.1299,4.1299,4.1299,4.1299,4.1299,4.1299,4.1299,4.1299,4.1716,4.2186,4.2212,4.2579,4.2866,4.2343,4.2212,4.2343,4.2866,4.2997,4.3023,4.3023,4.3023,4.3023,4.3023,4.2997,4.284,4.2317,4.2657,4.284,4.2291,4.2889,4.3753,4.4597,4.5473,4.6355,4.7296,4.8436,4.9087,4.9087,4.9656,5.0524,5.1744,5.1799,5.207,5.2666,5.2694,5.2422,5.1826,5.2395,5.2099,5.0905,5.15,5.1473,5.096,5.2181,5.2723,5.275,5.3347,5.3592,5.3592,5.3592,5.3592,5.3592,5.3592,5.3592,5.3592,5.3619,5.3619,5.3673,4.8335,4.8184,4.8033,4.8466,4.8385,4.8209,4.7933,4.8259,4.8435,4.8184,4.8542,4.8441,4.745,4.7525,4.7274,4.6401,4.615,4.5824,4.5271,4.463,4.3922,4.3192,4.2823,4.2497,4.2216,4.1801,4.1513,4.1299,4.1299,4.1299,4.1299,4.1299,4.1299,4.1299,4.1299,4.1299,4.1299,4.1299,4.1299,4.1299,4.1299,4.1299,4.1299,4.1299,4.1299,4.1299,4.1299,4.1299,4.1299,4.1299,4.1299,4.1299,4.1299,4.1299,4.1402,4.1794,4.2055,4.2264,4.2657,4.2866,4.2945,4.2814,4.2762,4.2918,4.3493,4.3938,4.4303,4.4747,4.4825,4.4825,4.4825,4.4173,4.3729,4.399,4.4121,4.4173,4.4043,4.4729,4.5338,4.5578,4.6034,4.6597,4.7267,4.8017,4.8473,4.8473,4.941,5.0437,5.1478,5.1701,5.2155,5.2958,5.2745,5.2543,5.2356,5.2593,5.2533,5.2181,5.2341,5.2314,5.2208,5.2968,5.3103,5.275,5.3347,5.3592,5.3592,5.3592,5.3592,5.3592,5.3592,5.3592,5.3646,5.408,5.4216,5.4297,4.7958,4.7832,4.7782,4.8335,4.8259,4.8159,4.8234,4.836,4.846,4.856,4.8718,4.8435,4.75,4.75,4.7224,4.6376,4.6125,4.5849,4.5522,4.4744,4.4073,4.3591,4.3201,4.2713,4.2085,4.1724,4.1363,4.0997,4.1072,4.1122,4.1122,4.1249,4.1299,4.1299,4.1299,4.1299,4.1299,4.1299,4.1299,4.1299,4.1299,4.1299,4.1299,4.1299,4.1299,4.1299,4.1299,4.1299,4.1299,4.1299,4.1299,4.1325,4.1585,4.1664,4.1768,4.2343,4.2683,4.2944,4.3258,4.3493,4.3676,4.3676,4.3493,4.3572,4.4382,4.4826,4.5217,4.5846,4.5976,4.5976,4.5976,4.5375,4.5063,4.5429,4.5245,4.506,4.5114,4.5539,4.5886,4.5996,4.6611,4.7175,4.7632,4.8191,4.8566,4.8566,4.9445,5.0332,5.1183,5.1563,5.212,5.2865,5.2707,5.2588,5.2588,5.2665,5.255,5.2308,5.255,5.255,5.2335,5.3049,5.3265,5.3035,5.3416,5.3667,5.3734,5.364,5.3592,5.3592,5.3592,5.3754,5.3999,5.4382,5.465,5.4948,4.6998,4.7074,4.7199,4.7732,4.7425,4.745,4.8492,4.8259,4.8335,4.9314,4.9095,4.8567,4.7908,4.7375,4.6873,4.6351,4.5849,4.5573,4.5573,4.4493,4.3865,4.3865,4.3288,4.248,4.1386,4.1386,4.1157,4.0619,4.0848,4.0974,4.1,4.1149,4.125,4.1302,4.125,4.1249,4.1274,4.1274,4.1299,4.1299,4.1299,4.1299,4.1299,4.1299,4.1299,4.1299,4.1299,4.1299,4.1299,4.1299,4.1325,4.1481,4.2029,4.2212,4.2369,4.2918,4.3467,4.3912,4.3964,4.433,4.4695,4.4695,4.433,4.4225,4.5269,4.5609,4.5818,4.6397,4.6554,4.658,4.658,4.6527,4.6527,4.658,4.6107,4.574,4.574,4.574,4.5823,4.6099,4.7077,4.7878,4.816,4.872,4.901,4.901,4.9518,5.0132,5.083,5.1359,5.1915,5.2558,5.2527,5.2496,5.2496,5.2549,5.2314,5.1785,5.2349,5.2349,5.1865,5.2731,5.3293,5.3525,5.3551,5.3727,5.3916,5.3684,5.3561,5.3619,5.3646,5.3999,5.4518,5.4596,5.5003,5.5573,4.6998,4.6747,4.6622,4.7174,4.7174,4.7174,4.7425,4.8109,4.851,4.8309,4.8592,4.8416,4.7375,4.7174,4.6873,4.6351,4.62,4.6125,4.6125,4.507,4.4414,4.4414,4.3514,4.2693,4.2023,4.2212,4.2121,4.1745,4.1388,4.144,4.1824,4.1055,4.09,4.1261,4.0849,4.0795,4.0997,4.0997,4.1097,4.1299,4.1299,4.1299,4.1299,4.1299,4.1299,4.1299,4.1299,4.1299,4.1299,4.1299,4.1611,4.2029,4.216,4.25,4.2944,4.352,4.3807,4.399,4.4408,4.4616,4.4695,4.4695,4.4616,4.459,4.4825,4.5637,4.6316,4.6475,4.6839,4.7124,4.7124,4.6787,4.6658,4.7046,4.702,4.6941,4.6941,4.6941,4.697,4.7027,4.7264,4.7607,4.814,4.8323,4.8402,4.8402,4.8507,4.915,5.0416,5.039,5.0887,5.2187,5.1939,5.1815,5.1815,5.2287,5.2485,5.2402,5.2535,5.2775,5.3121,5.3317,5.345,5.3494,5.3543,5.3431,5.3294,5.3247,5.3349,5.3646,5.4107,5.4382,5.4596,5.5545,5.598,5.6197,4.6556,4.6471,4.6401,4.6672,4.6722,4.6873,4.74,4.7983,4.836,4.8309,4.8617,4.8391,4.7224,4.7099,4.6873,4.6351,4.6301,4.6301,4.6301,4.5217,4.4589,4.4589,4.3564,4.2864,4.2587,4.2725,4.2431,4.1704,4.1559,4.1612,4.1892,4.1489,4.1413,4.1669,4.1132,4.0952,4.108,4.0823,4.0871,4.1097,4.1097,4.1199,4.1299,4.1299,4.1299,4.1299,4.1299,4.1299,4.1325,4.1638,4.1951,4.2291,4.284,4.3206,4.3546,4.4121,4.4278,4.433,4.4616,4.4695,4.4695,4.4695,4.493,4.5191,4.5506,4.6029,4.6658,4.7207,4.7519,4.7728,4.7728,4.7492,4.7388,4.7675,4.749,4.7307,4.7307,4.7307,4.7307,4.7307,4.7542,4.7858,4.8146,4.8201,4.8201,4.8201,4.8201,4.8783,5.0086,4.9988,5.0511,5.1819,5.169,5.1727,5.2014,5.2328,5.2675,5.2997,5.2997,5.3155,5.3472,5.3572,5.3705,5.3842,5.3603,5.3623,5.384,5.3623,5.3789,5.4271,5.4724,5.5111,5.5437,5.6061,5.6468,5.6766,4.5373,4.5611,4.5611,4.5611,4.5611,4.6024,4.7234,4.7415,4.7708,4.8535,4.8592,4.8134,4.7199,4.7023,4.6772,4.6351,4.6301,4.6301,4.6301,4.5347,4.469,4.4589,4.3664,4.309,4.3014,4.3014,4.2534,4.1578,4.172,4.1828,4.1904,4.194,4.2021,4.2098,4.1461,4.1181,4.1207,4.0671,4.0593,4.0846,4.0846,4.0946,4.1174,4.1198,4.1223,4.1249,4.1299,4.1376,4.1533,4.2029,4.2317,4.2657,4.3598,4.3964,4.4121,4.4564,4.4695,4.4695,4.4695,4.4773,4.4852,4.4852,4.5296,4.5924,4.6499,4.6658,4.6891,4.7832,4.812,4.8201,4.8201,4.8201,4.8201,4.8201,4.778,4.7438,4.7438,4.7438,4.7438,4.7438,4.7911,4.8201,4.8201,4.8201,4.8201,4.8201,4.8306,4.8799,4.9845,5.0002,5.0524,5.157,5.1596,5.1884,5.2485,5.2589,5.2955,5.353,5.3635,5.3635,5.353,5.3763,5.3999,5.419,5.3768,5.3975,5.4522,5.4117,5.4298,5.4848,5.5298,5.5776,5.621,5.6382,5.6766,5.7206,4.273,4.2761,4.2761,4.2761,4.2761,4.3357,4.5201,4.5455,4.6082,4.7777,4.7631,4.7274,4.7124,4.6672,4.6401,4.6326,4.6301,4.6301,4.6301,4.5723,4.5146,4.4614,4.4016,4.3463,4.3014,4.3014,4.2939,4.2788,4.2338,4.2366,4.2819,4.1863,4.1688,4.2143,4.1084,4.0737,4.0922,4.0389,4.0313,4.0542,4.0542,4.0593,4.0618,4.0871,4.0946,4.0997,4.1198,4.1638,4.2081,4.216,4.284,4.3703,4.386,4.4225,4.459,4.4669,4.4695,4.4695,4.4695,4.5087,4.5478,4.5478,4.595,4.6499,4.7046,4.7176,4.7229,4.7385,4.7832,4.8201,4.8201,4.8201,4.8201,4.8201,4.812,4.8068,4.8068,4.8068,4.8068,4.8068,4.8146,4.8201,4.8201,4.8201,4.8201,4.8201,4.8669,4.9244,4.9845,5.0394,5.0943,5.157,5.1596,5.1884,5.2485,5.3008,5.3556,5.4105,5.4628,5.4602,5.4105,5.4112,5.4164,5.421,5.4125,5.4026,5.3909,5.3847,5.4044,5.4464,5.5408,5.5805,5.5944,5.6779,5.7119,5.7206,4.2042,4.2201,4.2201,4.2201,4.2201,4.2607,4.381,4.4634,4.5423,4.6231,4.7041,4.7299,4.6722,4.6421,4.6301,4.6301,4.6301,4.6175,4.5874,4.5321,4.4744,4.4192,4.3639,4.324,4.3014,4.3014,4.3014,4.3014,4.2763,4.2763,4.2989,4.2484,4.2384,4.2612,4.1808,4.151,4.1569,4.0685,4.0665,4.1128,4.0822,4.1002,4.1413,4.1543,4.1699,4.1879,4.2137,4.2213,4.2291,4.2918,4.3467,4.3964,4.4251,4.4513,4.4695,4.4695,4.4695,4.4773,4.5113,4.54,4.5687,4.6029,4.6525,4.6994,4.7255,4.7542,4.7806,4.7806,4.8015,4.8306,4.8646,4.8695,4.8773,4.9087,4.9139,4.9139,4.9139,4.9139,4.9035,4.875,4.8956,4.8878,4.825,4.8803,4.9038,4.875,4.9247,4.9793,5.0368,5.0655,5.1204,5.2067,5.2093,5.2537,5.3452,5.3713,5.4131,5.4707,5.4968,5.4968,5.4707,5.4707,5.4707,5.468,5.4341,5.4302,5.4518,5.4372,5.4717,5.5359,5.6041,5.6407,5.6628,5.706,5.7206,5.7206]},{"header":{"parameterUnit":"m.s-1","parameterCategory":1,"la1":30.6,"la2":28.766,"lo1":-90.7593,"lo2":-88.6598,"dy":0.0162,"dx":0.0183,"nx":116,"ny":114,"refTime":"2023-03-13T00:00:00:Z","depth":0,"parameterNumber":3,"parameterNumberName":"V-component_of_WINDS"},"data":[0.0,0.0,0.0,0.0,0.0,0.0,0.0,0.0,0.0,0.0,0.0,0.0,0.0,0.0,0.0,0.0,0.0,0.0,0.0,0.0,0.0,0.0,0.0,0.0,0.0,0.0,0.0,0.0,0.0,0.0,0.0,0.0,0.0,0.0,0.0,0.0,0.0,0.0,0.0,0.0,0.0,0.0,0.0,0.0,0.0,0.0,0.0,0.0,0.0,0.0,0.0,0.0,0.0,0.0,0.0,0.0,0.0,0.0,0.0,0.0,0.0,0.0,0.0,0.0,0.0,0.0,0.0,0.0,0.0,0.0,0.0,0.0,0.0,0.0,0.0,0.0,0.0,0.0,0.0,0.0,0.0,0.0,0.0,0.0,0.0,0.0,0.0,0.0,0.0,0.0,0.0,0.0,0.0,0.0,0.0,0.0,0.0,0.0,0.0,0.0,0.0,0.0,0.0,0.0,0.0,0.0,0.0,0.0,0.0,0.0,0.0,0.0,0.0,0.0,0.0,0.0,0.0,0.0,0.0,0.0,0.0,0.0,0.0,0.0,0.0,0.0,0.0,0.0,0.0,0.0,0.0,0.0,0.0,0.0,0.0,0.0,0.0,0.0,0.0,0.0,0.0,0.0,0.0,0.0,0.0,0.0,0.0,0.0,0.0,0.0,0.0,0.0,0.0,0.0,0.0,0.0,0.0,0.0,0.0,0.0,0.0,0.0,0.0,0.0,0.0,0.0,0.0,0.0,0.0,0.0,0.0,0.0,0.0,0.0,0.0,0.0,0.0,0.0,0.0,0.0,0.0,0.0,0.0,0.0,0.0,0.0,0.0,0.0,0.0,0.0,0.0,0.0,0.0,0.0,0.0,0.0,0.0,0.0,0.0,0.0,0.0,0.0,0.0,0.0,0.0,0.0,0.0,0.0,0.0,0.0,0.0,0.0,0.0,0.0,0.0,0.0,0.0,0.0,0.0,0.0,0.0,0.0,0.0,0.0,0.0,0.0,0.0,0.0,0.0,0.0,0.0,0.0,0.0,0.0,0.0,0.0,0.0,0.0,0.0,0.0,0.0,0.0,0.0,0.0,0.0,0.0,0.0,0.0,0.0,0.0,0.0,0.0,0.0,0.0,0.0,0.0,0.0,0.0,0.0,0.0,0.0,0.0,0.0,0.0,0.0,0.0,0.0,0.0,0.0,0.0,0.0,0.0,0.0,0.0,0.0,0.0,0.0,0.0,0.0,0.0,0.0,0.0,0.0,0.0,0.0,0.0,0.0,0.0,0.0,0.0,0.0,0.0,0.0,0.0,0.0,0.0,0.0,0.0,0.0,0.0,0.0,0.0,0.0,0.0,0.0,0.0,0.0,0.0,0.0,0.0,0.0,0.0,0.0,0.0,0.0,0.0,0.0,0.0,0.0,0.0,0.0,0.0,0.0,0.0,0.0,0.0,0.0,0.0,0.0,0.0,0.0,0.0,0.0,0.0,0.0,0.0,0.0,0.0,0.0,0.0,0.0,0.0,0.0,0.0,0.0,0.0,0.0,0.0,0.0,0.0,0.0,0.0,0.0,0.0,0.0,0.0,0.0,0.0,0.0,0.0,0.0,0.0,0.0,0.0,0.0,0.0,0.0,0.0,0.0,0.0,0.0,0.0,0.0,0.0,0.0,0.0,0.0,0.0,0.0,0.0,0.0,0.0,0.0,0.0,0.0,0.0,0.0,0.0,0.0,0.0,0.0,0.0,0.0,0.0,0.0,0.0,0.0,0.0,0.0,0.0,0.0,0.0,0.0,0.0,0.0,0.0,0.0,0.0,0.0,0.0,0.0,0.0,0.0,0.0,0.0,0.0,0.0,0.0,0.0,0.0,0.0,0.0,0.0,0.0,0.0,0.0,0.0,0.0,0.0,0.0,0.0,0.0,0.0,0.0,0.0,0.0,0.0,0.0,0.0,0.0,0.0,0.0,0.0,0.0,0.0,0.0,0.0,0.0,0.0,0.0,0.0,0.0,0.0,0.0,0.0,0.0,0.0,0.0,0.0,0.0,0.0,0.0,0.0,0.0,0.0,0.0,0.0,0.0,0.0,0.0,0.0,0.0,0.0,0.0,0.0,0.0,0.0,0.0,0.0,0.0,0.0,0.0,0.0,0.0,0.0,0.0,0.0,0.0,0.0,0.0,0.0,0.0,0.0,0.0,0.0,0.0,0.0,0.0,0.0,0.0,0.0,0.0,0.0,0.0,0.0,0.0,0.0,0.0,0.0,0.0,0.0,0.0,0.0,0.0,0.0,0.0,0.0,0.0,0.0,0.0,0.0,0.0,0.0,0.0,0.0,0.0,0.0,0.0,0.0,0.0,0.0,0.0,0.0,0.0,0.0,0.0,0.0,0.0,0.0,0.0,0.0,0.0,0.0,0.0,0.0,0.0,0.0,0.0,0.0,0.0,0.0,0.0,0.0,0.0,0.0,0.0,0.0,0.0,0.0,0.0,0.0,0.0,0.0,0.0,0.0,0.0,0.0,0.0,0.0,0.0,0.0,0.0,0.0,0.0,0.0,0.0,0.0,0.0,0.0,0.0,0.0,0.0,0.0,0.0,0.0,0.0,0.0,0.0,0.0,0.0,0.0,0.0,0.0,0.0,0.0,0.0,0.0,0.0,0.0,0.0,0.0,0.0,0.0,0.0,0.0,0.0,0.0,0.0,0.0,0.0,0.0,0.0,0.0,0.0,0.0,0.0,0.0,0.0,0.0,0.0,0.0,0.0,0.0,0.0,0.0,0.0,0.0,0.0,0.0,0.0,0.0,0.0,0.0,0.0,0.0,0.0,0.0,0.0,0.0,0.0,0.0,0.0,0.0,0.0,0.0,0.0,0.0,0.0,0.0,0.0,0.0,0.0,0.0,0.0,0.0,0.0,0.0,0.0,0.0,0.0,0.0,0.0,0.0,0.0,0.0,0.0,0.0,0.0,0.0,0.0,0.0,0.0,0.0,0.0,0.0,0.0,0.0,0.0,0.0,0.0,0.0,0.0,0.0,0.0,0.0,0.0,0.0,0.0,0.0,0.0,0.0,0.0,0.0,0.0,0.0,0.0,0.0,0.0,0.0,0.0,0.0,0.0,0.0,0.0,0.0,0.0,0.0,0.0,0.0,0.0,0.0,0.0,0.0,0.0,0.0,0.0,0.0,0.0,0.0,0.0,0.0,0.0,0.0,0.0,0.0,0.0,0.0,0.0,0.0,0.0,0.0,0.0,0.0,0.0,0.0,0.0,0.0,0.0,0.0,0.0,0.0,0.0,0.0,0.0,0.0,0.0,0.0,0.0,0.0,0.0,0.0,0.0,0.0,0.0,0.0,0.0,0.0,0.0,0.0,0.0,0.0,0.0,0.0,0.0,0.0,0.0,0.0,0.0,0.0,0.0,0.0,0.0,0.0,0.0,0.0,0.0,0.0,0.0,0.0,0.0,0.0,0.0,0.0,0.0,0.0,0.0,0.0,0.0,0.0,0.0,0.0,0.0,0.0,0.0,0.0,0.0,0.0,0.0,0.0,0.0,0.0,0.0,0.0,0.0,0.0,0.0,0.0,0.0,0.0,0.0,0.0,0.0,0.0,0.0,0.0,0.0,0.0,0.0,0.0,0.0,0.0,0.0,0.0,0.0,0.0,0.0,0.0,0.0,0.0,0.0,0.0,0.0,0.0,0.0,0.0,0.0,0.0,0.0,0.0,0.0,0.0,0.0,0.0,0.0,0.0,0.0,0.0,0.0,0.0,0.0,0.0,0.0,0.0,0.0,0.0,0.0,0.0,0.0,0.0,0.0,0.0,0.0,0.0,0.0,0.0,0.0,0.0,0.0,0.0,0.0,0.0,0.0,0.0,0.0,0.0,0.0,0.0,0.0,0.0,0.0,0.0,0.0,0.0,0.0,0.0,0.0,0.0,0.0,0.0,0.0,0.0,0.0,0.0,0.0,0.0,0.0,0.0,0.0,0.0,0.0,0.0,0.0,0.0,0.0,0.0,0.0,0.0,0.0,0.0,0.0,0.0,0.0,0.0,0.0,0.0,0.0,0.0,0.0,0.0,0.0,0.0,0.0,0.0,0.0,0.0,0.0,0.0,0.0,0.0,0.0,0.0,0.0,0.0,0.0,0.0,0.0,0.0,0.0,0.0,0.0,0.0,0.0,0.0,0.0,0.0,0.0,0.0,0.0,0.0,0.0,0.0,0.0,0.0,0.0,0.0,0.0,0.0,0.0,0.0,0.0,0.0,0.0,0.0,0.0,0.0,0.0,0.0,0.0,0.0,0.0,0.0,0.0,0.0,0.0,0.0,0.0,0.0,0.0,0.0,0.0,0.0,0.0,0.0,0.0,0.0,0.0,0.0,0.0,0.0,0.0,0.0,0.0,0.0,0.0,0.0,0.0,0.0,0.0,0.0,0.0,0.0,0.0,0.0,0.0,0.0,0.0,0.0,0.0,0.0,0.0,0.0,0.0,0.0,0.0,0.0,0.0,0.0,0.0,0.0,0.0,0.0,0.0,0.0,0.0,0.0,0.0,0.0,0.0,0.0,0.0,0.0,0.0,0.0,0.0,0.0,0.0,0.0,0.0,0.0,0.0,0.0,0.0,0.0,0.0,0.0,0.0,0.0,0.0,0.0,0.0,0.0,0.0,0.0,0.0,0.0,0.0,0.0,0.0,0.0,0.0,0.0,0.0,0.0,0.0,0.0,0.0,0.0,0.0,0.0,0.0,0.0,0.0,0.0,0.0,0.0,0.0,0.0,0.0,0.0,0.0,0.0,0.0,0.0,0.0,0.0,0.0,0.0,0.0,0.0,0.0,0.0,0.0,0.0,0.0,0.0,0.0,0.0,0.0,0.0,0.0,0.0,0.0,0.0,0.0,0.0,0.0,0.0,0.0,0.0,0.0,0.0,0.0,0.0,0.0,0.0,0.0,0.0,0.0,0.0,0.0,0.0,0.0,0.0,0.0,0.0,0.0,0.0,0.0,0.0,0.0,0.0,0.0,0.0,0.0,0.0,0.0,0.0,0.0,0.0,0.0,0.0,0.0,0.0,0.0,0.0,0.0,0.0,0.0,0.0,0.0,0.0,0.0,0.0,0.0,0.0,0.0,0.0,0.0,0.0,0.0,0.0,0.0,0.0,0.0,0.0,0.0,0.0,0.0,0.0,0.0,0.0,0.0,0.0,0.0,0.0,0.0,0.0,0.0,0.0,0.0,0.0,0.0,0.0,0.0,0.0,0.0,0.0,0.0,0.0,0.0,0.0,0.0,0.0,0.0,0.0,0.0,0.0,0.0,0.0,0.0,0.0,0.0,0.0,0.0,0.0,0.0,0.0,0.0,0.0,0.0,0.0,0.0,0.0,0.0,0.0,0.0,0.0,0.0,0.0,0.0,0.0,0.0,0.0,0.0,0.0,0.0,0.0,0.0,0.0,0.0,0.0,0.0,0.0,0.0,0.0,0.0,0.0,0.0,0.0,0.0,0.0,0.0,0.0,0.0,0.0,0.0,0.0,0.0,0.0,0.0,0.0,0.0,0.0,0.0,0.0,0.0,0.0,0.0,0.0,0.0,0.0,0.0,0.0,0.0,0.0,0.0,0.0,0.0,0.0,0.0,0.0,0.0,0.0,0.0,0.0,0.0,0.0,0.0,0.0,0.0,0.0,0.0,0.0,0.0,0.0,0.0,0.0,0.0,0.0,0.0,0.0,0.0,0.0,0.0,0.0,0.0,0.0,0.0,0.0,0.0,0.0,0.0,0.0,0.0,0.0,0.0,0.0,0.0,0.0,0.0,0.0,0.0,0.0,0.0,0.0,0.0,0.0,0.0,0.0,0.0,0.0,0.0,0.0,0.0,0.0,0.0,0.0,0.0,0.0,0.0,0.0,0.0,0.0,0.0,0.0,0.0,0.0,0.0,0.0,0.0,0.0,0.0,0.0,0.0,0.0,0.0,0.0,0.0,0.0,0.0,0.0,0.0,0.0,0.0,0.0,0.0,0.0,0.0,0.0,0.0,0.0,0.0,0.0,0.0,0.0,0.0,0.0,0.0,0.0,0.0,0.0,0.0,0.0,0.0,0.0,0.0,0.0,0.0,0.0,0.0,2.2924,0.0,0.0,0.0,0.0,0.0,0.0,0.0,0.0,0.0,0.0,0.0,0.0,0.0,0.0,0.0,0.0,0.0,0.0,0.0,0.0,0.0,0.0,0.0,0.0,0.0,0.0,0.0,0.0,0.0,0.0,0.0,0.0,0.0,0.0,0.0,0.0,0.0,0.0,0.0,2.4535,2.53,2.5942,2.6183,2.5605,2.4438,0.0,0.0,0.0,0.0,0.0,0.0,0.0,0.0,0.0,0.0,0.0,0.0,0.0,0.0,0.0,0.0,0.0,0.0,0.0,0.0,0.0,0.0,0.0,0.0,0.0,0.0,0.0,0.0,0.0,0.0,0.0,0.0,0.0,0.0,0.0,0.0,0.0,0.0,0.0,0.0,0.0,0.0,0.0,0.0,0.0,0.0,0.0,0.0,0.0,0.0,0.0,0.0,0.0,0.0,0.0,0.0,0.0,0.0,0.0,0.0,0.0,0.0,0.0,0.0,0.0,0.0,0.0,0.0,0.0,0.0,0.0,2.3822,0.0,0.0,0.0,0.0,0.0,0.0,0.0,0.0,0.0,0.0,0.0,0.0,0.0,0.0,0.0,0.0,0.0,0.0,0.0,0.0,0.0,0.0,0.0,0.0,0.0,0.0,0.0,0.0,0.0,0.0,0.0,0.0,0.0,0.0,0.0,0.0,0.0,2.5891,2.6583,2.7653,2.9164,3.0932,3.0321,2.7792,2.7495,0.0,0.0,0.0,0.0,0.0,0.0,0.0,0.0,0.0,0.0,0.0,0.0,0.0,0.0,0.0,0.0,0.0,0.0,0.0,0.0,0.0,0.0,0.0,0.0,0.0,0.0,0.0,0.0,0.0,0.0,0.0,0.0,0.0,0.0,0.0,0.0,0.0,0.0,0.0,0.0,0.0,0.0,0.0,0.0,0.0,0.0,0.0,0.0,0.0,0.0,0.0,0.0,0.0,0.0,0.0,0.0,0.0,0.0,0.0,0.0,0.0,0.0,0.0,0.0,0.0,3.3477,3.3813,3.4246,3.4414,2.9525,2.7377,2.7244,0.0,0.0,0.0,0.0,0.0,0.0,0.0,0.0,0.0,0.0,0.0,0.0,0.0,0.0,0.0,0.0,0.0,0.0,0.0,0.0,0.0,0.0,0.0,0.0,0.0,0.0,0.0,0.0,0.0,0.0,0.0,0.0,0.0,0.0,2.5342,2.573,2.5891,2.9214,3.2061,3.4415,3.5798,3.6142,3.5499,3.1169,2.9806,3.0644,0.0,0.0,0.0,0.0,0.0,0.0,0.0,0.0,0.0,0.0,0.0,0.0,0.0,0.0,0.0,0.0,0.0,0.0,0.0,0.0,0.0,0.0,0.0,0.0,0.0,0.0,0.0,0.0,0.0,0.0,0.0,0.0,0.0,0.0,0.0,0.0,0.0,0.0,0.0,0.0,0.0,2.631,2.6844,0.0,0.0,0.0,0.0,0.0,0.0,0.0,0.0,0.0,0.0,0.0,0.0,0.0,0.0,3.3285,3.4655,3.5425,3.5593,3.6677,3.7206,3.7278,3.6867,3.6964,3.7397,3.6183,0.0,3.0601,2.9744,0.0,0.0,0.0,0.0,0.0,0.0,0.0,0.0,0.0,0.0,0.0,0.0,0.0,0.0,0.0,0.0,0.0,0.0,0.0,0.0,0.0,0.0,0.0,0.0,0.0,0.0,0.0,0.0,0.0,0.0,0.0,2.5395,2.6008,2.6593,2.7983,3.0164,3.3636,3.6083,3.7553,3.8463,3.8861,3.8725,3.6132,3.4289,3.2995,3.1803,0.0,0.0,0.0,0.0,0.0,0.0,0.0,0.0,0.0,0.0,0.0,0.0,0.0,0.0,0.0,0.0,0.0,0.0,0.0,0.0,0.0,0.0,0.0,0.0,0.0,0.0,0.0,0.0,0.0,0.0,0.0,0.0,0.0,0.0,0.0,0.0,0.0,0.0,0.0,2.7181,2.7873,2.7806,2.8334,2.8454,0.0,0.0,0.0,0.0,0.0,0.0,0.0,0.0,0.0,3.3909,3.4438,3.5352,3.6673,3.7709,3.8503,3.9104,3.9901,4.0523,4.11,4.1144,4.1312,4.1528,4.1288,3.9894,3.7521,3.4462,3.2023,3.0192,0.0,0.0,0.0,0.0,0.0,0.0,0.0,0.0,0.0,0.0,0.0,0.0,0.0,0.0,0.0,0.0,0.0,0.0,0.0,0.0,0.0,2.6415,0.0,0.0,0.0,0.0,0.0,0.0,0.0,2.6412,2.7031,2.8454,3.1003,3.4707,3.7709,3.9799,4.0931,4.1541,4.1918,4.2034,4.1424,3.9236,3.5953,3.4523,3.3266,3.2153,0.0,0.0,0.0,0.0,0.0,0.0,0.0,0.0,0.0,0.0,0.0,0.0,0.0,0.0,0.0,0.0,0.0,0.0,0.0,0.0,0.0,0.0,0.0,0.0,0.0,0.0,0.0,0.0,0.0,0.0,0.0,0.0,0.0,0.0,0.0,0.0,0.0,2.8502,2.9412,2.8619,2.9917,3.0374,0.0,0.0,0.0,0.0,0.0,0.0,3.3621,3.4198,3.5449,3.7565,3.7878,3.8815,4.0399,4.1071,4.1894,4.2808,4.3367,4.4089,4.4948,4.5205,4.5325,4.5325,4.5181,4.4436,4.3054,3.8503,3.5569,3.3861,3.3452,3.2971,0.0,3.2159,3.1995,3.1849,0.0,0.0,0.0,0.0,0.0,0.0,0.0,0.0,0.0,0.0,0.0,0.0,0.0,0.0,2.9857,3.0868,3.1324,3.1723,0.0,0.0,2.7481,2.851,2.7385,2.7045,2.7641,3.1307,3.4765,3.797,4.0612,4.3166,4.5598,4.6162,4.6801,4.7399,4.6714,4.4313,4.0514,3.6849,3.5932,3.6639,3.2941,0.0,0.0,0.0,0.0,0.0,0.0,0.0,0.0,0.0,0.0,0.0,0.0,0.0,0.0,0.0,0.0,0.0,0.0,0.0,0.0,0.0,0.0,0.0,0.0,0.0,0.0,0.0,0.0,0.0,0.0,0.0,0.0,0.0,0.0,0.0,0.0,0.0,0.0,2.8671,3.124,0.0,0.0,0.0,0.0,3.3693,3.427,3.5256,3.6867,3.7471,3.877,4.0884,4.1947,4.3216,4.4772,4.5806,4.6631,4.7185,4.7714,4.83,4.8806,4.8315,4.8098,4.805,4.7569,4.6463,4.47,4.0956,3.8743,3.7591,3.605,3.5111,3.4655,3.463,3.4402,3.4055,0.0,0.0,0.0,0.0,0.0,0.0,0.0,0.0,0.0,0.0,0.0,0.0,0.0,3.0665,3.3569,3.4501,3.6888,3.7538,3.5591,0.0,3.1979,3.1191,2.952,2.9679,3.1974,3.5386,3.8725,4.1918,4.4523,4.6417,4.7724,4.8362,4.8362,4.7805,4.7961,4.6801,4.4538,4.1134,3.8783,3.7099,3.491,3.3267,0.0,0.0,0.0,0.0,0.0,0.0,0.0,0.0,0.0,0.0,0.0,0.0,0.0,0.0,0.0,0.0,0.0,0.0,0.0,0.0,0.0,0.0,0.0,0.0,0.0,0.0,0.0,0.0,0.0,0.0,0.0,0.0,0.0,0.0,0.0,0.0,0.0,3.3573,3.6122,0.0,0.0,3.5905,3.6338,3.7034,3.7899,3.9104,4.072,4.1605,4.3018,4.5188,4.5621,4.6415,4.7666,4.805,4.8339,4.8507,4.87,4.8892,4.9119,4.9263,4.9143,4.883,4.8998,4.8507,4.7545,4.5886,4.3361,4.0527,3.995,3.9176,3.8455,3.8791,3.8625,3.8262,0.0,0.0,0.0,0.0,0.0,0.0,0.0,0.0,0.0,0.0,0.0,2.7387,2.9823,3.4475,3.8,3.9351,4.1269,4.1365,3.8956,0.0,3.4068,3.2584,3.1481,3.2513,3.592,3.9189,4.2498,4.5924,4.7863,4.9204,5.0017,5.0042,4.9693,4.9088,4.9291,4.8798,4.7613,4.5314,4.2353,3.9044,3.6914,3.5549,3.4528,0.0,0.0,0.0,0.0,0.0,0.0,0.0,0.0,0.0,0.0,0.0,0.0,0.0,0.0,0.0,0.0,0.0,0.0,0.0,0.0,0.0,0.0,0.0,0.0,0.0,0.0,0.0,0.0,0.0,0.0,0.0,0.0,0.0,0.0,0.0,3.6529,3.6892,3.9777,4.1172,3.9753,3.9922,4.0427,4.1144,4.2038,4.3289,4.51,4.5477,4.6623,4.8772,4.8676,4.9012,4.9878,4.9902,4.9902,4.9913,4.971,4.9806,5.0202,5.0178,5.0081,4.9902,5.007,4.9889,4.9359,4.8998,4.7097,4.4354,4.38,4.2928,4.2038,4.2399,4.2303,4.2014,0.0,0.0,0.0,0.0,0.0,0.0,0.0,0.0,0.0,0.0,2.6684,3.0884,3.3768,3.89,4.3063,4.5383,4.404,4.2789,4.2179,3.674,3.3284,3.2642,3.3313,3.5462,3.9334,4.2528,4.6011,4.9818,5.0481,5.1436,5.2626,5.1407,5.112,5.1617,5.1062,5.0448,4.9751,4.9088,4.6627,4.2905,3.9044,3.8173,3.8812,0.0,0.0,0.0,0.0,0.0,0.0,0.0,0.0,0.0,0.0,0.0,0.0,0.0,0.0,0.0,0.0,0.0,0.0,0.0,0.0,0.0,0.0,0.0,0.0,0.0,0.0,0.0,0.0,0.0,0.0,0.0,0.0,0.0,3.2004,3.6436,3.9393,3.8457,4.1961,4.3715,4.1725,4.333,4.4941,4.5998,4.6583,4.7762,4.9841,4.9022,4.9373,5.1441,5.1032,5.1008,5.1513,5.1513,5.1513,5.1513,5.1008,5.1297,5.2235,5.1225,5.1032,5.1465,5.096,5.0407,4.9913,4.9913,4.9624,4.8964,4.7401,4.6118,4.5181,4.5181,4.5157,4.5061,0.0,0.0,0.0,0.0,0.0,0.0,0.0,0.0,2.2623,0.0,2.8424,3.2608,3.5499,4.1035,4.5327,4.7292,4.5574,4.3942,4.2818,0.0,3.4997,3.5224,3.678,3.9673,4.395,4.6272,4.9064,5.2459,5.3123,5.3646,5.3994,5.4081,5.3704,5.2981,5.3326,5.2833,5.1755,5.1091,4.9959,4.8154,4.334,4.0786,3.9625,0.0,0.0,0.0,0.0,0.0,0.0,0.0,0.0,0.0,0.0,0.0,0.0,0.0,0.0,0.0,0.0,0.0,0.0,0.0,0.0,0.0,0.0,0.0,0.0,0.0,0.0,0.0,0.0,0.0,0.0,0.0,0.0,3.6919,3.634,4.0162,4.3619,4.5261,4.7521,4.9036,4.9239,4.906,4.9229,4.9902,5.0095,5.0431,5.1008,5.1525,5.1886,5.2067,5.2283,5.2307,5.2067,5.2067,5.2067,5.2103,5.1922,5.1994,5.232,5.197,5.173,5.1489,5.1345,5.096,5.0479,5.0479,5.0383,5.0143,4.8916,4.7786,4.6848,4.6848,4.6335,4.5662,0.0,0.0,0.0,0.0,0.0,0.0,0.0,0.0,2.2805,2.5002,2.9887,3.4498,3.8006,4.2986,4.6681,4.826,4.601,4.3747,4.1889,3.8018,3.6304,3.7476,4.0118,4.3573,4.7834,5.0046,5.2575,5.5533,5.562,5.5823,5.6084,5.591,5.5562,5.5097,5.5215,5.472,5.3759,5.3355,5.2688,5.1585,4.8328,4.5692,4.3485,4.1424,4.0109,3.9208,3.8057,3.7593,3.7189,3.5035,0.0,0.0,0.0,0.0,0.0,0.0,0.0,0.0,0.0,0.0,0.0,0.0,0.0,0.0,0.0,0.0,0.0,0.0,0.0,0.0,0.0,0.0,0.0,0.0,3.911,4.1364,4.2477,4.4756,4.7161,4.9373,5.084,5.1922,5.2584,5.2043,5.1826,5.2175,5.2355,5.2572,5.2788,5.3173,5.3437,5.3582,5.3678,5.3558,5.3269,5.3029,5.2932,5.2908,5.2475,5.2499,5.2908,5.2475,5.2235,0.0,5.1682,5.1321,5.1008,5.0792,5.0696,0.0,0.0,0.0,0.0,0.0,4.7305,4.6559,0.0,0.0,0.0,0.0,0.0,0.0,0.0,0.0,2.2762,2.5781,3.1046,3.611,4.0314,4.4256,4.712,4.8484,4.5663,4.2731,4.0263,3.7999,3.7738,3.9973,4.3573,4.7341,5.1145,5.3675,5.6084,5.8406,5.7826,5.7826,5.8406,5.7274,5.7013,5.7507,5.6984,5.6374,5.5736,5.5736,5.501,5.3791,5.3265,5.1381,4.86,4.575,4.4821,4.4879,4.3137,4.1453,3.9915,3.9044,0.0,0.0,0.0,0.0,0.0,0.0,0.0,0.0,0.0,0.0,0.0,0.0,0.0,0.0,0.0,0.0,0.0,0.0,0.0,0.0,0.0,0.0,0.0,0.0,4.2768,4.568,4.9115,4.96,5.0154,5.1513,5.2584,5.321,5.3282,5.3234,5.321,5.3282,5.3606,5.4015,5.4496,0.0,0.0,0.0,0.0,5.4688,5.4688,5.4231,5.3966,5.3894,5.3029,5.3053,5.3798,5.2932,5.2729,5.2969,5.1994,5.1513,5.1369,5.0912,5.0696,5.0696,5.0624,5.0311,4.9769,4.871,4.8002,0.0,0.0,0.0,0.0,0.0,0.0,0.0,0.0,0.0,2.3922,2.6895,3.1488,3.577,3.9037,4.2912,4.5982,4.7834,4.4589,4.1773,4.0205,3.9625,4.1163,4.5147,4.8043,5.1145,5.4429,5.652,5.8087,5.9103,5.8987,5.8987,5.9103,5.8842,5.8813,5.89,5.8784,5.8377,5.7739,5.7739,5.7013,5.5852,5.5707,5.35,5.0187,4.9059,4.77,4.6308,4.5459,4.5256,4.5002,4.2818,4.2092,4.1723,3.9372,0.0,0.0,0.0,0.0,0.0,0.0,0.0,0.0,0.0,0.0,0.0,0.0,0.0,0.0,0.0,0.0,0.0,0.0,0.0,0.0,4.386,4.6192,4.871,5.2235,5.2803,5.286,5.2801,5.3293,5.3846,5.4279,5.3918,5.3846,5.4279,5.3991,5.387,5.3966,5.4279,0.0,5.476,5.5073,5.5241,5.5241,5.5145,5.488,5.4447,0.0,0.0,5.3822,5.4063,5.3534,5.2464,5.2247,5.1634,5.084,5.0744,5.0696,5.0648,5.0215,5.0009,4.9769,4.871,4.8219,4.805,0.0,0.0,0.0,0.0,0.0,0.0,0.0,0.0,2.3641,2.7237,3.0828,3.4233,3.731,4.0276,4.2179,4.2498,4.0495,3.945,4.006,4.1599,4.4501,4.9006,5.1672,5.44,5.7303,5.861,5.9568,6.0264,6.0264,6.0264,6.0264,6.0264,6.0264,6.0264,6.0264,5.9887,5.9248,5.9248,5.8726,5.7855,5.7855,5.652,5.4313,5.2717,5.1501,5.0573,4.993,4.9291,4.8508,4.6905,4.5924,4.5082,4.3108,4.094,3.8819,0.0,0.0,0.0,0.0,0.0,0.0,0.0,0.0,0.0,0.0,0.0,0.0,0.0,0.0,3.6085,0.0,0.0,4.3631,4.7125,4.9444,5.1675,5.4146,5.432,5.4207,5.4231,5.4231,5.4423,5.4952,5.4279,5.3918,5.4183,5.4207,5.4207,5.4207,5.4712,5.5121,5.5371,5.5409,5.565,5.6203,5.5674,5.5409,5.5371,5.5145,5.4736,5.4207,5.3942,5.3413,5.268,5.2115,5.1586,5.1081,5.0816,5.0696,5.0672,5.0383,5.0154,4.9841,4.9311,4.8748,4.8243,0.0,0.0,0.0,0.0,0.0,0.0,0.0,0.0,0.0,2.7096,2.9728,3.2343,3.5247,3.7186,3.7825,3.6664,3.6867,3.8115,4.0699,4.3979,4.784,5.2343,5.4865,5.7216,5.9422,6.009,6.0642,6.1193,6.1193,6.1193,6.1193,6.1193,6.1193,6.1193,6.1193,6.0903,6.038,6.038,6.0032,5.948,5.948,5.9161,5.8435,5.6113,5.5097,5.4807,5.4084,5.2514,5.0622,5.0216,4.8798,4.7004,4.6098,4.485,4.3166,4.0205,3.9185,0.0,0.0,0.0,0.0,0.0,0.0,0.0,0.0,0.0,3.4123,3.6185,3.7814,3.9671,4.2404,4.489,4.7433,5.0225,5.243,5.4206,5.5376,5.5164,5.5043,5.5337,5.4832,5.4616,5.5049,5.4327,5.3785,5.3785,5.4207,5.4447,5.4447,5.4856,5.5337,5.5851,5.5482,5.5722,5.6684,5.5938,5.5674,5.5875,5.5202,5.476,5.4423,5.3606,5.3138,5.2897,5.1802,5.1345,5.1297,5.0888,5.0696,5.0696,5.0696,5.0431,5.0057,4.9937,4.9359,4.8613,0.0,0.0,0.0,0.0,0.0,0.0,0.0,0.0,0.0,2.6589,2.8693,3.0675,3.2686,3.4121,3.4661,3.3981,3.7466,4.0786,4.3398,4.7085,5.1153,5.5678,5.7797,5.9248,6.009,6.0758,6.1106,6.1193,6.1193,6.1193,6.1193,6.1193,6.1193,6.1193,6.1193,6.1164,6.1077,6.1077,6.07,6.009,6.009,6.0061,5.9829,5.8406,5.7187,5.6113,5.5445,5.3239,5.0768,5.1236,5.0109,4.8571,4.9025,4.7869,4.5988,4.395,0.0,3.8544,3.5655,3.3993,3.3342,3.4251,3.4324,3.4817,0.0,0.0,3.8642,4.0324,4.276,4.5121,4.6867,4.88,5.101,5.3786,5.5016,5.5677,5.5891,5.5939,5.58,5.5424,5.452,5.3918,5.3953,5.3857,5.3785,5.3785,5.387,5.3918,5.3918,5.3966,5.4231,5.476,5.4736,5.4977,5.5578,5.5923,5.5635,5.4808,5.5611,5.5251,5.3918,5.3798,5.3245,5.2344,5.1249,5.0792,5.0792,5.072,5.0696,5.0696,5.0696,5.0672,5.0551,5.0081,4.9817,4.9648,0.0,0.0,0.0,0.0,0.0,0.0,0.0,0.0,0.0,0.0,0.0,2.9172,3.0636,3.1307,3.1671,3.1818,3.5549,3.945,4.3166,4.8072,5.2807,5.7303,5.8987,6.0119,6.0758,6.1048,6.1193,6.1193,6.1193,6.1193,6.1193,6.1193,6.1193,6.1193,6.1193,6.1193,6.1193,6.1193,6.1048,6.0787,6.0787,6.0787,6.0671,5.9742,5.7913,5.5649,5.4255,5.2452,0.0,0.0,4.964,4.9407,5.0071,4.8682,4.6511,4.4966,4.2498,0.0,3.7469,3.6721,3.6715,0.0,3.7992,3.9259,4.1411,4.1841,4.2484,4.5121,4.7355,4.9364,5.0971,5.2475,5.3747,0.0,5.5719,5.6263,5.6129,5.5873,5.5482,5.4977,5.4279,5.3942,5.4255,5.3991,5.3785,5.3785,5.3785,5.3785,5.3785,5.3785,5.4063,5.4592,5.4616,5.5025,5.5866,5.6068,5.5972,5.5515,5.5972,5.5515,5.4255,5.3654,5.2644,5.1345,5.0888,5.0696,5.0696,5.0696,5.0696,5.0696,5.0696,5.0696,5.0672,5.0431,5.0178,4.9817,0.0,0.0,0.0,0.0,0.0,0.0,0.0,0.0,0.0,0.0,0.0,0.0,0.0,2.9508,2.9798,3.0277,3.3674,3.7767,4.244,4.7985,5.3152,5.7826,5.9422,6.0496,6.1193,6.1193,6.1193,6.1193,6.1193,6.1193,6.1193,6.1193,6.1193,6.1193,6.1193,6.1193,6.1193,6.1193,6.1193,6.1193,6.1193,6.099,6.0526,5.9335,5.6897,5.3936,5.2772,5.0826,4.8677,0.0,4.7346,4.7718,4.8386,4.7404,4.5814,4.4705,4.2557,4.0289,3.8948,3.9271,0.0,4.0715,4.2499,4.4461,4.5869,4.6223,4.7013,4.9812,5.1381,5.2678,5.431,5.5164,5.5624,5.5584,5.6384,5.6805,5.6221,5.5805,5.525,5.4317,5.3582,5.3317,5.3702,5.3798,5.3833,5.4015,5.3894,5.3785,5.3785,5.3929,5.4207,5.4592,5.4736,5.5193,5.5947,5.5972,5.5938,5.5755,5.5755,5.5251,5.4351,5.3317,5.2139,5.0912,5.0768,5.0696,5.0696,5.0696,5.0696,5.0696,5.0696,5.0696,5.0696,5.0696,5.0335,4.9841,0.0,0.0,0.0,0.0,0.0,0.0,0.0,0.0,0.0,0.0,0.0,0.0,0.0,0.0,2.961,2.9624,3.2584,3.6646,4.1773,4.6934,5.2017,5.71,5.9161,6.0496,6.1193,6.1193,6.1193,6.1193,6.1193,6.1193,6.1193,6.1193,6.1193,6.1193,6.1193,6.1193,6.1193,6.1193,6.1193,6.1193,6.1193,6.0467,5.9074,5.652,5.3588,5.0913,5.1439,4.8449,4.4095,0.0,4.2789,4.244,4.3021,4.3652,0.0,4.3274,4.125,0.0,0.0,0.0,4.2643,4.5331,4.7928,5.0125,5.1224,5.191,5.2744,5.4157,5.4471,5.4963,5.6584,5.6483,5.6398,5.7023,5.7656,5.7586,5.6186,5.6051,5.5353,5.3367,5.2187,5.1562,0.0,5.2932,5.4039,5.4544,5.4111,5.3785,5.3785,5.4303,5.4592,5.4616,5.5097,5.5385,5.5409,5.5409,5.5169,5.4664,5.4664,5.4375,5.3798,5.2764,5.1994,5.1441,5.0936,5.0696,5.0696,5.0696,5.0696,5.0696,5.0696,5.0696,5.0696,5.0696,5.0335,4.9913,0.0,0.0,0.0,0.0,0.0,0.0,0.0,0.0,0.0,0.0,0.0,0.0,0.0,0.0,0.0,0.0,3.2441,3.5433,3.9247,4.4298,4.8909,5.2772,5.6345,5.8581,5.9248,6.009,6.0758,6.1193,6.1193,6.1193,6.1193,6.1193,6.1193,6.1193,6.1404,6.1374,6.1223,6.1404,6.1344,6.1077,5.98,5.9016,5.8261,5.4836,5.1265,4.7869,0.0,4.3369,4.0641,0.0,0.0,0.0,4.1279,0.0,0.0,3.887,0.0,0.0,0.0,0.0,4.7972,5.1436,5.3292,5.4556,5.5569,5.5888,5.5673,5.4789,5.4597,5.4547,5.43,5.3648,5.3466,5.4437,5.5448,5.6011,5.5646,5.5872,5.5245,5.2838,5.2584,0.0,0.0,0.0,0.0,5.351,5.3726,5.4135,5.4832,5.5025,5.5289,5.5635,5.5866,5.5923,5.5923,5.6299,5.6011,5.5121,5.4423,5.3822,5.3293,5.2632,5.1802,5.096,5.0792,5.0696,5.0696,5.0696,5.0696,5.0696,5.0696,5.0696,5.0696,5.0696,5.0335,4.9913,0.0,0.0,0.0,0.0,0.0,0.0,0.0,0.0,0.0,0.0,0.0,0.0,0.0,0.0,0.0,0.0,0.0,3.3823,3.7001,4.1183,4.5046,4.8473,5.1864,5.4047,5.4865,5.5581,5.6482,5.756,5.7616,5.8139,5.9043,5.9043,5.9276,5.9655,5.983,6.0005,6.0148,6.0092,5.9568,5.8668,5.6955,5.5416,5.382,5.0448,4.7056,0.0,4.0757,3.8628,3.707,0.0,0.0,0.0,0.0,0.0,0.0,0.0,0.0,0.0,0.0,4.9349,5.2949,5.6578,5.849,5.9609,6.0164,5.9683,5.8514,5.6428,5.5099,5.386,5.2287,5.1204,5.0896,5.1926,5.2883,5.3739,5.4426,5.4733,5.4212,5.226,5.2175,0.0,0.0,0.0,0.0,5.3221,5.3822,5.4471,5.5337,5.5938,5.6347,5.6476,5.6668,5.6668,5.6476,5.6468,5.589,5.4832,5.4327,5.3726,5.309,5.256,5.1802,5.0984,5.0792,5.0696,5.0696,5.0696,5.0696,5.0696,5.0696,5.0696,5.0696,5.0696,5.0479,5.0178,0.0,0.0,0.0,0.0,0.0,0.0,0.0,0.0,0.0,0.0,0.0,0.0,0.0,0.0,0.0,0.0,0.0,0.0,3.4956,3.7582,4.0641,4.432,4.6023,4.7392,4.8449,4.8337,4.9098,5.0881,5.1053,5.2414,5.4848,5.4848,5.5392,5.6349,5.6376,5.6884,5.7767,5.7128,5.5794,5.4052,5.2743,4.9988,4.6424,4.3834,4.1308,3.8812,3.6333,3.4637,0.0,0.0,0.0,0.0,0.0,0.0,0.0,0.0,0.0,4.7027,5.0859,5.4287,5.7536,6.0671,6.3283,6.499,6.4533,6.3072,6.1109,5.8681,5.5755,5.2939,0.0,0.0,4.8793,4.9699,5.0347,5.123,5.2803,5.2987,5.2623,0.0,0.0,0.0,0.0,0.0,0.0,5.375,0.0,5.488,5.5482,5.6997,5.7646,5.7165,5.7598,5.7598,5.7069,5.5987,5.4904,5.387,5.4375,5.4063,5.309,5.256,5.2031,5.1465,5.0936,5.0696,5.0696,5.0696,5.0696,5.0696,5.0696,5.0696,5.0696,5.0696,5.0696,5.0624,0.0,0.0,0.0,0.0,0.0,0.0,0.0,0.0,0.0,0.0,0.0,0.0,0.0,0.0,0.0,0.0,0.0,0.0,3.1731,3.4695,3.7001,3.8434,4.2046,4.4465,4.5317,4.669,4.7944,4.9005,4.9052,4.9398,5.0044,5.0044,5.0196,5.0471,5.0568,5.0652,5.0675,5.0627,5.0179,4.9349,4.7602,4.6272,4.5053,4.2005,3.9857,3.826,3.6635,3.5241,0.0,0.0,0.0,0.0,0.0,3.8667,4.0902,0.0,0.0,5.0975,5.4807,5.8871,6.2498,6.4239,6.5577,6.5712,6.3127,6.2113,6.0223,5.4979,5.2125,4.9665,0.0,0.0,0.0,4.8466,5.0635,0.0,5.452,5.5072,0.0,5.3378,0.0,5.244,5.2295,5.2055,0.0,0.0,5.476,5.5361,5.7093,5.7959,5.8512,5.8776,5.8536,5.8151,5.7622,5.65,5.5482,5.4399,5.4544,5.4063,5.309,5.256,5.2031,5.1465,5.0936,5.0696,5.0696,5.0696,5.0696,5.0696,5.0696,5.0696,5.0696,5.0696,5.0696,5.0624,0.0,0.0,0.0,0.0,0.0,0.0,0.0,0.0,0.0,0.0,0.0,0.0,0.0,0.0,0.0,0.0,0.0,0.0,0.0,3.2383,3.3997,3.4687,3.715,3.8885,3.968,4.0578,4.1842,4.3416,4.3232,4.3865,4.5276,4.4959,4.5242,4.5931,4.6004,4.6366,4.6936,4.6627,4.5924,0.0,0.0,4.1735,4.0486,3.8405,3.7157,3.6431,3.5735,3.5561,0.0,0.0,0.0,3.8725,3.9915,4.2208,4.5082,4.8275,0.0,5.536,5.919,6.2672,6.5519,6.6535,6.6622,6.5672,6.2625,6.0461,5.7505,5.1894,4.8981,0.0,4.2866,0.0,0.0,0.0,0.0,0.0,5.3356,5.4463,5.4684,0.0,5.3991,0.0,5.3774,5.3918,5.4592,0.0,5.5385,5.589,5.8031,5.8656,5.9089,5.9378,5.8872,5.8007,5.6756,5.6155,5.5433,5.4616,5.4616,5.4183,5.3365,5.262,5.2031,5.1465,0.0,5.0696,5.0696,5.0696,5.0696,5.0696,5.0696,5.0696,5.0696,5.0696,5.0696,5.0624,0.0,0.0,0.0,0.0,0.0,0.0,0.0,0.0,0.0,0.0,0.0,0.0,0.0,0.0,0.0,0.0,0.0,0.0,0.0,0.0,3.1704,3.2414,3.2591,3.3022,3.3798,3.3575,3.4577,3.699,3.6559,3.7841,4.0595,4.0008,4.0536,4.1902,4.1873,4.271,4.4036,4.327,4.1989,4.0354,3.9072,3.7233,3.5218,0.0,0.0,3.4382,3.4382,3.5485,3.7273,3.9683,4.0699,4.1366,4.3456,4.665,5.0225,5.3532,5.6636,5.9742,6.3397,6.5751,6.726,6.7754,6.6825,6.5051,6.2238,5.8343,5.3951,4.9145,0.0,4.3133,3.9621,3.9884,4.1181,4.27,0.0,4.8174,5.138,5.2913,5.3834,5.41,5.488,5.5337,5.5145,5.5755,5.65,5.7285,5.6323,5.6564,5.8488,5.9161,5.9426,5.9281,5.8704,5.743,5.5409,5.5385,5.5121,5.4616,5.4616,5.4375,5.3857,5.286,5.2139,5.1658,0.0,0.0,5.0816,5.0744,5.0696,5.0696,5.0696,5.0696,5.0696,5.0696,5.0696,5.06,0.0,0.0,0.0,0.0,0.0,0.0,0.0,0.0,0.0,0.0,2.189,2.3035,0.0,0.0,0.0,0.0,0.0,0.0,0.0,0.0,0.0,3.1128,3.1684,3.2425,3.3369,3.3816,3.4625,0.0,0.0,3.5968,3.6537,3.6417,3.6503,3.6781,3.6599,3.6606,3.674,3.6447,3.6056,3.5595,3.5328,3.498,3.4574,0.0,0.0,0.0,3.4382,3.4615,3.5688,4.0786,4.3892,4.6162,4.9151,5.1994,5.4981,5.8755,6.099,6.2877,6.5635,6.7405,6.8392,6.7986,6.6506,6.4067,5.9916,5.5791,0.0,0.0,4.2791,4.034,3.7658,3.8912,4.1234,4.3918,4.6465,0.0,0.0,0.0,5.4764,0.0,0.0,0.0,0.0,0.0,0.0,0.0,0.0,0.0,5.856,5.9522,5.9642,5.8752,5.779,5.6684,5.5409,5.5385,5.5121,5.4616,5.4616,5.4568,5.4447,5.3413,5.2921,5.2777,0.0,0.0,5.1321,5.0888,5.0696,5.0696,5.0696,5.0696,5.0696,5.0696,5.0696,5.0551,0.0,0.0,0.0,0.0,0.0,0.0,0.0,1.9233,1.9836,2.0954,2.2056,2.3058,2.3991,2.4872,0.0,0.0,0.0,0.0,0.0,0.0,0.0,0.0,0.0,0.0,0.0,0.0,0.0,0.0,0.0,0.0,0.0,0.0,0.0,0.0,0.0,0.0,0.0,3.4798,3.4647,0.0,0.0,0.0,0.0,0.0,0.0,0.0,0.0,3.5253,3.6896,4.0321,4.4298,4.8426,5.1965,5.5329,5.8464,6.1338,6.308,6.4648,6.7202,6.8301,6.8707,6.845,6.5664,6.1797,5.7111,0.0,0.0,0.0,3.8863,3.7082,3.5937,3.7554,0.0,4.1468,4.385,4.6868,5.0779,0.0,0.0,0.0,0.0,0.0,0.0,0.0,0.0,0.0,0.0,0.0,5.9402,5.9642,5.9281,5.8223,5.7125,5.6083,5.5001,5.4977,5.5001,5.5025,5.4736,5.476,5.4977,5.3691,5.2945,5.2656,0.0,0.0,0.0,5.0816,5.0696,5.0696,5.0696,5.0696,5.0696,5.0696,5.0696,5.06,0.0,0.0,0.0,0.0,0.0,0.0,0.0,1.9585,2.0439,2.1669,2.2492,2.3234,2.4025,2.4612,2.5341,0.0,0.0,0.0,0.0,0.0,0.0,0.0,0.0,0.0,0.0,0.0,0.0,0.0,0.0,0.0,0.0,0.0,0.0,0.0,0.0,0.0,0.0,0.0,0.0,0.0,0.0,0.0,0.0,0.0,0.0,0.0,0.0,0.0,3.7438,3.9371,4.3034,4.7434,5.1423,5.5953,6.0118,6.1757,6.3528,6.539,6.7127,6.8208,6.8572,6.7643,6.4086,5.9419,5.4149,4.7961,0.0,0.0,3.5366,3.4139,3.4309,3.5942,3.7654,0.0,4.1035,4.403,4.8325,5.0046,5.2043,0.0,0.0,0.0,0.0,0.0,0.0,0.0,0.0,0.0,0.0,5.9402,5.856,5.7502,5.65,5.5578,5.4616,5.4616,5.488,5.5385,5.4856,5.4832,5.5169,5.3763,5.2873,5.2464,0.0,0.0,0.0,5.0744,5.0696,5.0696,5.0696,5.0696,5.0696,5.0696,5.0696,5.06,0.0,0.0,0.0,0.0,0.0,0.0,0.0,1.9911,2.1181,2.2744,2.2627,2.2818,2.396,2.4529,2.4902,0.0,0.0,0.0,0.0,0.0,0.0,0.0,0.0,0.0,0.0,0.0,0.0,0.0,0.0,0.0,0.0,0.0,0.0,0.0,0.0,0.0,0.0,0.0,0.0,0.0,0.0,0.0,0.0,0.0,0.0,0.0,0.0,0.0,0.0,0.0,0.0,4.1194,4.5437,5.2163,5.8581,5.9187,0.0,0.0,6.4033,6.6235,6.7866,6.3971,6.1212,5.7715,5.1071,0.0,3.9741,3.561,3.3381,3.2294,3.2806,3.4105,3.599,3.8657,4.0571,4.3275,4.7747,5.0119,5.2596,5.5731,0.0,0.0,0.0,0.0,0.0,0.0,0.0,0.0,0.0,5.8512,5.7478,5.638,5.5794,5.5193,5.4616,5.4616,5.488,5.5385,5.4856,5.464,5.464,5.3595,5.309,5.2969,0.0,0.0,0.0,5.0912,5.0696,5.0696,5.0696,5.0696,5.0696,5.0696,5.0696,5.0551,0.0,0.0,0.0,0.0,0.0,0.0,1.8832,1.966,2.074,2.2408,2.2719,2.2848,2.3,2.3486,2.4113,0.0,0.0,0.0,0.0,0.0,0.0,0.0,0.0,0.0,0.0,0.0,0.0,0.0,0.0,0.0,0.0,0.0,0.0,0.0,0.0,0.0,0.0,0.0,0.0,0.0,0.0,0.0,0.0,0.0,0.0,0.0,0.0,0.0,0.0,0.0,0.0,0.0,3.907,4.3926,0.0,0.0,5.7531,6.0221,6.1883,6.4127,6.5472,6.3035,5.9384,5.4928,4.9535,0.0,3.771,3.477,3.2672,3.1836,3.3219,3.4076,3.5186,3.7142,3.8034,3.9864,4.3945,4.5766,4.8363,5.286,0.0,0.0,0.0,0.0,0.0,0.0,0.0,0.0,0.0,0.0,5.6957,5.6212,5.5385,5.4832,5.4616,5.4928,5.5361,5.589,5.5337,5.4904,5.4568,5.3571,5.2753,0.0,0.0,0.0,0.0,5.0792,5.0696,5.0696,5.0696,5.0696,5.0696,5.0696,5.0696,5.0648,0.0,0.0,0.0,0.0,0.0,1.7763,1.8832,1.961,2.0589,2.2106,2.2633,2.2734,2.2332,2.2357,2.2951,2.4366,0.0,0.0,0.0,0.0,0.0,0.0,0.0,0.0,0.0,0.0,0.0,0.0,0.0,0.0,0.0,0.0,0.0,0.0,0.0,0.0,0.0,0.0,0.0,0.0,0.0,0.0,0.0,0.0,0.0,0.0,0.0,0.0,0.0,0.0,0.0,3.4928,3.4346,3.6962,4.1567,4.8109,5.2837,5.6432,5.8528,6.1342,6.3217,6.114,5.7207,5.259,0.0,0.0,3.6288,3.4026,3.2191,3.1508,3.3209,3.382,3.4509,3.5838,3.6389,3.795,4.1706,4.3096,4.5501,0.0,0.0,0.0,0.0,0.0,0.0,0.0,0.0,0.0,0.0,0.0,5.6371,5.6011,5.5241,5.4832,5.4832,5.5217,5.5602,5.5947,5.5433,5.4808,5.4135,5.3282,5.2368,0.0,0.0,0.0,0.0,5.0696,5.0696,5.0696,5.0696,5.0696,5.0696,5.0696,5.0696,5.0672,0.0,0.0,0.0,0.0,0.0,0.0,1.8832,1.9962,2.1094,2.2171,2.2307,2.2307,2.2307,2.1356,2.1403,2.308,0.0,0.0,0.0,0.0,0.0,0.0,0.0,0.0,0.0,0.0,0.0,0.0,0.0,0.0,0.0,0.0,0.0,0.0,0.0,0.0,0.0,0.0,0.0,0.0,0.0,0.0,0.0,0.0,0.0,0.0,0.0,0.0,0.0,0.0,0.0,0.0,0.0,3.2684,3.4512,4.1075,4.8575,5.4444,5.3325,5.7634,6.1513,5.731,5.4424,5.1081,0.0,0.0,3.5631,3.3208,3.1642,3.1031,3.2203,3.2927,3.3739,3.4993,3.6347,3.8506,4.226,4.3673,4.5493,0.0,0.0,0.0,0.0,0.0,0.0,0.0,0.0,0.0,0.0,0.0,5.5409,5.5409,5.5385,5.5385,5.5385,5.5385,5.5385,5.5385,5.4856,5.4087,5.3114,5.256,0.0,0.0,0.0,0.0,0.0,5.0696,5.0696,5.0696,5.0696,5.0696,5.0696,5.0696,5.0696,5.0624,0.0,0.0,0.0,0.0,0.0,0.0,0.0,1.8505,1.9397,2.0464,2.0954,2.1356,2.1719,2.1105,2.1049,2.1963,0.0,0.0,0.0,0.0,0.0,0.0,0.0,0.0,0.0,0.0,3.1929,3.2826,3.3275,3.3871,0.0,0.0,0.0,0.0,0.0,0.0,0.0,0.0,0.0,0.0,0.0,0.0,0.0,0.0,0.0,0.0,0.0,0.0,0.0,0.0,0.0,0.0,0.0,0.0,0.0,3.5356,4.0952,0.0,4.7556,5.0436,5.2541,5.0049,4.7719,4.5012,4.1078,3.7209,3.4076,3.2763,3.143,3.0922,3.2406,3.2718,3.3572,3.615,3.6919,3.8118,0.0,0.0,0.0,0.0,0.0,0.0,0.0,0.0,0.0,0.0,0.0,0.0,0.0,0.0,0.0,5.5963,5.4904,5.4664,5.5385,5.5049,5.5049,5.5385,5.4496,5.3726,5.3066,0.0,0.0,0.0,0.0,0.0,0.0,5.0696,5.0696,5.0696,5.0696,5.0696,5.0696,5.0696,5.0696,5.0624,0.0,0.0,0.0,0.0,0.0,0.0,0.0,1.7688,1.8279,1.9346,1.9836,2.0351,2.1105,2.0691,2.0666,2.1432,0.0,0.0,0.0,0.0,0.0,0.0,0.0,0.0,0.0,3.1093,3.1704,3.2886,3.3305,3.3746,3.4254,3.4526,0.0,0.0,0.0,0.0,0.0,0.0,0.0,0.0,0.0,0.0,3.1182,0.0,0.0,0.0,0.0,0.0,0.0,0.0,0.0,0.0,0.0,0.0,0.0,0.0,3.5452,3.9522,4.2986,4.5849,4.7556,4.6301,4.4166,0.0,0.0,3.5676,3.3027,3.2135,3.1113,3.0795,3.2136,3.2436,3.3284,3.5617,3.6338,0.0,0.0,0.0,0.0,0.0,0.0,0.0,0.0,0.0,0.0,0.0,0.0,0.0,0.0,0.0,0.0,5.6188,5.5049,5.4544,5.4784,5.4471,5.4375,5.452,5.3654,5.298,5.2488,0.0,0.0,0.0,0.0,0.0,0.0,5.0696,5.0696,5.0696,5.0696,5.0696,5.0672,5.0455,5.0527,5.06,0.0,0.0,0.0,0.0,0.0,0.0,0.0,0.0,1.7802,1.8807,1.9008,1.9447,2.0515,2.0125,2.0238,2.1281,0.0,0.0,0.0,0.0,0.0,0.0,0.0,0.0,0.0,3.0522,3.1481,3.3363,3.3422,3.3744,3.4269,3.4631,3.3709,3.1795,0.0,0.0,0.0,0.0,0.0,0.0,0.0,0.0,0.0,0.0,0.0,0.0,0.0,0.0,0.0,0.0,0.0,0.0,0.0,0.0,0.0,0.0,0.0,0.0,0.0,4.2983,0.0,0.0,0.0,0.0,0.0,3.4858,0.0,3.1333,3.0719,3.068,3.1595,3.2152,3.2851,3.4006,0.0,0.0,0.0,0.0,0.0,0.0,0.0,0.0,0.0,0.0,0.0,0.0,0.0,0.0,0.0,0.0,0.0,0.0,5.5578,5.4808,5.3822,5.3712,5.3485,5.3041,5.2512,5.197,5.1489,0.0,0.0,0.0,0.0,0.0,0.0,5.0696,5.0696,5.0696,5.0696,5.0672,5.0576,5.0081,5.0226,5.0479,0.0,0.0,0.0,0.0,0.0,0.0,0.0,0.0,0.0,0.0,1.9095,1.971,1.9987,1.9886,1.9911,0.0,0.0,0.0,0.0,0.0,0.0,0.0,0.0,0.0,0.0,3.0777,3.1471,3.1886,3.2658,3.3355,3.3916,3.3754,3.3143,3.2135,3.1832,0.0,0.0,0.0,0.0,0.0,0.0,0.0,0.0,0.0,0.0,0.0,2.9804,2.9804,0.0,0.0,0.0,0.0,0.0,0.0,0.0,0.0,3.126,0.0,0.0,0.0,0.0,0.0,0.0,3.4506,0.0,3.2007,3.0908,3.045,3.0266,3.0606,3.2056,3.208,3.2898,0.0,0.0,0.0,0.0,0.0,0.0,0.0,0.0,0.0,0.0,0.0,0.0,0.0,0.0,0.0,0.0,0.0,0.0,0.0,5.4471,5.4025,5.3785,5.3029,5.2572,5.2488,5.1922,5.161,0.0,0.0,0.0,0.0,0.0,0.0,0.0,5.0696,5.0696,5.0696,5.0696,5.0455,5.0081,4.9961,4.9985,4.9937,0.0,0.0,0.0,0.0,0.0,0.0,0.0,0.0,0.0,0.0,0.0,0.0,0.0,0.0,0.0,0.0,0.0,0.0,0.0,0.0,0.0,0.0,0.0,0.0,2.871,2.9637,3.0373,3.0845,3.1666,3.2416,3.3118,3.2928,3.2424,3.1615,3.0879,3.0147,0.0,0.0,0.0,0.0,0.0,0.0,0.0,0.0,0.0,0.0,2.9804,2.9804,0.0,2.9804,2.9955,3.0131,0.0,0.0,0.0,0.0,3.0432,3.0733,3.1009,3.2667,3.4198,3.3897,3.3514,3.2972,3.2142,3.0975,3.0035,2.9787,2.9917,3.0516,3.1887,3.2104,0.0,0.0,0.0,0.0,0.0,0.0,0.0,0.0,0.0,0.0,0.0,0.0,0.0,0.0,0.0,0.0,0.0,0.0,0.0,0.0,0.0,5.3101,5.3101,5.2331,5.1802,5.1562,5.1273,5.1129,0.0,0.0,0.0,0.0,0.0,0.0,5.0672,5.0431,5.0479,5.0648,5.0143,4.9961,4.9841,4.9359,4.9335,4.9383,0.0,0.0,0.0,0.0,0.0,0.0,0.0,0.0,0.0,0.0,0.0,0.0,0.0,0.0,0.0,0.0,0.0,0.0,0.0,0.0,0.0,0.0,0.0,2.7145,2.7782,2.835,2.9149,3.015,3.087,3.1639,3.2393,3.2495,3.1978,3.0941,3.0133,2.9804,0.0,0.0,0.0,0.0,0.0,0.0,0.0,0.0,0.0,0.0,0.0,0.0,0.0,2.9804,3.0105,3.0387,2.993,0.0,0.0,0.0,0.0,0.0,3.0005,3.2265,3.4477,3.4051,3.3496,3.2829,3.2068,3.0636,2.9371,2.9212,2.9653,3.0443,3.1599,3.2322,0.0,0.0,0.0,0.0,0.0,0.0,0.0,0.0,0.0,0.0,0.0,0.0,0.0,0.0,0.0,0.0,0.0,0.0,0.0,0.0,0.0,0.0,5.2163,5.1634,5.1153,5.0696,5.0696,5.0696,5.0696,0.0,0.0,0.0,0.0,0.0,5.0407,4.9985,5.0057,5.0359,4.9445,4.9335,4.9552,4.8661,4.8579,4.8854,0.0,0.0,0.0,0.0,0.0,0.0,0.0,0.0,0.0,0.0,0.0,0.0,0.0,0.0,0.0,0.0,0.0,0.0,0.0,0.0,0.0,0.0,2.6839,2.7783,2.8295,2.8987,2.952,2.9866,3.1251,3.2258,3.2818,3.3394,3.2836,3.1296,3.0251,2.9804,2.9804,0.0,0.0,0.0,0.0,0.0,0.0,0.0,0.0,0.0,0.0,0.0,0.0,2.9804,2.9854,2.9905,2.9849,0.0,0.0,0.0,0.0,0.0,3.0909,3.2541,3.347,3.1135,3.0552,3.0372,2.9745,2.9107,2.8659,2.8643,2.9412,3.0588,3.2082,3.3141,3.4583,0.0,0.0,0.0,0.0,0.0,0.0,0.0,0.0,0.0,0.0,0.0,0.0,0.0,0.0,0.0,0.0,0.0,0.0,0.0,0.0,0.0,0.0,5.1081,5.0792,5.0696,5.0696,5.0696,5.0696,5.0696,0.0,0.0,0.0,0.0,4.9359,4.9263,4.9287,4.9335,4.9167,4.8844,4.8541,4.8363,4.8339,4.8387,0.0,0.0,0.0,0.0,0.0,0.0,0.0,0.0,0.0,0.0,0.0,0.0,0.0,0.0,0.0,0.0,0.0,0.0,0.0,0.0,0.0,2.532,2.6103,2.6982,2.7945,2.8757,2.9475,3.0072,3.1287,3.228,3.2988,3.2697,3.1813,3.0507,3.0005,2.9804,2.9804,2.9804,0.0,0.0,0.0,0.0,0.0,0.0,0.0,0.0,0.0,0.0,0.0,0.0,2.9843,2.9886,2.9821,0.0,0.0,0.0,0.0,0.0,3.004,3.1041,3.1701,3.0566,3.1487,3.2373,3.1342,3.0631,3.0227,3.0227,3.1072,3.213,0.0,0.0,0.0,0.0,0.0,0.0,0.0,0.0,0.0,0.0,0.0,0.0,0.0,0.0,0.0,0.0,0.0,0.0,0.0,0.0,0.0,0.0,0.0,0.0,5.1056,5.0816,5.0696,5.0696,5.0696,5.0696,5.0696,5.0383,5.0154,0.0,0.0,4.9335,4.9095,4.8806,4.8854,4.9047,4.8459,4.8243,4.8267,4.7954,4.7858,4.7858,0.0,0.0,0.0,0.0,0.0,0.0,0.0,0.0,0.0,0.0,0.0,0.0,0.0,0.0,0.0,0.0,0.0,0.0,0.0,0.0,2.413,2.5289,2.5558,2.6432,2.7962,2.8542,2.9442,3.0695,3.1625,3.2504,3.3266,3.2009,3.0884,2.998,2.9854,2.9804,2.9804,2.9804,2.9804,0.0,0.0,0.0,0.0,0.0,0.0,0.0,0.0,0.0,0.0,0.0,0.0,0.0,0.0,0.0,0.0,2.9465,2.936,2.9332,2.9465,3.0058,3.0658,3.0785,3.2356,3.3684,3.3115,3.2599,3.2321,3.2561,0.0,0.0,0.0,0.0,0.0,0.0,0.0,0.0,0.0,0.0,0.0,0.0,0.0,0.0,0.0,0.0,0.0,0.0,0.0,0.0,0.0,0.0,0.0,0.0,0.0,0.0,5.072,5.0696,5.0696,5.0696,5.0696,5.0696,5.0672,5.0154,4.9841,4.9696,4.9167,4.882,4.8676,4.8267,4.8339,4.8628,4.781,4.7738,4.805,4.7642,4.7497,4.7497,0.0,0.0,0.0,0.0,0.0,0.0,0.0,0.0,0.0,0.0,0.0,0.0,0.0,0.0,0.0,0.0,0.0,0.0,0.0,0.0,2.407,2.5081,2.5904,2.723,2.9146,2.8812,2.969,3.1891,3.2747,3.3395,3.3796,3.2164,3.1085,3.0512,3.003,2.9804,2.9804,2.9804,2.9804,2.9804,0.0,0.0,0.0,0.0,0.0,0.0,0.0,0.0,0.0,0.0,0.0,0.0,0.0,0.0,2.9199,2.9365,2.9263,2.9352,3.0376,3.1086,3.1463,3.1299,3.0995,3.1217,3.3097,3.3689,3.4126,3.5111,0.0,0.0,0.0,0.0,0.0,0.0,0.0,0.0,0.0,0.0,0.0,0.0,0.0,0.0,0.0,0.0,0.0,0.0,0.0,0.0,0.0,0.0,0.0,0.0,0.0,0.0,5.0696,5.0696,5.0696,5.0696,5.0696,5.0696,5.0672,5.0154,4.9624,4.9143,4.8579,4.8074,4.7617,4.7569,4.7569,4.7617,4.7521,4.7521,4.7545,4.7521,4.7497,4.7497,0.0,0.0,0.0,0.0,0.0,0.0,0.0,0.0,0.0,0.0,0.0,0.0,0.0,0.0,0.0,0.0,0.0,0.0,0.0,0.0,2.3959,2.5062,2.5744,2.6966,2.89,2.997,3.1619,3.3856,3.407,3.3715,3.2817,3.1512,3.0633,3.0105,2.988,2.9804,2.9804,2.9804,2.9804,2.9804,2.9804,0.0,0.0,0.0,0.0,0.0,0.0,0.0,0.0,0.0,2.8934,2.8776,2.9111,2.8993,2.8776,2.9131,2.9072,2.9007,2.9442,3.0444,3.1382,3.1528,3.2095,3.3038,3.451,3.5956,3.7274,3.8359,3.9946,0.0,0.0,0.0,0.0,0.0,0.0,0.0,0.0,0.0,0.0,0.0,0.0,0.0,0.0,0.0,0.0,0.0,0.0,0.0,0.0,0.0,0.0,0.0,0.0,0.0,0.0,5.0359,5.0191,5.0226,5.0527,5.0696,5.0672,5.0154,4.9793,4.9576,4.9047,4.8483,4.8002,4.8339,4.8098,4.7497,4.7497,4.7497,4.7497,4.7497,4.7497,4.7497,0.0,0.0,0.0,0.0,0.0,0.0,0.0,0.0,0.0,0.0,0.0,0.0,0.0,0.0,0.0,0.0,0.0,0.0,2.1744,2.2795,2.3882,2.495,2.5581,2.6798,2.8708,3.0632,3.2546,3.4483,3.4287,3.342,3.1938,3.0859,3.0156,2.9804,2.9804,2.9804,2.9804,2.9804,2.9804,2.9779,2.9702,2.956,0.0,0.0,0.0,0.0,0.0,0.0,0.0,0.0,2.8717,2.8558,2.8895,2.8776,2.8558,2.8914,2.8875,2.8717,2.8717,2.9617,3.0758,3.1305,3.2731,3.4559,3.6625,3.8527,4.0258,4.1822,4.3,4.4124,4.5373,0.0,0.0,0.0,0.0,0.0,0.0,0.0,0.0,0.0,0.0,0.0,0.0,0.0,0.0,0.0,0.0,0.0,0.0,0.0,0.0,0.0,0.0,0.0,0.0,5.0178,4.9913,4.9913,5.0095,5.0287,5.0431,5.0081,4.9913,4.9865,4.9167,4.8661,4.8315,4.8507,4.8147,4.7497,4.7497,4.7497,4.7497,4.7497,4.7497,4.7497,0.0,0.0,0.0,0.0,0.0,0.0,0.0,0.0,0.0,0.0,0.0,0.0,0.0,0.0,0.0,0.0,0.0,0.0,2.2257,2.2997,2.3806,2.4766,2.5499,2.6839,2.8856,3.0532,3.2063,3.3386,3.3197,3.2512,3.1381,3.0301,2.9804,2.9804,2.9804,2.9804,2.9804,2.9804,2.9804,2.9779,2.9521,2.9399,0.0,0.0,0.0,0.0,0.0,0.0,0.0,0.0,2.8502,2.8518,2.8736,2.8657,2.8538,2.8732,2.8657,2.8502,2.8502,2.8907,2.9556,3.066,3.2468,3.5159,3.9441,4.1249,4.2765,4.5373,4.5085,4.4845,4.6439,0.0,0.0,0.0,0.0,0.0,0.0,0.0,0.0,0.0,0.0,0.0,0.0,0.0,0.0,0.0,0.0,0.0,0.0,0.0,0.0,0.0,0.0,0.0,0.0,5.0178,4.9889,4.9889,4.9359,4.9383,4.9889,4.9889,4.9889,4.9841,4.8748,4.8291,4.8243,4.7714,4.7497,4.7497,4.7497,4.7497,4.7497,4.7497,4.7497,4.7497,0.0,0.0,0.0,0.0,0.0,0.0,0.0,0.0,0.0,0.0,0.0,0.0,0.0,0.0,0.0,0.0,0.0,0.0,2.2257,2.2854,2.3683,2.4766,2.5384,2.6516,2.8304,3.0357,3.198,3.3197,3.3514,3.2692,3.0834,3.0131,2.9804,2.9804,2.9804,2.9804,2.9804,2.9804,2.9804,2.9779,2.9521,2.9321,2.917,0.0,0.0,0.0,0.0,0.0,0.0,0.0,0.0,0.0,2.8558,2.8538,2.8538,2.8732,2.8657,2.8518,2.8677,2.9559,0.0,3.2248,0.0,0.0,4.0816,4.2067,4.3728,0.0,4.7858,4.7377,4.8219,0.0,0.0,0.0,0.0,0.0,0.0,0.0,0.0,0.0,0.0,0.0,0.0,0.0,0.0,0.0,0.0,0.0,0.0,0.0,0.0,0.0,0.0,0.0,0.0,0.0,4.8748,4.8806,4.9022,4.9191,4.9359,4.9359,4.9359,4.9335,4.9022,4.8628,4.8243,4.7714,4.7497,4.7497,4.7497,4.7281,4.6992,4.7377,4.7497,4.7497,0.0,0.0,0.0,0.0,0.0,0.0,0.0,0.0,0.0,0.0,1.9811,1.9811,0.0,0.0,0.0,0.0,0.0,0.0,0.0,2.3135,2.3863,2.4766,2.5536,2.6834,2.8725,3.0482,3.1612,3.2089,3.2641,3.2014,3.0281,3.0181,3.0131,3.0131,3.0331,3.0306,3.0131,3.0131,2.9921,2.9618,2.9385,2.9145,2.8973,0.0,0.0,0.0,0.0,0.0,0.0,0.0,0.0,0.0,2.8502,2.8502,2.8518,2.8657,2.8578,2.8566,2.8923,3.007,0.0,3.3717,3.6435,3.9489,4.2784,0.0,0.0,0.0,0.0,0.0,0.0,0.0,0.0,0.0,0.0,0.0,0.0,0.0,0.0,0.0,0.0,0.0,0.0,0.0,0.0,0.0,0.0,0.0,0.0,0.0,0.0,0.0,0.0,0.0,0.0,0.0,0.0,4.7978,4.8291,4.8459,4.8459,4.8926,4.8998,4.8748,4.8555,4.8147,4.7617,4.7088,4.6872,4.6872,4.6872,4.68,4.6752,4.7064,4.7329,4.7497,0.0,0.0,0.0,0.0,0.0,0.0,0.0,0.0,0.0,0.0,1.9811,1.9811,0.0,0.0,0.0,0.0,0.0,0.0,0.0,0.0,2.4255,2.4791,2.5979,2.7613,2.9654,3.0728,3.1009,3.0512,3.111,3.0834,2.9804,3.0337,3.0588,3.0613,3.111,3.106,3.0568,3.0518,3.0074,2.936,2.915,2.8973,2.8771,2.8578,0.0,0.0,0.0,0.0,0.0,0.0,0.0,0.0,2.8502,2.8502,2.8502,2.8502,2.8502,2.8643,2.9268,3.054,3.2369,3.5208,3.8094,0.0,4.5325,4.7762,4.96,5.1032,0.0,0.0,0.0,0.0,0.0,0.0,0.0,0.0,0.0,0.0,0.0,0.0,0.0,0.0,0.0,0.0,0.0,0.0,0.0,0.0,0.0,0.0,0.0,0.0,0.0,0.0,0.0,0.0,0.0,0.0,4.7353,4.7329,4.7329,4.8435,4.8676,4.8195,4.7666,4.7161,4.668,4.6118,4.5854,4.583,4.5878,4.6166,4.6551,4.6631,4.6944,4.7377,0.0,0.0,0.0,0.0,0.0,0.0,0.0,0.0,0.0,0.0,0.0,0.0,0.0,0.0,0.0,0.0,0.0,0.0,0.0,0.0,2.4255,2.4791,2.6716,2.8172,2.9082,2.9779,3.008,2.998,3.0934,3.0834,2.9804,3.0337,3.0588,3.0613,3.0713,3.0608,3.0318,2.985,2.9465,2.915,2.8954,2.8831,2.8771,2.8578,2.8502,0.0,0.0,0.0,0.0,0.0,0.0,0.0,2.8502,2.8502,2.8502,2.8502,2.8502,2.8811,3.0179,3.1117,3.273,3.706,4.1648,4.5862,4.8435,4.9408,4.9841,0.0,0.0,0.0,0.0,0.0,0.0,0.0,0.0,0.0,0.0,0.0,0.0,0.0,0.0,0.0,0.0,0.0,0.0,0.0,0.0,0.0,0.0,0.0,0.0,0.0,0.0,0.0,4.6439,4.6407,4.6367,0.0,4.6238,4.6022,4.5662,4.7161,4.7786,4.7642,4.7112,4.6824,4.668,4.6118,4.5638,4.5325,4.5734,4.571,4.5493,4.5902,4.6142,4.6286,0.0,0.0,0.0,0.0,0.0,0.0,0.0,0.0,0.0,0.0,0.0,0.0,0.0,0.0,0.0,0.0,0.0,0.0,0.0,0.0,0.0,2.5963,2.7092,2.7971,2.8505,2.9082,2.9377,2.9377,3.0206,3.0331,2.9804,3.0337,3.0588,3.0613,3.0884,3.0733,3.0283,2.9965,2.949,2.8954,2.8831,2.8732,2.8637,2.8538,2.8502,0.0,0.0,0.0,0.0,0.0,0.0,0.0,0.0,0.0,2.8502,2.8502,2.8671,2.9192,3.0689,3.2121,3.439,3.9441,0.0,4.7449,4.883,4.9528,4.9913,0.0,0.0,0.0,0.0,0.0,0.0,0.0,0.0,0.0,0.0,0.0,0.0,0.0,0.0,0.0,0.0,0.0,0.0,0.0,0.0,0.0,0.0,0.0,0.0,0.0,0.0,0.0,4.5157,4.5397,4.5253,4.4748,4.5013,4.4989,4.4772,4.5854,4.6479,4.6695,4.6166,4.5926,4.5878,4.5349,4.4989,4.4748,4.5037,4.5133,4.5133,4.5421,4.5662,4.5926,0.0,0.0,0.0,0.0,0.0,0.0,0.0,0.0,0.0,0.0,0.0,0.0,0.0,0.0,0.0,0.0,0.0,0.0,0.0,0.0,0.0,2.7236,2.7311,2.7562,2.8097,2.8631,2.8888,2.8888,2.9503,2.9804,2.9804,3.0337,3.0588,3.0613,3.1019,3.0848,3.0223,3.0104,2.9524,2.8732,2.8732,2.8657,2.8502,2.8502,0.0,0.0,0.0,0.0,0.0,0.0,0.0,0.0,0.0,0.0,2.8502,2.8502,2.8811,2.9474,3.0886,3.3443,3.6871,4.1765,4.5276,0.0,4.8171,4.9071,4.9862,0.0,0.0,0.0,0.0,0.0,0.0,0.0,0.0,0.0,0.0,0.0,0.0,0.0,0.0,0.0,0.0,0.0,0.0,0.0,0.0,0.0,0.0,0.0,0.0,0.0,0.0,4.5013,4.4051,4.4484,4.4275,4.3385,4.3835,4.4051,4.4051,4.458,4.5109,4.559,4.5061,4.482,4.4796,4.4268,4.41,4.4172,4.4172,4.4508,4.4965,4.4965,4.5253,4.5638,0.0,0.0,0.0,0.0,0.0,0.0,0.0,0.0,0.0,0.0,1.9811,2.0,0.0,0.0,0.0,0.0,0.0,0.0,0.0,0.0,0.0,2.7261,2.7311,2.7562,2.8097,2.8631,2.8888,2.8888,2.9503,2.9804,2.9804,3.0337,3.0588,3.0613,3.0503,3.0302,3.0002,2.9287,2.8805,2.8538,2.8538,2.8518,2.8502,0.0,0.0,0.0,0.0,0.0,0.0,0.0,0.0,0.0,0.0,0.0,0.0,2.8502,2.857,2.8996,3.0725,3.5114,3.9961,4.3044,4.5691,4.7642,0.0,0.0,4.9679,0.0,0.0,0.0,0.0,0.0,0.0,0.0,0.0,0.0,0.0,0.0,0.0,0.0,0.0,0.0,0.0,0.0,0.0,0.0,0.0,0.0,0.0,0.0,4.4292,4.3842,4.3842,0.0,4.3006,4.3078,4.303,4.2886,4.2958,4.3006,4.303,4.3505,4.4003,4.4477,4.3931,4.3691,4.3697,4.3223,4.3216,4.3595,4.3595,4.3931,4.4412,4.4412,4.4429,4.4604,0.0,0.0,0.0,0.0,0.0,0.0,0.0,0.0,0.0,0.0,0.0,2.0415,0.0,0.0,0.0,0.0,0.0,0.0,0.0,0.0,0.0,2.6826,2.6851,2.6959,2.7185,2.8021,2.8455,2.8455,2.9352,2.9804,2.9804,3.003,3.0052,2.9909,2.9831,2.9613,2.9296,2.8952,2.8677,2.8502,2.8502,2.8502,0.0,0.0,0.0,0.0,0.0,0.0,0.0,0.0,0.0,0.0,0.0,0.0,0.0,0.0,2.8795,2.9759,3.2841,3.5942,3.9136,4.2539,4.4565,4.6062,4.7391,4.8516,0.0,0.0,0.0,0.0,0.0,0.0,0.0,0.0,0.0,0.0,0.0,0.0,0.0,0.0,0.0,0.0,0.0,0.0,0.0,0.0,0.0,0.0,0.0,4.4082,4.3481,4.3505,4.3241,0.0,4.2356,4.2356,4.2188,4.1899,4.1899,4.1899,4.1923,4.214,4.2663,4.3457,4.3505,4.3361,4.3102,4.2886,4.291,4.312,4.3409,4.3619,4.3883,4.4196,4.4285,4.4309,0.0,0.0,0.0,0.0,0.0,0.0,0.0,0.0,0.0,0.0,0.0,0.0,0.0,0.0,0.0,0.0,0.0,0.0,0.0,0.0,0.0,2.6474,2.6625,2.67,2.67,2.7745,2.8304,2.8304,2.9302,2.9804,2.9804,2.9721,2.956,2.9321,2.9321,2.9126,2.8791,2.8732,2.8637,2.8502,2.8502,0.0,0.0,0.0,0.0,0.0,0.0,0.0,0.0,0.0,0.0,0.0,0.0,0.0,0.0,0.0,0.0,3.0228,3.3726,3.562,3.7414,4.0887,4.2842,4.4352,0.0,0.0,0.0,0.0,0.0,0.0,0.0,0.0,0.0,0.0,0.0,0.0,0.0,0.0,0.0,0.0,0.0,0.0,0.0,0.0,0.0,0.0,0.0,0.0,4.4484,4.3174,4.2549,4.2904,4.2597,4.214,4.161,4.161,4.1466,4.1201,4.1201,4.1201,4.1196,4.1345,4.1779,4.2404,4.276,4.2711,4.238,4.238,4.2477,4.2645,4.312,4.3385,4.3547,4.41,4.4285,4.4285,0.0,0.0,0.0,0.0,0.0,0.0,0.0,0.0,0.0,0.0,0.0,0.0,0.0,0.0,2.2493,2.302,2.3612,2.4406,2.5485,2.6105,2.6474,2.6499,2.7002,0.0,2.7261,2.8304,2.8856,2.8856,2.9503,2.9804,2.9779,2.9541,2.9302,2.9131,2.9131,2.9013,2.8791,0.0,0.0,2.8502,0.0,0.0,0.0,0.0,0.0,0.0,0.0,0.0,0.0,0.0,0.0,0.0,0.0,0.0,0.0,0.0,0.0,0.0,3.1546,3.3625,3.576,3.8064,4.0769,4.3086,0.0,0.0,0.0,0.0,0.0,0.0,0.0,0.0,0.0,0.0,0.0,0.0,0.0,0.0,0.0,0.0,0.0,0.0,0.0,0.0,0.0,0.0,0.0,0.0,4.2886,4.1875,4.1268,4.1321,4.1297,4.1033,4.0475,4.0475,4.0715,4.1201,4.1201,4.1201,4.1225,4.173,4.1706,4.1268,4.1321,4.1321,4.1297,4.1297,4.1586,4.2091,4.2621,4.3126,4.3547,4.41,4.4285,4.4285,0.0,0.0,0.0,0.0,0.0,0.0,0.0,0.0,0.0,0.0,0.0,0.0,0.0,2.2608,2.306,2.3612,2.4506,2.5184,2.5561,2.6155,2.665,2.7002,2.7185,2.7462,2.7795,2.853,2.8888,2.8888,2.9503,2.9804,2.9779,2.9541,2.9282,2.9091,2.8973,2.8796,2.8598,2.8518,0.0,0.0,0.0,0.0,0.0,0.0,0.0,0.0,0.0,0.0,0.0,0.0,0.0,0.0,0.0,0.0,0.0,0.0,0.0,2.9712,3.1576,3.2539,3.3978,3.8019,3.988,4.1396,4.407,4.6501,0.0,0.0,0.0,0.0,0.0,0.0,0.0,0.0,0.0,0.0,0.0,0.0,0.0,0.0,0.0,0.0,0.0,0.0,0.0,0.0,0.0,0.0,4.2765,4.1466,4.0836,4.1201,4.0523,4.009,3.9898,3.9898,3.9994,4.0186,4.0523,4.0691,4.0691,4.1249,4.1394,4.1201,4.1201,4.1201,4.1201,4.1201,4.1321,4.1586,4.2452,4.291,4.3144,4.3979,4.4285,4.4285,0.0,0.0,0.0,0.0,0.0,0.0,0.0,0.0,0.0,0.0,0.0,0.0,0.0,0.0,2.3913,2.4481,2.5184,2.5686,2.5879,2.6449,2.6927,2.7286,2.7645,2.7996,2.8355,2.8907,2.9208,2.9208,2.9603,2.974,2.9663,2.9477,2.9263,2.8993,2.885,2.8697,0.0,0.0,0.0,2.8522,0.0,0.0,2.857,0.0,0.0,0.0,0.0,0.0,0.0,0.0,0.0,0.0,0.0,0.0,0.0,0.0,0.0,0.0,3.1024,3.1543,3.2742,3.7234,3.8482,3.955,4.315,0.0,0.0,0.0,0.0,0.0,0.0,0.0,0.0,0.0,0.0,0.0,0.0,0.0,0.0,0.0,0.0,0.0,0.0,0.0,0.0,0.0,0.0,0.0,4.2236,4.1105,4.0475,4.0643,3.9801,3.9417,3.9609,3.9441,3.9513,3.9874,4.0234,4.0499,4.0667,4.1028,4.1201,4.1201,4.1201,4.1201,4.1201,4.1201,4.1321,4.1538,4.226,4.2741,4.3126,4.3787,4.4148,4.4285,0.0,0.0,0.0,0.0,0.0,0.0,0.0,0.0,0.0,0.0,0.0,0.0,0.0,0.0,0.0,2.5611,2.5661,2.5929,2.6499,2.7035,2.7336,2.7361,2.8329,2.8907,2.8932,2.9503,2.9804,2.9804,2.9804,2.9682,2.9419,2.9399,2.9184,2.8811,2.8791,2.8677,2.8502,0.0,2.8522,2.8595,0.0,2.9003,2.8739,0.0,0.0,0.0,3.0516,3.0564,0.0,0.0,0.0,0.0,0.0,0.0,0.0,0.0,0.0,0.0,0.0,0.0,0.0,0.0,0.0,0.0,4.0896,0.0,0.0,0.0,0.0,0.0,0.0,0.0,0.0,0.0,0.0,0.0,0.0,0.0,0.0,0.0,0.0,0.0,0.0,0.0,0.0,0.0,0.0,4.1153,4.1153,4.0643,4.0114,3.9585,3.9029,3.9032,3.9561,3.9056,3.932,4.0331,4.0355,4.0643,4.1153,4.1201,4.1201,4.1201,4.1201,4.1201,4.1201,4.1201,4.1538,4.1995,4.1995,4.2591,4.3505,4.3505,4.3835,4.4285,0.0,0.0,0.0,0.0,0.0,0.0,0.0,0.0,0.0,0.0,0.0,0.0,0.0,0.0,2.6256,2.6783,2.7168,2.7469,2.7663,2.7795,2.8047,2.843,2.8756,2.9107,2.9553,2.9704,2.9804,2.9804,2.9804,2.976,2.9682,0.0,0.0,2.9013,2.8717,2.8538,2.8502,2.8502,0.0,0.0,2.9388,2.9677,0.0,0.0,0.0,0.0,0.0,3.0804,0.0,0.0,3.0727,3.0643,0.0,0.0,0.0,0.0,0.0,0.0,2.9779,0.0,0.0,0.0,0.0,0.0,0.0,0.0,0.0,0.0,0.0,0.0,0.0,0.0,0.0,0.0,0.0,0.0,0.0,0.0,0.0,0.0,0.0,0.0,0.0,0.0,0.0,0.0,0.0,4.0042,4.0042,3.9537,3.9008,3.8455,3.8286,3.8286,3.8431,3.8286,3.8359,3.8647,3.9441,3.9898,4.0066,4.0836,4.1201,4.1201,4.1201,4.1201,4.1201,4.1201,4.1538,4.1995,4.1995,4.2591,4.3505,4.3505,4.3835,4.4364,0.0,0.0,0.0,0.0,0.0,0.0,0.0,0.0,0.0,0.0,0.0,0.0,0.0,0.0,2.7286,2.7613,2.7921,2.8097,2.8097,2.8304,2.858,2.8907,2.9132,2.9453,2.9779,2.9804,2.9804,2.9804,2.9804,2.9702,0.0,0.0,0.0,0.0,0.0,0.0,0.0,0.0,0.0,0.0,2.9653,0.0,0.0,3.131,3.1288,0.0,0.0,0.0,3.2176,3.2049,3.1862,0.0,0.0,0.0,0.0,0.0,0.0,0.0,0.0,0.0,0.0,0.0,0.0,0.0,3.8756,3.9452,0.0,0.0,0.0,0.0,0.0,0.0,0.0,0.0,0.0,0.0,0.0,0.0,0.0,0.0,0.0,0.0,0.0,0.0,0.0,0.0,3.9777,3.9513,3.9296,3.8767,3.831,3.8024,3.8,3.8,3.8,3.8,3.8121,3.8334,3.8984,3.9513,3.9946,4.0355,4.0643,4.0888,4.0888,4.0888,4.086,4.1129,4.1538,4.1971,4.1755,4.2399,4.3481,4.3289,4.3667,4.4357,0.0,0.0,0.0,0.0,0.0,0.0,0.0,0.0,0.0,0.0,0.0,0.0,0.0,0.0,0.0,0.0,2.8298,2.8298,2.8298,2.8731,2.9007,2.9007,2.9528,2.9804,2.9804,2.9804,2.9804,2.9804,2.9804,2.9585,0.0,0.0,0.0,0.0,0.0,0.0,0.0,0.0,0.0,2.9436,2.9914,3.0564,0.0,0.0,3.3044,0.0,3.3765,3.4078,3.4005,3.3731,3.3216,0.0,0.0,0.0,0.0,0.0,3.0638,0.0,0.0,0.0,0.0,0.0,0.0,0.0,3.7301,3.7938,3.8285,0.0,0.0,0.0,0.0,0.0,0.0,0.0,0.0,0.0,0.0,0.0,0.0,0.0,0.0,0.0,0.0,0.0,0.0,3.9596,3.9465,3.9224,3.8743,3.8262,3.8,3.8,3.8,3.8,3.8,3.8,3.8238,3.8692,3.8764,3.932,4.021,3.9801,3.9874,4.0306,4.0379,4.0403,4.0427,4.0984,4.1538,4.1947,4.1418,4.2134,4.3457,4.2982,4.3433,4.4357,0.0,0.0,0.0,0.0,0.0,0.0,0.0,0.0,0.0,0.0,0.0,0.0,0.0,0.0,0.0,0.0,2.9453,2.9453,2.9453,2.9553,2.9628,2.9628,2.9729,2.9804,2.9804,2.9804,2.9804,2.9804,2.9804,2.974,2.9663,0.0,0.0,0.0,0.0,0.0,0.0,0.0,0.0,2.9941,3.0058,0.0,3.3381,3.3332,3.3477,3.3813,3.4654,3.4702,3.4265,0.0,3.3397,3.2624,0.0,0.0,0.0,0.0,0.0,0.0,0.0,0.0,0.0,0.0,0.0,0.0,3.7353,3.7734,3.8342,0.0,0.0,0.0,0.0,0.0,0.0,0.0,0.0,0.0,0.0,0.0,0.0,0.0,0.0,0.0,0.0,0.0,4.0097,3.9041,3.8551,3.8289,3.8142,3.8072,3.8,3.8,3.8,3.8,3.8,3.8,3.8072,3.8142,3.8599,3.8908,3.9101,3.9465,3.9657,3.9777,4.021,4.0403,4.0427,4.0984,4.1538,4.1947,4.1418,4.2134,4.3457,4.2982,4.3433,4.4357,0.0,0.0,0.0,0.0,0.0,0.0,0.0,0.0,0.0,2.7645,2.8172,0.0,0.0,0.0,0.0,0.0,0.0,0.0,0.0,2.9804,2.9804,2.9804,2.9804,2.9804,2.9804,2.9804,2.9804,2.9804,2.9804,2.9721,2.9599,2.9365,0.0,0.0,0.0,0.0,0.0,0.0,2.9364,3.0131,3.0395,0.0,3.3934,3.3477,3.4102,3.5208,3.5355,3.5575,3.5721,3.5174,3.4812,0.0,0.0,3.2557,3.2541,0.0,3.1612,3.1543,0.0,0.0,0.0,3.5037,0.0,0.0,0.0,3.6682,3.6919,3.8274,0.0,0.0,0.0,0.0,0.0,0.0,0.0,0.0,0.0,0.0,0.0,0.0,0.0,0.0,0.0,0.0,3.9256,3.8463,3.8142,3.8,3.8,3.8,3.8,3.8,3.8,3.8,3.8,3.8,3.8,3.8,3.8262,3.8551,3.8788,3.8815,3.896,3.9248,3.9777,3.9994,4.0066,4.086,4.1369,4.161,4.161,4.2236,4.3144,4.3144,4.3649,4.4481,0.0,0.0,0.0,0.0,0.0,0.0,0.0,0.0,0.0,2.8473,2.8881,2.9283,0.0,0.0,0.0,0.0,0.0,0.0,0.0,0.0,2.9804,2.9804,2.9804,2.9804,2.9804,2.9804,2.9804,2.9804,2.9804,2.9702,2.9477,2.938,2.9165,0.0,0.0,0.0,0.0,0.0,0.0,3.0299,0.0,3.2178,3.3838,3.3549,3.4607,3.6218,3.5982,3.6428,3.6998,3.6179,0.0,3.6006,3.3793,3.3575,0.0,0.0,0.0,0.0,0.0,0.0,0.0,0.0,0.0,3.7044,0.0,0.0,0.0,3.6947,0.0,0.0,0.0,0.0,0.0,0.0,0.0,0.0,0.0,0.0,0.0,0.0,0.0,0.0,0.0,0.0,3.8238,3.7742,3.7748,3.7823,3.7856,3.7856,3.7878,3.8,3.8,3.8,3.8,3.8,3.8,3.8,3.8,3.8214,3.8647,3.819,3.8238,3.8695,3.932,3.9723,3.9989,4.1084,4.1521,4.1569,4.2006,4.2564,4.323,4.3853,4.4323,4.4895,2.4716,2.47,0.0,0.0,0.0,0.0,0.0,0.0,2.8524,2.9478,3.0061,0.0,0.0,0.0,0.0,0.0,0.0,0.0,3.1817,0.0,2.9804,2.9804,2.9804,2.9804,2.9804,2.9804,2.9804,2.9804,2.9804,2.9779,2.974,2.9326,2.9111,0.0,2.8697,0.0,0.0,0.0,3.0275,0.0,3.1382,3.2321,0.0,3.379,3.4655,3.5811,3.6698,3.6924,3.6699,0.0,3.5932,3.6004,0.0,3.4003,0.0,0.0,0.0,0.0,0.0,0.0,0.0,0.0,3.9165,0.0,0.0,0.0,3.8938,3.6849,0.0,0.0,0.0,0.0,0.0,0.0,0.0,0.0,0.0,0.0,0.0,0.0,0.0,0.0,0.0,0.0,0.0,3.6607,3.6898,3.7171,3.728,3.7276,3.7493,3.8,3.8,3.8,3.8,3.8,3.8,3.8,3.8,3.8048,3.8096,3.8048,3.8022,3.8169,3.9152,4.0166,4.1168,4.2241,4.269,4.2715,4.2765,4.3444,4.4543,4.5654,4.6028,4.6165,2.4967,2.5335,0.0,0.0,0.0,0.0,0.0,0.0,3.0181,3.0678,3.1486,0.0,0.0,0.0,0.0,0.0,0.0,3.1361,0.0,0.0,0.0,2.9804,2.9804,2.9804,2.9804,2.9804,2.9804,2.9804,2.9804,2.9804,2.9779,2.9443,2.9229,0.0,2.9296,0.0,2.934,0.0,3.0586,0.0,0.0,0.0,0.0,3.3613,3.4726,3.6185,3.7096,3.737,3.7219,0.0,3.6625,0.0,0.0,0.0,0.0,0.0,0.0,0.0,0.0,0.0,0.0,0.0,0.0,0.0,0.0,0.0,3.8289,0.0,0.0,0.0,0.0,0.0,0.0,0.0,0.0,0.0,0.0,0.0,0.0,0.0,0.0,0.0,0.0,0.0,0.0,0.0,0.0,3.5942,3.6481,3.6349,3.6675,3.7493,3.7543,3.7711,3.8,3.8608,3.8608,3.8,3.8635,3.8922,3.8896,3.8291,3.8344,3.8971,4.0108,4.0875,4.1436,4.3174,4.3908,4.3989,4.5038,4.5083,4.4825,4.6697,4.7357,4.753,2.5435,0.0,0.0,0.0,0.0,0.0,0.0,0.0,0.0,0.0,0.0,0.0,3.4248,3.3997,0.0,0.0,0.0,3.2997,0.0,0.0,3.0809,0.0,0.0,0.0,0.0,2.988,2.9804,2.9804,2.9804,2.9804,2.9779,2.9482,2.9263,2.9214,0.0,2.9943,2.9684,0.0,0.0,3.1926,3.2508,3.3283,3.413,3.4127,3.4988,3.6333,3.7567,3.789,3.7809,3.8089,3.7834,0.0,3.6983,0.0,0.0,0.0,0.0,0.0,3.7012,0.0,0.0,0.0,0.0,0.0,0.0,0.0,0.0,0.0,0.0,0.0,0.0,0.0,0.0,0.0,0.0,0.0,0.0,0.0,0.0,0.0,0.0,0.0,0.0,0.0,0.0,0.0,3.4131,0.0,3.5222,3.5211,3.564,3.6723,3.7036,3.7399,3.7784,3.8692,3.8765,3.8,3.9104,3.9597,3.9571,3.8792,3.887,3.9672,4.083,4.1495,4.197,4.42,4.5101,4.5288,4.7268,4.7025,4.5853,4.8039,4.8744,4.8868,2.6449,2.6474,0.0,0.0,0.0,0.0,0.0,0.0,0.0,0.0,0.0,0.0,0.0,0.0,0.0,0.0,0.0,3.5633,3.6183,0.0,3.1913,0.0,0.0,3.003,0.0,0.0,2.9804,2.9804,2.9804,2.9804,2.9804,2.9332,2.9229,2.9429,3.018,3.0438,3.05,3.2611,3.3556,3.3651,3.4141,3.5198,3.6415,0.0,3.5572,3.5912,3.8146,0.0,0.0,3.893,3.9478,0.0,0.0,0.0,0.0,0.0,0.0,0.0,0.0,0.0,0.0,0.0,0.0,0.0,0.0,0.0,3.9654,0.0,0.0,0.0,0.0,0.0,0.0,0.0,0.0,0.0,0.0,0.0,0.0,0.0,0.0,0.0,0.0,0.0,0.0,0.0,3.2676,0.0,3.3353,3.3813,3.4559,3.5616,3.6651,3.7204,3.7228,3.7786,3.8027,3.8,3.9104,3.9597,3.9597,3.9545,3.9571,3.9672,4.083,4.1973,4.3205,4.5443,4.6348,4.6561,4.8982,4.9161,4.8301,5.0152,5.0409,5.0123,0.0,0.0,0.0,0.0,0.0,0.0,0.0,3.111,0.0,0.0,0.0,0.0,0.0,0.0,3.9797,0.0,0.0,3.8065,3.7513,3.5531,0.0,0.0,0.0,3.1733,0.0,0.0,0.0,0.0,0.0,2.998,3.0312,2.9637,2.9539,3.0015,0.0,3.0819,0.0,0.0,0.0,0.0,0.0,3.6602,3.7283,0.0,0.0,3.8096,3.888,3.9017,0.0,3.9837,3.9601,3.8989,3.9189,3.8374,3.7379,3.7585,3.8285,0.0,0.0,0.0,4.2208,4.0263,0.0,0.0,0.0,0.0,0.0,0.0,0.0,0.0,0.0,0.0,0.0,0.0,0.0,0.0,0.0,0.0,0.0,0.0,0.0,0.0,0.0,0.0,0.0,3.0923,3.0838,3.116,0.0,3.2615,3.3477,3.4511,3.593,3.6843,3.7204,3.9141,3.9751,3.9078,4.0868,4.1715,4.169,4.0994,4.1252,4.2348,4.3168,4.4009,4.4902,4.6747,4.7767,4.8263,4.9518,5.0,5.0124,5.1118,5.1597,5.1961,2.7645,0.0,0.0,0.0,0.0,0.0,0.0,0.0,0.0,0.0,3.814,0.0,4.2512,0.0,4.2707,0.0,4.2183,4.0727,3.9019,3.7689,0.0,3.4527,3.3947,0.0,0.0,0.0,0.0,0.0,0.0,3.0557,3.0839,2.989,2.9756,3.0433,3.11,3.122,3.1071,0.0,3.447,0.0,0.0,3.8154,0.0,0.0,3.8323,0.0,0.0,3.9716,3.9847,4.0802,4.0506,3.983,4.0587,3.9601,3.8338,3.9024,3.9445,3.9718,3.9835,4.1395,0.0,0.0,4.1105,0.0,0.0,0.0,0.0,0.0,0.0,0.0,0.0,0.0,0.0,0.0,0.0,0.0,0.0,0.0,0.0,0.0,0.0,0.0,0.0,0.0,3.0331,2.988,2.9906,3.0135,0.0,0.0,3.2611,3.3429,3.5183,3.654,3.7481,3.9373,4.0285,4.0185,4.1961,4.2792,4.2792,4.2086,4.248,4.3739,4.4414,4.5037,4.5712,4.7422,4.8474,4.9063,4.9734,5.0352,5.0999,5.1815,5.2517,5.3164,0.0,0.0,0.0,0.0,2.986,0.0,0.0,0.0,3.5956,0.0,3.9823,4.2185,4.4039,4.4662,4.5133,4.5716,4.5158,0.0,4.0876,4.0174,0.0,0.0,3.523,3.4653,3.4048,0.0,0.0,0.0,0.0,0.0,3.1436,3.0064,2.9884,3.0713,3.156,0.0,3.1373,3.463,3.6259,3.6866,3.8523,3.976,4.0463,3.9311,0.0,3.8929,4.0166,4.0639,4.0817,4.1773,4.2092,4.2092,4.2063,4.1599,4.1076,4.1047,4.1076,4.1105,4.1105,4.1163,4.1221,4.1192,0.0,0.0,0.0,0.0,4.2644,0.0,0.0,0.0,0.0,0.0,0.0,0.0,0.0,0.0,0.0,0.0,0.0,0.0,0.0,0.0,0.0,3.1353,3.0861,3.0076,2.9771,2.9544,0.0,0.0,0.0,3.2442,3.4511,3.6381,3.7964,3.8567,3.965,4.1294,4.2306,4.2816,4.2889,4.2889,4.3242,4.3868,4.4489,4.514,4.5844,4.7476,4.8502,4.912,4.979,5.0436,5.1167,5.2321,5.3164,5.3754,2.8781,2.9484,3.0161,0.0,3.008,3.0557,0.0,0.0,0.0,0.0,4.2912,4.5473,4.9975,4.9685,4.9239,4.943,4.8103,0.0,0.0,0.0,0.0,3.9295,3.8718,3.7588,3.5805,3.4801,0.0,3.2663,0.0,0.0,3.2612,3.0643,3.0448,3.1792,3.2006,3.2056,3.2098,3.4839,3.6849,3.8295,3.9664,4.0346,0.0,0.0,4.1029,4.0753,4.092,4.1299,4.1752,4.2009,4.2092,4.2005,4.1512,4.1221,4.0989,4.0495,4.0699,4.1105,4.1105,4.215,4.3158,4.2644,4.2498,4.2353,0.0,0.0,0.0,0.0,0.0,0.0,0.0,0.0,0.0,0.0,0.0,0.0,0.0,0.0,0.0,0.0,0.0,0.0,2.9845,2.9859,2.9541,2.8975,2.8842,0.0,0.0,0.0,0.0,3.1887,3.4318,3.6381,3.7964,3.8944,4.0412,4.2404,4.2671,4.3228,4.3969,4.3969,4.4606,4.5637,4.5828,4.6498,4.7529,4.8427,4.9148,4.9818,5.0436,5.1617,5.3023,5.3332,5.3838,5.4429,2.9659,0.0,0.0,3.1964,0.0,0.0,3.4774,0.0,0.0,4.2576,4.4987,0.0,5.0848,5.188,5.2314,5.2375,5.0777,0.0,0.0,0.0,0.0,4.1747,4.1362,3.9905,3.7161,3.6006,0.0,3.3467,0.0,0.0,3.2667,3.0959,3.0758,3.1863,3.2114,3.2365,3.2798,3.5791,3.7903,3.9369,4.0407,0.0,0.0,4.1105,4.127,4.1304,4.1154,4.1541,4.2092,4.2092,4.2092,4.2034,4.1657,4.1541,4.1453,4.1076,4.125,4.1541,4.1541,4.2324,4.3079,4.2702,4.2789,4.2847,4.2237,4.2557,4.2905,0.0,0.0,0.0,0.0,0.0,0.0,0.0,0.0,0.0,0.0,0.0,0.0,0.0,0.0,0.0,2.8955,2.9273,2.9212,2.8542,0.0,0.0,0.0,0.0,0.0,0.0,3.4524,3.6895,3.8673,4.0248,4.1862,4.3491,4.3491,4.3828,4.4401,4.4654,4.5328,4.6307,4.6588,4.7235,4.8137,4.8754,4.9398,5.0097,5.0942,5.2292,5.3698,5.3698,5.4091,5.4681,0.0,0.0,0.0,0.0,0.0,0.0,0.0,3.8376,0.0,4.3779,0.0,4.9579,5.051,5.3085,5.4767,5.4797,0.0,5.1217,4.9526,4.9307,4.7541,4.3834,4.365,4.211,3.8838,3.7518,0.0,0.0,0.0,0.0,3.229,3.114,3.0914,3.1512,3.2064,3.2769,0.0,3.6871,3.8874,4.0068,4.0796,4.1163,4.1163,4.0583,4.0728,4.1221,4.1221,4.1599,4.2092,4.2092,4.2092,4.2092,4.2092,4.2092,4.2092,4.2092,4.215,4.2208,4.2208,4.2266,4.2353,4.2353,4.2731,4.2992,4.2469,4.2818,4.3245,4.3158,4.2702,0.0,0.0,0.0,0.0,0.0,0.0,0.0,0.0,0.0,0.0,0.0,0.0,0.0,0.0,0.0,0.0,0.0,0.0,0.0,0.0,0.0,0.0,0.0,3.4736,0.0,3.9907,0.0,4.316,4.4514,4.4312,4.4312,4.4542,4.5047,4.5693,4.6448,4.6982,4.7519,4.8137,4.8754,4.9454,5.0212,5.1364,5.2601,5.3698,5.3698,5.4147,5.4793,0.0,0.0,0.0,0.0,0.0,3.9651,4.2511,4.4124,4.6363,5.0063,5.2188,0.0,5.7903,5.7336,5.6738,5.6798,5.4616,0.0,0.0,0.0,0.0,4.665,4.6569,4.5358,4.2762,4.0616,3.8777,0.0,0.0,0.0,3.2914,3.1336,3.1115,3.2089,3.2667,3.4049,3.5939,3.6637,0.0,4.015,4.0839,4.1424,4.1918,4.1773,4.1831,4.1918,4.1918,4.2005,4.2092,4.2092,4.2092,4.2092,4.2092,4.2092,4.2092,4.2092,4.244,4.2847,4.2847,4.3245,4.366,4.366,4.3768,4.3805,4.3689,4.4124,4.4436,4.3942,4.3747,4.3362,4.2295,0.0,0.0,0.0,0.0,0.0,0.0,0.0,0.0,0.0,0.0,0.0,0.0,0.0,0.0,0.0,0.0,0.0,0.0,0.0,0.0,0.0,0.0,0.0,0.0,0.0,0.0,4.5132,4.3739,4.3815,4.516,4.5244,4.5946,4.7066,4.715,4.7519,4.8137,4.8754,4.9707,5.0802,5.1533,5.2601,5.3698,5.3698,5.44,5.5355,0.0,0.0,0.0,0.0,0.0,0.0,0.0,4.9368,0.0,5.1178,5.2911,5.4647,5.5879,5.7367,5.8023,5.7367,5.5937,5.4684,5.3811,5.2853,5.1371,4.9272,4.858,0.0,4.3764,4.1696,3.9607,3.7464,0.0,0.0,0.0,3.1813,3.1712,3.2261,3.3581,3.4959,0.0,0.0,0.0,4.0391,4.1249,4.1599,4.1628,4.1976,4.1889,4.1628,4.1976,4.2092,4.2092,4.2092,4.2092,4.2092,4.2092,4.2295,4.2557,4.2557,4.276,4.2992,4.2992,4.2992,4.3079,4.3398,4.3456,4.3573,4.3921,4.4211,4.4436,4.4465,4.3942,4.3079,4.1802,4.0002,0.0,0.0,0.0,0.0,0.0,0.0,0.0,0.0,0.0,0.0,0.0,0.0,0.0,0.0,0.0,0.0,0.0,0.0,0.0,0.0,0.0,0.0,0.0,0.0,0.0,4.4823,4.4014,4.4232,4.53,4.5637,4.6335,4.7235,4.7519,4.7828,4.8165,4.9145,5.0241,5.1449,5.2012,5.2826,5.3754,5.4063,5.4709,5.5496,0.0,3.6828,0.0,0.0,4.3726,0.0,0.0,5.2746,5.4882,5.1718,5.3403,5.4484,5.3346,5.662,5.8464,5.739,5.6752,5.6345,5.62,5.5126,5.3477,5.1143,5.0122,4.8016,4.467,4.2817,4.059,0.0,0.0,0.0,0.0,0.0,0.0,0.0,0.0,0.0,0.0,0.0,3.9823,4.0696,4.155,4.1657,4.1366,4.1889,4.1773,4.1366,4.1918,4.2092,4.2092,4.2092,4.2092,4.2121,4.2237,4.2615,4.3021,4.3166,4.3282,4.3398,4.3398,4.3071,4.2789,4.3282,4.3398,4.3544,4.4066,4.4298,4.4494,4.4843,4.3979,4.2818,4.1541,4.0495,0.0,0.0,0.0,0.0,0.0,0.0,0.0,0.0,0.0,0.0,0.0,0.0,0.0,0.0,0.0,0.0,0.0,0.0,0.0,0.0,0.0,0.0,4.1094,0.0,4.4777,0.0,4.4678,4.4963,4.5721,4.6251,4.6813,4.7406,4.7884,4.8165,4.8389,4.9537,5.0633,5.1646,5.2264,5.2995,5.3754,5.4232,5.485,5.5496,0.0,0.0,0.0,0.0,0.0,0.0,0.0,5.2261,5.4724,5.4902,5.6641,5.7597,5.6873,5.7218,5.7448,5.7303,5.6752,5.6142,5.5533,5.4894,5.3622,5.1635,5.1432,5.0134,4.7465,4.5531,4.3204,0.0,0.0,0.0,0.0,0.0,0.0,0.0,0.0,0.0,0.0,3.797,3.9207,4.1071,4.1152,4.1512,4.2005,4.2063,4.2063,4.2005,4.2063,4.2092,4.2092,4.2092,4.2092,4.2179,4.2731,4.2934,4.3108,4.3718,4.4269,4.4727,4.4727,4.4698,4.4669,4.4727,4.4727,4.4756,4.4814,4.5308,4.5569,4.5017,4.4356,4.3515,4.2237,4.1918,4.1392,0.0,0.0,0.0,0.0,0.0,0.0,0.0,0.0,0.0,0.0,0.0,0.0,0.0,0.0,0.0,0.0,0.0,0.0,0.0,0.0,3.7511,4.1163,4.2416,0.0,4.6111,4.5497,4.5834,4.7038,4.7094,4.7434,4.8024,4.808,4.8417,4.8979,4.9705,5.038,5.1055,5.1673,5.2629,5.3698,5.3754,5.4513,5.5496,0.0,0.0,0.0,0.0,0.0,0.0,0.0,5.3408,5.4865,5.4342,5.5968,5.6897,5.6229,5.6839,5.7158,5.681,5.6549,5.6287,5.6026,5.5068,5.3967,5.2778,5.1994,5.0747,4.9001,4.7056,4.4509,0.0,0.0,0.0,0.0,0.0,0.0,0.0,0.0,3.7737,3.9104,4.0041,4.0937,4.1715,4.2092,4.2179,4.2092,4.2092,4.2092,4.2092,4.2092,4.2092,4.2092,4.2092,4.2092,4.2208,4.2789,4.2992,4.3195,4.4262,4.4465,4.4436,4.4814,4.464,4.4465,4.4814,4.4901,4.5017,4.5424,4.5714,4.583,4.5569,4.4988,4.4146,4.2876,4.2324,4.1897,0.0,0.0,0.0,0.0,0.0,0.0,0.0,0.0,0.0,0.0,0.0,0.0,0.0,0.0,0.0,0.0,0.0,0.0,3.3552,0.0,3.8711,4.1418,4.2976,4.4415,4.5693,4.544,4.5974,4.7207,4.7207,4.7519,4.8108,4.8474,4.9007,4.9649,5.0268,5.0886,5.1561,5.2545,5.3248,5.3782,5.4513,5.5299,5.6002,4.5703,0.0,4.7283,0.0,5.0371,5.129,5.2655,5.3994,5.4517,5.3619,5.472,5.5387,5.4894,5.5997,5.6578,5.6142,5.6287,5.6316,5.6142,5.5097,5.4139,5.3268,5.2169,0.0,4.9441,4.77,4.5255,4.2087,4.1483,0.0,0.0,0.0,0.0,0.0,3.8488,3.943,4.0552,4.1814,4.2469,4.2702,4.3108,4.3021,4.2644,4.2644,4.2644,4.2615,4.244,4.2498,4.2615,4.244,4.2498,4.2731,4.3166,4.342,4.3747,4.485,4.4879,4.4669,4.5075,4.4879,4.4669,4.5104,4.5191,4.5337,4.5801,4.5917,4.5917,4.5917,4.554,4.4872,4.3768,4.305,4.2565,0.0,0.0,0.0,0.0,0.0,0.0,0.0,0.0,3.5134,3.2927,0.0,0.0,0.0,0.0,0.0,0.0,0.0,0.0,0.0,0.0,0.0,0.0,0.0,4.5075,4.5862,4.5862,4.6423,4.7463,4.7463,4.7771,4.8389,4.8839,4.9457,5.0296,5.0718,5.1364,5.2152,5.3051,5.3641,5.4063,5.4906,5.5636,5.6086,4.9722,5.0834,5.1936,5.3213,5.3445,5.3471,5.3474,5.3503,5.3503,5.3474,5.3503,5.3532,5.3503,5.4662,5.5416,5.5416,5.6026,5.6142,5.5474,5.4865,5.3936,0.0,0.0,5.0689,4.8745,4.7468,4.5553,4.2992,0.0,0.0,3.9151,0.0,0.0,4.0098,4.0766,4.1453,4.21,4.2731,4.3369,4.3979,4.3979,4.3979,4.3979,4.3979,4.3979,4.3892,4.3245,4.3398,4.3863,4.3195,4.3427,4.3979,4.3979,4.4407,4.5017,4.5685,4.5888,4.5888,4.5888,4.5888,4.5888,4.5888,4.5888,4.5888,4.5917,4.5917,4.5917,4.5917,4.5888,4.5685,4.5017,4.4356,4.3682,4.281,0.0,0.0,0.0,0.0,0.0,0.0,3.7256,3.6875,3.4395,3.3459,0.0,0.0,0.0,0.0,0.0,0.0,0.0,3.5608,3.8096,0.0,4.2082,4.42,4.5918,4.7178,4.7178,4.7491,4.808,4.808,4.8417,4.8981,4.8981,4.9735,5.0886,5.0886,5.1617,5.2686,5.2714,5.3473,5.4569,5.4597,5.499,5.5524,5.1474,5.2306,5.3077,5.3899,5.3893,5.3789,5.3789,5.3605,5.3474,5.3474,5.388,5.4197,5.4197,5.4923,5.5765,0.0,5.652,5.6113,0.0,5.4865,5.3936,5.2655,5.1962,5.0892,4.9412,4.813,4.6446,4.432,0.0,0.0,0.0,4.1599,4.1889,4.2092,4.2295,4.2992,4.4008,4.4211,4.4436,4.4589,4.4589,4.4356,4.3979,4.3979,4.3979,4.395,4.3768,4.3805,4.395,4.3747,4.4117,4.4589,4.4589,4.4465,4.4494,4.5576,4.5598,4.5337,4.5801,4.5917,4.5917,4.5917,4.5917,4.5917,4.5917,4.5917,4.5917,4.5917,4.5917,4.5714,4.5017,4.4407,4.3754,4.3023,0.0,0.0,0.0,0.0,0.0,0.0,0.0,3.6211,0.0,3.4148,0.0,0.0,0.0,0.0,0.0,0.0,0.0,0.0,3.9305,0.0,4.3027,4.4564,4.5946,4.7207,4.7603,4.8387,4.9396,4.8923,4.9063,4.9679,5.0101,5.0549,5.0942,5.1336,5.1731,5.2152,5.3051,5.3641,5.4091,5.4906,5.5608,5.6058,5.2836,5.3761,5.4451,5.4333,5.4355,5.4339,5.4104,5.4124,5.4107,5.3844,5.4524,5.5026,5.4997,5.5471,0.0,5.6549,5.6258,0.0,5.5099,5.4487,5.3675,5.2626,5.1962,5.0892,4.9354,0.0,0.0,4.4901,4.4037,4.3362,4.2818,4.2934,4.3137,4.3369,4.3602,4.4175,4.493,4.5162,4.5278,4.5278,4.5278,4.5046,4.4705,4.4705,4.4705,4.4676,4.4436,4.4501,4.4698,4.4414,4.4756,4.5278,4.5278,4.5017,4.485,4.5685,4.5598,4.5366,4.5801,4.5917,4.5917,4.5917,4.5917,4.5917,4.5917,4.5917,4.5917,4.5917,4.5917,4.5772,4.5366,4.4581,4.3863,4.3427,0.0,0.0,0.0,0.0,0.0,0.0,0.0,0.0,0.0,3.5725,0.0,0.0,0.0,0.0,0.0,0.0,0.0,3.7834,4.0737,0.0,4.4537,4.5525,4.6536,4.7547,4.8137,4.9005,5.0013,4.9567,4.9735,5.0352,5.0746,5.1027,5.128,5.1645,5.2068,5.2601,5.3388,5.3979,5.4485,5.5215,5.5749,5.603,5.3911,5.5271,0.0,0.0,5.4949,0.0,5.4506,5.4893,5.51,5.451,5.5301,5.5904,5.582,5.6218,5.6171,5.5416,0.0,0.0,0.0,5.388,5.321,5.2568,5.1904,0.0,4.8687,4.8072,4.6847,4.4901,4.3768,4.3485,4.4059,4.3456,4.3515,4.4175,4.4727,4.4959,4.4959,4.5627,4.5866,4.583,4.5888,4.5917,4.5917,4.5917,4.5917,4.583,4.5191,4.5366,4.5801,4.5191,4.5372,4.5888,4.5859,4.5837,4.5917,4.5917,4.5917,4.5917,4.5917,4.5917,4.5917,4.5917,4.5917,4.5917,4.5917,4.5917,4.5917,4.5917,4.5917,4.5917,4.5917,4.485,4.3979,4.3942,4.204,4.0347,3.977,0.0,0.0,0.0,0.0,0.0,0.0,3.7898,3.8179,0.0,0.0,0.0,0.0,0.0,0.0,3.9929,4.2317,4.4453,4.6335,4.6954,4.7603,4.8305,4.8839,4.9454,5.0125,5.0097,5.038,5.0971,5.0971,5.128,5.1787,5.1787,5.2545,5.3641,5.3641,5.4372,5.544,5.544,5.5468,5.5496,0.0,0.0,5.6672,5.5867,5.6073,5.6123,5.5471,5.5319,5.5424,5.5804,5.6075,5.6118,5.5904,5.6819,5.671,5.4865,5.562,5.591,5.5242,5.4139,5.2981,5.1904,5.1236,4.9988,4.8043,4.7863,4.6847,4.4901,4.5104,4.5046,4.4676,4.5046,4.5308,4.5453,4.5598,4.5395,4.4959,4.5627,4.5598,4.5191,4.5685,4.5917,4.5917,4.5917,4.5917,4.5888,4.5743,4.5772,4.5888,4.5743,4.5772,4.583,4.5308,4.5511,4.5917,4.5917,4.5917,4.5917,4.5917,4.5917,4.5917,4.5917,4.5917,4.5917,4.5917,4.5917,4.5917,4.5917,4.5917,4.5917,4.5917,4.485,4.3834,4.3311,4.1951,4.0478,3.9077,0.0,0.0,0.0,3.8283,3.8741,3.891,3.891,3.893,0.0,0.0,0.0,0.0,0.0,4.1915,4.1946,4.3413,4.5099,4.6982,4.7575,4.8696,5.024,4.993,5.0324,5.1364,5.0886,5.1027,5.1589,5.1589,5.1646,5.1787,5.1787,5.2236,5.2939,5.2939,5.3697,5.4793,5.4793,5.5102,5.5496,5.6132,5.718,5.7633,5.6402,5.684,5.6918,5.5666,5.6102,5.6384,5.5876,5.6482,5.6648,5.5896,5.6589,5.6575,5.5226,5.5587,5.5416,5.4197,5.3471,5.2514,5.1236,5.0593,4.949,4.7834,4.7491,4.6679,4.5366,4.5743,4.5714,4.5366,4.5743,4.5917,4.5917,4.5917,4.5714,4.5395,4.5743,4.5511,4.4959,4.5627,4.5714,4.5482,4.5801,4.5917,4.5917,4.5917,4.5917,4.5917,4.5917,4.5917,4.5859,4.5482,4.5627,4.5917,4.5917,4.5917,4.5917,4.5917,4.5917,4.5917,4.5917,4.5917,4.5917,4.5917,4.5917,4.5917,4.5917,4.5917,4.5917,4.5917,4.485,4.3776,4.3108,4.1604,4.0103,3.8897,3.8665,0.0,3.848,3.9307,3.9942,4.0203,4.0681,4.0793,4.0238,0.0,0.0,4.1103,4.3132,4.3919,4.3042,4.5015,4.6564,4.7603,4.8499,4.9621,5.0886,5.0577,5.0886,5.1787,5.1477,5.1505,5.1787,5.1787,5.1787,5.1787,5.1787,5.2321,5.3135,5.3135,5.3922,5.499,5.499,5.5215,5.5496,5.6462,5.7723,5.8231,5.6492,5.7184,5.7393,5.5748,5.6825,5.7304,5.5837,5.6706,5.6997,5.5842,5.611,5.614,5.5638,5.5313,5.4483,5.283,5.2568,5.1929,5.0739,4.9954,4.8996,4.7834,4.7033,4.6417,4.5917,4.5917,4.5917,4.5917,4.5917,4.5917,4.5917,4.5917,4.5859,4.5772,4.5859,4.5511,4.4959,4.5627,4.5569,4.5104,4.5685,4.5917,4.5888,4.5801,4.583,4.5866,4.5801,4.583,4.5888,4.5801,4.583,4.5888,4.5801,4.583,4.5917,4.5917,4.5917,4.5917,4.5917,4.5917,4.5917,4.5917,4.5917,4.5917,4.5917,4.5917,4.5917,4.5917,4.485,4.3776,4.3108,4.1253,3.962,3.8947,0.0,3.8879,3.9252,4.0449,4.1212,4.1131,4.2486,4.2823,4.1502,4.3188,0.0,0.0,4.479,4.5244,4.4228,4.6732,4.8249,4.8502,4.9593,5.0436,5.1055,5.1055,5.1308,5.1787,5.1787,5.1787,5.1787,5.1787,5.1787,5.1787,5.1899,5.2545,5.3557,5.367,5.44,5.5355,5.5355,5.5412,5.5496,5.7666,5.7603,5.7154,5.6342,5.6791,5.7154,5.6855,5.6641,5.6765,5.7547,5.6948,5.6247,5.5723,5.6239,5.6077,5.4664,5.429,5.3911,5.3384,5.2368,5.1439,5.0739,4.9524,4.8537,4.7834,4.6644,4.5982,4.5917,4.5917,4.5917,4.5917,4.5917,4.5917,4.5917,4.5917,4.5598,4.5104,4.5656,4.5511,4.4959,4.5627,4.5859,4.5772,4.5859,4.5917,4.583,4.5278,4.5424,4.583,4.5249,4.5453,4.5801,4.5249,4.5453,4.5801,4.522,4.5453,4.5917,4.5917,4.5917,4.5917,4.5917,4.5917,4.5917,4.5917,4.5917,4.5917,4.5917,4.5917,4.5917,4.5917,4.485,4.3776,4.3108,4.1346,3.9729,0.0,0.0,3.9463,3.9668,4.1258,4.2531,4.302,4.2874,4.3245,4.4486,4.4003,4.4256,4.5633,4.6982,4.7575,4.7378,4.7856,4.8839,5.0465,5.0661,5.1055,5.1673,5.1673,5.1702,5.1787,5.1787,5.1787,5.1787,5.1787,5.1787,5.1843,5.2349,5.2686,5.2911,5.3473,5.4147,5.4737,5.4737,5.5046,5.5496,5.7004,5.7094,5.6885,5.6312,5.6701,5.6855,5.6166,5.6406,5.6645,5.6555,5.6316,5.5991,5.5479,5.5692,5.5529,5.4649,5.4111,5.3502,5.2716,5.169,5.083,5.0187,4.8914,4.7753,4.6818,4.6208,4.5917,4.5917,4.5917,4.5917,4.5917,4.5917,4.5917,4.5866,4.554,4.5395,4.5453,4.5372,4.5191,4.4959,4.5627,4.5663,4.5395,4.575,4.5917,4.5859,4.5569,4.5656,4.5859,4.554,4.5656,4.5859,4.554,4.5656,4.5859,4.554,4.5656,4.5917,4.5917,4.5917,4.5917,4.5917,4.5917,4.5917,4.5917,4.5917,4.5917,4.5917,4.5917,4.5917,4.5917,4.485,4.3892,4.3573,4.1889,0.0,0.0,4.0383,4.085,4.1262,4.2474,4.3647,4.4607,4.4298,4.4565,4.5774,4.5633,4.6026,4.7207,4.8108,4.8895,4.9595,4.9595,5.0157,5.1364,5.1392,5.1533,5.1787,5.2124,5.2096,5.1787,5.2124,5.2264,5.2264,5.2264,5.2489,5.2826,5.2742,5.2911,5.3276,5.3585,5.4063,5.4625,5.4962,5.5271,5.5496,5.6402,5.6671,5.6701,5.6072,5.6372,5.6376,5.5564,5.6282,5.6585,5.5748,5.5983,5.6013,5.5504,5.5269,5.5103,5.493,5.4081,5.3173,5.2272,5.1236,5.031,4.9519,4.827,4.7027,4.5917,4.5917,4.5917,4.5917,4.5917,4.5917,4.5917,4.5917,4.5917,4.5888,4.5343,4.5424,4.5888,4.5366,4.5133,4.5191,4.5685,4.5598,4.5191,4.5714,4.5917,4.5888,4.5743,4.5772,4.5888,4.5743,4.5772,4.5917,4.5917,4.5917,4.5917,4.5917,4.5917,4.5917,4.5917,4.5917,4.5917,4.5917,4.5917,4.5917,4.5917,4.5917,4.5917,4.5917,4.5917,4.5917,4.5917,4.4966,4.4153,4.4008,0.0,0.0,0.0,4.1715,4.2245,4.2804,4.3629,4.4568,4.5751,4.5785,4.6002,4.6673,4.7291,4.7884,4.8527,4.9232,5.0159,5.128,5.1336,5.1477,5.1787,5.1927,5.1927,5.1787,5.2264,5.2236,5.1815,5.2433,5.2714,5.2714,5.2854,5.322,5.367,5.3276,5.336,5.3726,5.4007,5.4344,5.4653,5.5271,5.5496,5.5496,5.7034,5.6611,5.6072,5.5414,5.5299,5.5534,5.6042,5.6222,5.6432,5.6885,5.6521,5.6162,5.6132,5.5593,5.5179,5.5154,5.3764,5.2818,5.2763,5.1335,4.9978,4.8827,4.7555,4.6569,4.5917,4.5917,4.5917,4.5917,4.5917,4.5917,4.5917,4.5917,4.5917,4.5917,4.5859,4.5859,4.5917,4.5859,4.583,4.583,4.5888,4.5888,4.583,4.5888,4.5917,4.583,4.522,4.5372,4.5801,4.5191,4.5395,4.5917,4.5917,4.5917,4.5917,4.5917,4.5917,4.5917,4.5917,4.5917,4.5917,4.5917,4.5917,4.5917,4.5917,4.5917,4.5917,4.5917,4.5917,4.5917,4.5917,4.5337,4.4669,4.4066,0.0,0.0,4.1765,4.2467,4.3228,4.3652,4.4588,4.5464,4.6191,4.6729,4.7294,4.7912,4.853,4.9148,4.9818,5.0971,5.1899,5.2545,5.2574,5.2321,5.1787,5.2349,5.2349,5.1787,5.1843,5.1843,5.1815,5.2433,5.2714,5.2742,5.336,5.3641,5.3754,5.426,5.4176,5.381,5.4934,5.5046,5.4653,5.5271,5.5496,5.5496,5.7004,5.6915,5.6701,5.6406,5.6376,5.6466,5.6705,5.6432,5.6432,5.7004,5.6581,5.6192,5.6192,5.5983,5.5653,5.5239,5.4242,5.361,5.3431,5.2091,5.0589,4.9031,4.7992,4.7114,4.6453,4.6098,4.5917,4.5917,4.5917,4.5917,4.5917,4.5917,4.5917,4.5888,4.5482,4.5511,4.5866,4.5453,4.554,4.5917,4.5917,4.5917,4.5917,4.5917,4.5917,4.5888,4.5627,4.5663,4.5859,4.5627,4.5685,4.5917,4.5917,4.5917,4.5917,4.5917,4.5917,4.5917,4.5917,4.5917,4.5917,4.5917,4.5917,4.5982,4.6388,4.6453,4.6592,4.6969,4.7079,4.7079,4.7079,4.6237,4.5547,4.5721,0.0,4.4219,4.4276,4.4729,4.511,4.5379,4.5713,4.6216,4.6982,4.7478,4.7996,4.8614,4.9597,5.0438,5.1083,5.2292,5.3079,5.3332,5.3669,5.3192,5.1787,5.2405,5.2574,5.2349,5.2798,5.277,5.2377,5.3416,5.3669,5.336,5.4007,5.4485,5.4793,5.4653,5.4485,5.4316,5.4737,5.4793,5.4653,5.5271,5.5496,5.5496,5.6974,5.7094,5.7094,5.7094,5.6944,5.6885,5.7064,5.6761,5.6731,5.7334,5.7034,5.6731,5.6521,5.6312,5.5923,5.5239,5.4581,5.4027,5.3615,5.2297,5.0674,4.8905,4.8045,4.7265,4.6511,4.6098,4.5917,4.5917,4.5917,4.5917,4.5917,4.5917,4.5917,4.5888,4.5424,4.5482,4.5888,4.5424,4.5482,4.5917,4.5917,4.5917,4.5917,4.5917,4.5917,4.5917,4.5917,4.5917,4.5917,4.5917,4.5917,4.5917,4.5917,4.5917,4.5917,4.5917,4.6011,4.6185,4.6185,4.633,4.6469,4.6243,4.6185,4.6359,4.6975,4.7091,4.7236,4.7718,4.7805,4.7805,4.7805,4.7079,4.6563,4.6772,4.6243,4.5917,4.6156,4.6368,4.6594,4.6837,4.6934,4.7243,4.7885,4.8576,4.9148,4.9569,5.0578,5.1533,5.2348,5.322,5.3782,5.3979,5.44,5.3894,5.2433,5.2995,5.3107,5.2714,5.3388,5.336,5.2742,5.4007,5.4372,5.4035,5.4597,5.5102,5.5468,5.5046,5.4878,5.4878,5.4878,5.4878,5.4934,5.5355,5.5496,5.5524,5.6974,5.7094,5.7094,5.7094,5.6611,5.6402,5.7004,5.7094,5.7334,5.7995,5.8085,5.7846,5.7154,5.6551,5.5953,5.5239,5.4581,5.3922,5.3258,5.1709,5.0047,4.829,4.7564,4.6807,4.5946,4.5917,4.5917,4.5917,4.5917,4.5917,4.5917,4.5917,4.5917,4.5917,4.5917,4.5917,4.5917,4.5917,4.5917,4.5917,4.5917,4.5917,4.5917,4.5917,4.5917,4.5917,4.5917,4.5917,4.5917,4.5917,4.5917,4.5917,4.5917,4.5917,4.5917,4.5917,4.633,4.6801,4.683,4.7288,4.766,4.6975,4.683,4.6975,4.766,4.7805,4.7834,4.7834,4.7834,4.7834,4.7834,4.7805,4.7579,4.6946,4.7375,4.7579,4.6917,4.7165,4.754,4.7876,4.8287,4.8635,4.8977,5.0157,5.0886,5.0886,5.1477,5.2376,5.3641,5.3698,5.3979,5.4597,5.4625,5.4344,5.3726,5.4316,5.395,5.2714,5.3388,5.336,5.277,5.4035,5.4597,5.4625,5.5243,5.5496,5.5496,5.5496,5.5496,5.5496,5.5496,5.5496,5.5496,5.5524,5.5524,5.558,5.7603,5.7423,5.7244,5.7696,5.7663,5.7453,5.7124,5.7513,5.7723,5.7423,5.7786,5.7666,5.6611,5.6701,5.6402,5.5299,5.4999,5.461,5.3952,5.3011,5.1768,5.0183,4.9262,4.8406,4.7508,4.704,4.6512,4.5917,4.5917,4.5917,4.5917,4.5917,4.5917,4.5917,4.5917,4.5917,4.5917,4.5917,4.5917,4.5917,4.5917,4.5917,4.5917,4.5917,4.5917,4.5917,4.5917,4.5917,4.5917,4.5917,4.5917,4.5917,4.5917,4.5917,4.5982,4.6417,4.6656,4.6888,4.7375,4.766,4.7747,4.755,4.7491,4.7666,4.8304,4.8798,4.9257,4.9751,4.9838,4.9838,4.9838,4.9059,4.8513,4.8803,4.9001,4.9059,4.8861,4.9188,4.9478,4.9576,4.9527,4.9696,5.0192,5.0988,5.1472,5.1472,5.2467,5.3324,5.3951,5.4601,5.514,5.5563,5.5764,5.5794,5.5595,5.4939,5.44,5.4035,5.426,5.4232,5.4063,5.485,5.499,5.4625,5.5243,5.5496,5.5496,5.5496,5.5496,5.5496,5.5496,5.5496,5.5552,5.6002,5.6142,5.6226,5.7154,5.7004,5.6944,5.7603,5.7513,5.7393,5.7483,5.7633,5.7752,5.7872,5.7995,5.7723,5.6671,5.6671,5.6342,5.5269,5.497,5.464,5.4251,5.3324,5.2408,5.1435,5.0638,4.9461,4.7988,4.7577,4.6958,4.6187,4.6068,4.6023,4.6023,4.5962,4.5917,4.5917,4.5917,4.5917,4.5917,4.5917,4.5917,4.5917,4.5917,4.5917,4.5917,4.5917,4.5917,4.5917,4.5917,4.5917,4.5917,4.5917,4.5917,4.5946,4.6185,4.6272,4.6388,4.7027,4.7352,4.7642,4.8043,4.8357,4.856,4.856,4.8357,4.8391,4.9291,4.9785,5.0274,5.0917,5.1062,5.1062,5.1062,5.0394,4.9992,5.0399,5.0249,5.01,5.0104,5.0299,5.0406,5.0306,5.059,5.0866,5.1135,5.1735,5.208,5.208,5.3023,5.3798,5.4231,5.5053,5.5709,5.6135,5.6336,5.6394,5.6394,5.5679,5.5195,5.4941,5.5195,5.5195,5.4969,5.5476,5.5702,5.5705,5.5556,5.5695,5.6009,5.5667,5.5496,5.5496,5.5496,5.5664,5.5917,5.6253,5.6592,5.6901,5.6072,5.6162,5.6312,5.6885,5.6581,5.6611,5.7726,5.7513,5.7603,5.877,5.8444,5.7816,5.7094,5.6521,5.5923,5.5239,5.464,5.4311,5.4311,5.3025,5.2276,5.2276,5.1588,5.0123,4.7872,4.782,4.745,4.6779,4.6475,4.6364,4.6393,4.6104,4.6014,4.6072,4.6014,4.5962,4.594,4.594,4.5917,4.5917,4.5917,4.5917,4.5917,4.5917,4.5917,4.5917,4.5917,4.5917,4.5917,4.5917,4.5946,4.6069,4.6627,4.683,4.7004,4.7666,4.8275,4.8716,4.8774,4.9233,4.9693,4.9693,4.9233,4.9117,5.0332,5.071,5.0942,5.1472,5.1646,5.1675,5.1675,5.1617,5.1617,5.1675,5.1207,5.0855,5.0855,5.0855,5.078,5.0529,5.1488,5.2078,5.1871,5.2417,5.2787,5.2787,5.3276,5.3878,5.4509,5.5137,5.5794,5.6423,5.6451,5.648,5.648,5.6537,5.6223,5.5594,5.6137,5.6137,5.568,5.5993,5.659,5.7336,5.6185,5.6124,5.6754,5.5895,5.5525,5.5524,5.5552,5.5917,5.6393,5.6535,5.6957,5.7547,5.6072,5.5773,5.5623,5.6282,5.6282,5.6282,5.6581,5.7334,5.7812,5.7573,5.7846,5.7636,5.6521,5.6282,5.5923,5.5239,5.5059,5.497,5.497,5.3713,5.2989,5.2989,5.1858,5.071,4.964,4.9479,4.8992,4.8181,4.7559,4.7566,4.806,4.6969,4.6741,4.7204,4.6682,4.6314,4.6135,4.6135,4.6046,4.5917,4.5917,4.5917,4.5917,4.5917,4.5917,4.5917,4.5917,4.5917,4.5917,4.5917,4.6214,4.6627,4.6772,4.7149,4.7695,4.8333,4.86,4.8803,4.932,4.9606,4.9693,4.9693,4.9606,4.9577,4.9838,5.0685,5.1439,5.1559,5.202,5.2394,5.2394,5.1962,5.1762,5.2307,5.2278,5.2191,5.2191,5.2191,5.2165,5.2114,5.232,5.2642,5.3056,5.3258,5.3345,5.3345,5.3461,5.3932,5.4839,5.5233,5.5838,5.6766,5.6993,5.7106,5.7106,5.7627,5.734,5.6194,5.6337,5.6594,5.6965,5.705,5.7193,5.7365,5.7105,5.6675,5.616,5.5988,5.5729,5.5552,5.603,5.6253,5.6535,5.7519,5.7969,5.8193,5.573,5.5444,5.5299,5.5683,5.5743,5.5923,5.6551,5.7184,5.7633,5.7573,5.7876,5.7606,5.6342,5.6192,5.5923,5.5239,5.5179,5.5179,5.5179,5.3947,5.3198,5.3198,5.1917,5.1026,5.0697,5.0581,5.0011,4.8937,4.8445,4.8399,4.8725,4.7938,4.7745,4.804,4.7369,4.7007,4.6843,4.6549,4.6247,4.6046,4.6046,4.6007,4.5917,4.5917,4.5917,4.5917,4.5917,4.5917,4.5946,4.6243,4.654,4.6917,4.7526,4.7932,4.8362,4.9001,4.9175,4.9233,4.9606,4.9693,4.9693,4.9693,4.9954,5.0245,5.054,5.112,5.1762,5.2372,5.2775,5.3007,5.3007,5.2746,5.263,5.2949,5.2801,5.2597,5.2597,5.2597,5.2597,5.2597,5.2859,5.3152,5.3471,5.3474,5.3474,5.3474,5.3474,5.4001,5.514,5.5335,5.5914,5.7049,5.7219,5.7448,5.7768,5.8116,5.8118,5.7772,5.7772,5.7945,5.829,5.8145,5.8289,5.8693,5.7798,5.7566,5.7737,5.6816,5.6497,5.6631,5.6792,5.7069,5.7407,5.8053,5.8474,5.8783,5.5844,5.57,5.57,5.57,5.57,5.6018,5.7045,5.72,5.7363,5.7842,5.7846,5.7363,5.6312,5.6102,5.5803,5.5239,5.5179,5.5179,5.5179,5.4042,5.3318,5.3198,5.2037,5.1295,5.1206,5.1206,5.069,4.9606,4.9282,4.9191,4.928,4.8889,4.8768,4.8857,4.8065,4.7688,4.7613,4.6941,4.6491,4.6269,4.6269,4.618,4.603,4.5956,4.5933,4.5962,4.5917,4.5953,4.6127,4.6627,4.6946,4.7323,4.8368,4.8774,4.9001,4.9548,4.9693,4.9693,4.9693,4.978,4.9867,4.9867,5.0361,5.1004,5.1643,5.1762,5.2078,5.3123,5.3442,5.3474,5.3474,5.3474,5.3474,5.3474,5.3065,5.2743,5.2743,5.2743,5.2743,5.2743,5.321,5.3474,5.3474,5.3474,5.3474,5.3474,5.359,5.4197,5.5358,5.5533,5.6113,5.7274,5.7303,5.7623,5.829,5.8406,5.8813,5.9451,5.9568,5.9568,5.9451,5.9188,5.9449,6.0119,5.8549,5.8518,5.95,5.7906,5.7468,5.7861,5.7702,5.7947,5.8398,5.8449,5.8783,5.9174,5.7746,5.7722,5.7722,5.7722,5.7722,5.7667,5.7531,5.753,5.7481,5.7255,5.6765,5.6402,5.6222,5.5683,5.5299,5.5209,5.5179,5.5179,5.5179,5.4491,5.3803,5.3228,5.2456,5.1798,5.1206,5.1206,5.1116,5.0936,5.0345,5.0322,5.086,4.9724,4.9463,4.9947,4.8746,4.8067,4.7807,4.7133,4.6734,4.6535,4.6535,4.6543,4.6469,4.6247,4.618,4.6135,4.5956,4.6243,4.6685,4.6772,4.7526,4.8484,4.8658,4.9117,4.9577,4.9664,4.9693,4.9693,4.9693,5.0129,5.0564,5.0564,5.1033,5.1643,5.2307,5.2452,5.251,5.2685,5.3123,5.3474,5.3474,5.3474,5.3474,5.3474,5.3442,5.3384,5.3384,5.3384,5.3384,5.3384,5.3471,5.3474,5.3474,5.3474,5.3474,5.3474,5.4052,5.4691,5.5358,5.5968,5.6578,5.7274,5.7303,5.7623,5.829,5.8871,5.948,6.009,6.0671,6.0642,6.009,6.0032,6.009,6.0206,5.9915,5.9478,5.8896,5.8635,5.8401,5.8277,5.8515,5.8677,5.876,5.8989,5.9149,5.9174,5.82,5.8085,5.8085,5.8085,5.8085,5.8175,5.8402,5.7972,5.7555,5.741,5.7002,5.6432,5.5743,5.5384,5.5179,5.5179,5.5179,5.5029,5.467,5.4012,5.3324,5.2665,5.2007,5.1475,5.1206,5.1206,5.1206,5.1206,5.0907,5.0907,5.1176,5.0631,5.0511,5.0727,4.977,4.9306,4.9103,4.8112,4.777,4.7836,4.7481,4.7481,4.7693,4.758,4.7444,4.7284,4.7055,4.6882,4.6917,4.7613,4.8223,4.8774,4.9146,4.9436,4.9693,4.9693,4.9693,4.978,5.0158,5.0477,5.0797,5.112,5.1672,5.2249,5.2539,5.2859,5.3094,5.3094,5.3326,5.359,5.3967,5.4081,5.4168,5.4517,5.4575,5.4575,5.4575,5.4575,5.4458,5.4084,5.4371,5.4284,5.3588,5.4142,5.4403,5.4084,5.4635,5.53,5.5939,5.6258,5.6868,5.7826,5.7855,5.8348,5.9364,5.9655,6.0119,6.0758,6.1048,6.1048,6.0758,6.0758,6.0758,6.0729,6.0351,6.0176,6.0086,5.9532,5.9322,5.9365,5.9314,5.9182,5.9025,5.9152,5.9174,5.9174]}]]